[[{"header":{"parameterUnit":"m.s-1","parameterCategory":1,"la1":31.0,"la2":29.5877,"lo1":-88.7671,"lo2":-86.6584,"dy":0.0162,"dx":0.0185,"nx":115,"ny":88,"refTime":"2025-11-06T00:00:00:Z","depth":0,"parameterNumber":2,"parameterNumberName":"U-component_of_WINDS"},"data":[0.0,0.0,0.0,0.0,0.0,0.0,0.0,0.0,0.0,0.0,0.0,0.0,0.0,0.0,0.0,0.0,0.0,0.0,0.0,0.0,0.0,0.0,0.0,0.0,0.0,0.0,0.0,0.0,0.0,0.0,0.0,0.0,0.0,0.0,0.0,0.0,0.0,0.0,0.0,0.0,0.0,0.0,0.0,0.0,0.0,0.0,0.0,0.0,0.0,0.0,0.0,0.0,0.0,0.0,0.0,0.0,0.0,0.0,0.0,0.0,0.0,0.0,0.0,0.0,0.0,0.0,0.0,0.0,0.0,0.0,0.0,0.0,0.0,0.0,0.0,0.0,0.0,0.0,0.0,0.0,0.0,0.0,0.0,0.0,0.0,0.0,0.0,0.0,0.0,0.0,0.0,0.0,0.0,0.0,0.0,0.0,0.0,0.0,0.0,0.0,0.0,0.0,0.0,0.0,0.0,0.0,0.0,0.0,0.0,0.0,0.0,0.0,0.0,0.0,0.0,0.0,0.0,0.0,0.0,0.0,0.0,0.0,0.0,0.0,0.0,0.0,0.0,0.0,0.0,0.0,0.0,0.0,0.0,0.0,0.0,0.0,0.0,0.0,0.0,0.0,0.0,0.0,0.0,0.0,0.0,0.0,0.0,0.0,0.0,0.0,0.0,0.0,0.0,0.0,0.0,0.0,0.0,0.0,0.0,0.0,0.0,0.0,0.0,0.0,0.0,0.0,0.0,0.0,0.0,0.0,0.0,0.0,0.0,0.0,0.0,0.0,0.0,0.0,0.0,0.0,0.0,0.0,0.0,0.0,0.0,0.0,0.0,0.0,0.0,0.0,0.0,0.0,0.0,0.0,0.0,0.0,0.0,0.0,0.0,0.0,0.0,0.0,0.0,0.0,0.0,0.0,0.0,0.0,0.0,0.0,0.0,0.0,0.0,0.0,0.0,0.0,0.0,0.0,0.0,0.0,0.0,0.0,0.0,0.0,0.0,0.0,0.0,0.0,0.0,0.0,0.0,0.0,0.0,0.0,0.0,0.0,0.0,0.0,0.0,0.0,0.0,0.0,0.0,0.0,0.0,0.0,0.0,0.0,0.0,0.0,0.0,0.0,0.0,0.0,0.0,0.0,0.0,0.0,0.0,0.0,0.0,0.0,0.0,0.0,0.0,0.0,0.0,0.0,0.0,0.0,0.0,0.0,0.0,0.0,0.0,0.0,0.0,0.0,0.0,0.0,0.0,0.0,0.0,0.0,0.0,0.0,0.0,0.0,0.0,0.0,0.0,0.0,0.0,0.0,0.0,0.0,0.0,0.0,0.0,0.0,0.0,0.0,0.0,0.0,0.0,0.0,0.0,0.0,0.0,0.0,0.0,0.0,0.0,0.0,0.0,0.0,0.0,0.0,0.0,0.0,0.0,0.0,0.0,0.0,0.0,0.0,0.0,0.0,0.0,0.0,0.0,0.0,0.0,0.0,0.0,0.0,0.0,0.0,0.0,0.0,0.0,0.0,0.0,0.0,0.0,0.0,0.0,0.0,0.0,0.0,0.0,0.0,0.0,0.0,0.0,0.0,0.0,0.0,0.0,0.0,0.0,0.0,0.0,0.0,0.0,0.0,0.0,0.0,0.0,0.0,0.0,0.0,0.0,0.0,0.0,0.0,0.0,0.0,0.0,0.0,0.0,0.0,0.0,0.0,0.0,0.0,0.0,0.0,0.0,0.0,0.0,0.0,0.0,0.0,0.0,0.0,0.0,0.0,0.0,0.0,0.0,0.0,0.0,0.0,0.0,0.0,0.0,0.0,0.0,0.0,0.0,0.0,0.0,0.0,0.0,0.0,0.0,0.0,0.0,0.0,0.0,0.0,0.0,0.0,0.0,0.0,0.0,0.0,0.0,0.0,0.0,0.0,0.0,0.0,0.0,0.0,0.0,0.0,0.0,0.0,0.0,0.0,0.0,0.0,0.0,0.0,0.0,0.0,0.0,0.0,0.0,0.0,0.0,0.0,0.0,0.0,0.0,0.0,0.0,0.0,0.0,0.0,0.0,0.0,0.0,0.0,0.0,0.0,0.0,0.0,0.0,0.0,0.0,0.0,0.0,0.0,0.0,0.0,0.0,0.0,0.0,0.0,0.0,0.0,0.0,0.0,0.0,0.0,0.0,0.0,0.0,0.0,0.0,0.0,0.0,0.0,0.0,0.0,0.0,0.0,0.0,0.0,0.0,0.0,0.0,0.0,0.0,0.0,0.0,0.0,0.0,0.0,0.0,0.0,0.0,0.0,0.0,0.0,0.0,0.0,0.0,0.0,0.0,0.0,0.0,0.0,0.0,0.0,0.0,0.0,0.0,0.0,0.0,0.0,0.0,0.0,0.0,0.0,0.0,0.0,0.0,0.0,0.0,0.0,0.0,0.0,0.0,0.0,0.0,0.0,0.0,0.0,0.0,0.0,0.0,0.0,0.0,0.0,0.0,0.0,0.0,0.0,0.0,0.0,0.0,0.0,0.0,0.0,0.0,0.0,0.0,0.0,0.0,0.0,0.0,0.0,0.0,0.0,0.0,0.0,0.0,0.0,0.0,0.0,0.0,0.0,0.0,0.0,0.0,0.0,0.0,0.0,0.0,0.0,0.0,0.0,0.0,0.0,0.0,0.0,0.0,0.0,0.0,0.0,0.0,0.0,0.0,0.0,0.0,0.0,0.0,0.0,0.0,0.0,0.0,0.0,0.0,0.0,0.0,0.0,0.0,0.0,0.0,0.0,0.0,0.0,0.0,0.0,0.0,0.0,0.0,0.0,0.0,0.0,0.0,0.0,0.0,0.0,0.0,0.0,0.0,0.0,0.0,0.0,0.0,0.0,0.0,0.0,0.0,0.0,0.0,0.0,0.0,0.0,0.0,0.0,0.0,0.0,0.0,0.0,0.0,0.0,0.0,0.0,0.0,0.0,0.0,0.0,0.0,0.0,0.0,0.0,0.0,0.0,0.0,0.0,0.0,0.0,0.0,0.0,0.0,0.0,0.0,0.0,0.0,0.0,0.0,0.0,0.0,0.0,0.0,0.0,0.0,0.0,0.0,0.0,0.0,0.0,0.0,0.0,0.0,0.0,0.0,0.0,0.0,0.0,0.0,0.0,0.0,0.0,0.0,0.0,0.0,0.0,0.0,0.0,0.0,0.0,0.0,0.0,0.0,0.0,0.0,0.0,0.0,0.0,0.0,0.0,0.0,0.0,0.0,0.0,0.0,0.0,0.0,0.0,0.0,0.0,0.0,0.0,0.0,0.0,0.0,0.0,0.0,0.0,0.0,0.0,0.0,0.0,0.0,0.0,0.0,0.0,0.0,0.0,0.0,0.0,0.0,0.0,0.0,0.0,0.0,0.0,0.0,0.0,0.0,0.0,0.0,0.0,0.0,0.0,0.0,0.0,0.0,0.0,0.0,0.0,0.0,0.0,0.0,0.0,0.0,0.0,0.0,0.0,0.0,0.0,0.0,0.0,0.0,0.0,0.0,0.0,0.0,0.0,0.0,0.0,0.0,0.0,0.0,0.0,0.0,0.0,0.0,0.0,0.0,0.0,0.0,0.0,0.0,0.0,0.0,0.0,0.0,0.0,0.0,0.0,0.0,0.0,0.0,0.0,0.0,0.0,0.0,0.0,0.0,0.0,0.0,0.0,0.0,0.0,0.0,0.0,0.0,0.0,0.0,0.0,0.0,0.0,0.0,0.0,0.0,0.0,0.0,0.0,0.0,0.0,0.0,0.0,0.0,0.0,0.0,0.0,0.0,0.0,0.0,0.0,0.0,0.0,0.0,0.0,0.0,0.0,0.0,0.0,0.0,0.0,0.0,0.0,0.0,0.0,0.0,0.0,0.0,0.0,0.0,0.0,0.0,0.0,0.0,0.0,0.0,0.0,0.0,0.0,0.0,0.0,0.0,0.0,0.0,0.0,0.0,0.0,0.0,0.0,0.0,0.0,0.0,0.0,0.0,0.0,0.0,0.0,0.0,0.0,0.0,0.0,0.0,0.0,0.0,0.0,0.0,0.0,0.0,0.0,0.0,0.0,0.0,0.0,0.0,0.0,0.0,0.0,0.0,0.0,0.0,0.0,0.0,0.0,0.0,0.0,0.0,0.0,0.0,0.0,0.0,0.0,0.0,0.0,0.0,0.0,0.0,0.0,0.0,0.0,0.0,0.0,0.0,0.0,0.0,0.0,0.0,0.0,0.0,0.0,0.0,0.0,0.0,0.0,0.0,0.0,0.0,0.0,0.0,0.0,-3.362,0.0,0.0,0.0,0.0,0.0,0.0,0.0,0.0,0.0,0.0,0.0,0.0,0.0,0.0,0.0,0.0,0.0,0.0,0.0,0.0,0.0,0.0,0.0,0.0,0.0,0.0,0.0,0.0,0.0,0.0,0.0,0.0,0.0,0.0,0.0,0.0,0.0,0.0,0.0,0.0,0.0,0.0,0.0,0.0,0.0,0.0,0.0,0.0,0.0,0.0,0.0,0.0,0.0,0.0,0.0,0.0,0.0,0.0,0.0,0.0,0.0,0.0,0.0,0.0,0.0,0.0,0.0,0.0,0.0,0.0,0.0,0.0,0.0,0.0,0.0,0.0,0.0,0.0,0.0,0.0,0.0,0.0,0.0,0.0,0.0,0.0,0.0,0.0,0.0,0.0,0.0,0.0,0.0,0.0,0.0,0.0,0.0,0.0,0.0,0.0,0.0,0.0,0.0,0.0,0.0,0.0,0.0,0.0,0.0,0.0,-3.4093,-3.3952,-3.3671,-3.3534,-3.3516,0.0,0.0,0.0,0.0,0.0,0.0,0.0,0.0,0.0,0.0,0.0,0.0,0.0,0.0,0.0,0.0,0.0,0.0,0.0,0.0,0.0,0.0,0.0,0.0,0.0,0.0,0.0,0.0,0.0,0.0,0.0,0.0,0.0,0.0,0.0,0.0,0.0,0.0,0.0,0.0,0.0,0.0,0.0,0.0,0.0,0.0,0.0,0.0,0.0,0.0,0.0,0.0,0.0,0.0,0.0,0.0,0.0,0.0,0.0,0.0,0.0,0.0,0.0,0.0,0.0,0.0,0.0,0.0,0.0,0.0,0.0,0.0,0.0,0.0,0.0,0.0,0.0,0.0,0.0,0.0,0.0,0.0,0.0,0.0,0.0,0.0,0.0,0.0,0.0,0.0,0.0,0.0,0.0,0.0,0.0,0.0,0.0,0.0,0.0,0.0,0.0,0.0,0.0,0.0,0.0,0.0,0.0,0.0,0.0,0.0,0.0,0.0,-3.3782,-3.3502,-3.3121,0.0,0.0,0.0,0.0,0.0,0.0,0.0,0.0,0.0,0.0,0.0,0.0,0.0,0.0,0.0,0.0,0.0,0.0,0.0,0.0,0.0,0.0,0.0,0.0,0.0,0.0,0.0,0.0,0.0,0.0,0.0,0.0,0.0,0.0,0.0,0.0,0.0,0.0,0.0,0.0,0.0,0.0,0.0,0.0,0.0,0.0,0.0,0.0,0.0,0.0,0.0,0.0,0.0,0.0,0.0,0.0,0.0,0.0,0.0,0.0,0.0,0.0,0.0,0.0,0.0,0.0,0.0,0.0,0.0,0.0,0.0,0.0,0.0,0.0,0.0,0.0,0.0,0.0,0.0,0.0,0.0,0.0,0.0,0.0,0.0,0.0,0.0,0.0,0.0,0.0,0.0,0.0,0.0,0.0,0.0,0.0,0.0,0.0,0.0,0.0,0.0,0.0,0.0,0.0,0.0,0.0,0.0,0.0,0.0,0.0,-3.3909,-3.4525,-3.4513,0.0,-3.2469,0.0,0.0,0.0,0.0,0.0,0.0,0.0,0.0,0.0,0.0,0.0,0.0,0.0,0.0,0.0,0.0,0.0,0.0,0.0,0.0,0.0,0.0,0.0,0.0,0.0,0.0,0.0,0.0,0.0,0.0,0.0,0.0,0.0,0.0,0.0,0.0,0.0,0.0,0.0,0.0,0.0,0.0,0.0,0.0,0.0,0.0,0.0,0.0,0.0,0.0,0.0,0.0,0.0,0.0,0.0,0.0,0.0,0.0,0.0,0.0,0.0,0.0,0.0,0.0,0.0,0.0,0.0,0.0,0.0,0.0,0.0,0.0,0.0,0.0,0.0,0.0,0.0,0.0,0.0,0.0,0.0,0.0,0.0,0.0,0.0,0.0,0.0,0.0,0.0,0.0,0.0,0.0,0.0,0.0,0.0,0.0,0.0,0.0,0.0,0.0,0.0,0.0,0.0,0.0,0.0,0.0,0.0,0.0,0.0,0.0,-3.4393,-3.4606,-3.4609,-3.3846,0.0,0.0,0.0,0.0,0.0,0.0,0.0,0.0,0.0,0.0,0.0,0.0,0.0,0.0,0.0,0.0,0.0,0.0,0.0,0.0,0.0,0.0,0.0,0.0,0.0,0.0,0.0,0.0,0.0,0.0,0.0,0.0,0.0,0.0,0.0,0.0,0.0,0.0,0.0,0.0,0.0,0.0,0.0,0.0,0.0,0.0,0.0,0.0,0.0,0.0,0.0,0.0,0.0,0.0,0.0,0.0,0.0,0.0,0.0,0.0,0.0,0.0,0.0,0.0,0.0,0.0,0.0,0.0,0.0,0.0,0.0,0.0,0.0,0.0,0.0,0.0,0.0,0.0,0.0,0.0,0.0,0.0,0.0,0.0,0.0,0.0,0.0,0.0,0.0,0.0,0.0,0.0,0.0,0.0,0.0,0.0,0.0,0.0,0.0,0.0,0.0,0.0,0.0,0.0,0.0,0.0,0.0,0.0,0.0,0.0,-3.4558,0.0,-3.4914,-3.4935,-3.4081,-3.227,0.0,0.0,0.0,0.0,0.0,0.0,0.0,0.0,0.0,0.0,0.0,0.0,0.0,0.0,0.0,0.0,0.0,0.0,0.0,0.0,0.0,0.0,0.0,0.0,0.0,0.0,0.0,0.0,0.0,0.0,0.0,0.0,0.0,0.0,0.0,0.0,0.0,0.0,0.0,0.0,0.0,0.0,0.0,0.0,0.0,0.0,0.0,0.0,0.0,0.0,0.0,0.0,0.0,0.0,0.0,0.0,0.0,0.0,0.0,0.0,0.0,0.0,0.0,0.0,0.0,0.0,0.0,0.0,0.0,0.0,0.0,0.0,0.0,0.0,0.0,0.0,0.0,0.0,0.0,0.0,0.0,0.0,0.0,0.0,0.0,0.0,0.0,0.0,0.0,0.0,0.0,0.0,0.0,0.0,0.0,0.0,0.0,0.0,0.0,0.0,0.0,0.0,0.0,0.0,0.0,0.0,0.0,0.0,0.0,-3.5044,-3.4776,-3.5695,-3.5731,-3.4624,0.0,0.0,0.0,0.0,0.0,0.0,0.0,0.0,0.0,0.0,0.0,0.0,0.0,0.0,0.0,0.0,0.0,0.0,0.0,0.0,0.0,0.0,0.0,0.0,0.0,0.0,0.0,0.0,0.0,0.0,0.0,0.0,0.0,0.0,0.0,0.0,0.0,0.0,0.0,0.0,0.0,0.0,0.0,0.0,0.0,0.0,0.0,0.0,0.0,0.0,0.0,0.0,0.0,0.0,0.0,0.0,0.0,0.0,0.0,0.0,0.0,0.0,0.0,0.0,0.0,0.0,0.0,0.0,0.0,0.0,0.0,0.0,0.0,0.0,0.0,0.0,0.0,0.0,0.0,0.0,0.0,0.0,0.0,0.0,0.0,0.0,0.0,0.0,0.0,0.0,0.0,0.0,0.0,0.0,0.0,0.0,0.0,0.0,0.0,0.0,0.0,0.0,0.0,0.0,0.0,0.0,0.0,0.0,0.0,-3.4264,-3.4375,-3.4862,-3.5731,-3.4808,-3.361,0.0,0.0,0.0,0.0,0.0,0.0,0.0,0.0,0.0,0.0,0.0,0.0,0.0,0.0,0.0,0.0,0.0,0.0,0.0,0.0,0.0,0.0,0.0,0.0,0.0,0.0,0.0,0.0,0.0,0.0,0.0,0.0,0.0,0.0,0.0,0.0,0.0,0.0,0.0,0.0,0.0,0.0,0.0,0.0,0.0,0.0,0.0,0.0,0.0,0.0,0.0,0.0,0.0,0.0,0.0,0.0,0.0,0.0,0.0,0.0,0.0,0.0,0.0,0.0,0.0,0.0,0.0,0.0,0.0,0.0,0.0,0.0,0.0,0.0,0.0,0.0,0.0,0.0,0.0,0.0,0.0,0.0,0.0,0.0,0.0,0.0,0.0,0.0,0.0,0.0,0.0,0.0,0.0,0.0,0.0,0.0,0.0,0.0,0.0,0.0,0.0,0.0,0.0,0.0,0.0,0.0,0.0,0.0,0.0,-3.3422,0.0,-3.5024,0.0,-3.4102,-3.2904,0.0,0.0,0.0,0.0,0.0,0.0,0.0,0.0,0.0,0.0,0.0,0.0,0.0,0.0,0.0,0.0,0.0,0.0,0.0,0.0,0.0,0.0,0.0,0.0,0.0,0.0,0.0,0.0,0.0,0.0,0.0,0.0,0.0,0.0,0.0,0.0,0.0,0.0,0.0,0.0,0.0,0.0,0.0,0.0,0.0,0.0,0.0,0.0,0.0,0.0,0.0,0.0,0.0,0.0,0.0,0.0,0.0,0.0,0.0,0.0,0.0,0.0,0.0,0.0,0.0,0.0,0.0,0.0,0.0,0.0,0.0,0.0,0.0,0.0,0.0,0.0,0.0,0.0,0.0,0.0,0.0,0.0,0.0,0.0,0.0,0.0,0.0,0.0,0.0,0.0,0.0,0.0,0.0,0.0,0.0,0.0,0.0,0.0,0.0,0.0,0.0,0.0,0.0,0.0,0.0,0.0,0.0,0.0,-3.4111,-3.4173,-3.4991,-3.5127,-3.4519,-3.3747,-3.2614,0.0,0.0,0.0,0.0,0.0,0.0,0.0,0.0,0.0,0.0,0.0,0.0,0.0,0.0,0.0,0.0,0.0,0.0,0.0,0.0,0.0,0.0,0.0,0.0,0.0,0.0,0.0,0.0,0.0,0.0,0.0,0.0,0.0,0.0,0.0,0.0,0.0,0.0,0.0,0.0,0.0,0.0,0.0,0.0,0.0,0.0,0.0,0.0,0.0,0.0,0.0,0.0,0.0,0.0,0.0,0.0,0.0,0.0,0.0,0.0,0.0,0.0,0.0,0.0,0.0,0.0,0.0,0.0,0.0,0.0,0.0,0.0,0.0,0.0,0.0,0.0,0.0,0.0,0.0,0.0,0.0,0.0,0.0,0.0,0.0,0.0,0.0,0.0,0.0,0.0,0.0,0.0,0.0,0.0,0.0,0.0,0.0,0.0,0.0,0.0,0.0,0.0,0.0,0.0,0.0,0.0,0.0,0.0,0.0,-3.3407,-3.4203,-3.4623,-3.4465,-3.2716,-3.1763,0.0,0.0,0.0,0.0,0.0,0.0,0.0,0.0,0.0,0.0,0.0,0.0,0.0,0.0,0.0,0.0,0.0,0.0,0.0,0.0,0.0,0.0,0.0,0.0,0.0,0.0,0.0,0.0,0.0,0.0,0.0,0.0,0.0,0.0,0.0,0.0,0.0,0.0,0.0,0.0,0.0,0.0,0.0,0.0,0.0,0.0,0.0,0.0,0.0,0.0,0.0,0.0,0.0,0.0,0.0,0.0,0.0,0.0,0.0,0.0,0.0,0.0,0.0,0.0,0.0,0.0,0.0,0.0,0.0,0.0,0.0,0.0,0.0,0.0,0.0,0.0,0.0,0.0,0.0,0.0,0.0,0.0,0.0,0.0,0.0,0.0,0.0,0.0,0.0,0.0,0.0,0.0,0.0,0.0,0.0,0.0,0.0,0.0,0.0,0.0,0.0,0.0,0.0,0.0,0.0,0.0,0.0,0.0,0.0,-3.3484,-3.4277,-3.4643,-3.4436,-3.2773,-3.1836,-3.1709,0.0,0.0,0.0,0.0,0.0,0.0,0.0,0.0,0.0,0.0,0.0,0.0,0.0,0.0,0.0,0.0,0.0,0.0,0.0,0.0,0.0,0.0,0.0,0.0,0.0,0.0,0.0,0.0,0.0,0.0,0.0,0.0,0.0,0.0,0.0,0.0,0.0,0.0,0.0,0.0,0.0,0.0,0.0,0.0,0.0,0.0,0.0,0.0,0.0,0.0,0.0,0.0,0.0,0.0,0.0,0.0,0.0,0.0,0.0,0.0,0.0,0.0,0.0,0.0,0.0,0.0,0.0,0.0,0.0,0.0,0.0,0.0,0.0,0.0,0.0,0.0,0.0,0.0,0.0,0.0,0.0,0.0,0.0,0.0,0.0,0.0,0.0,0.0,0.0,0.0,0.0,0.0,0.0,0.0,0.0,0.0,0.0,0.0,0.0,0.0,0.0,0.0,0.0,0.0,0.0,0.0,0.0,0.0,-3.4169,-3.5086,-3.5186,-3.4411,-3.3737,-3.2669,0.0,0.0,0.0,0.0,0.0,0.0,0.0,0.0,0.0,0.0,0.0,0.0,0.0,0.0,0.0,0.0,0.0,0.0,0.0,0.0,0.0,0.0,0.0,0.0,0.0,0.0,0.0,0.0,0.0,0.0,0.0,0.0,0.0,0.0,0.0,0.0,0.0,0.0,0.0,0.0,0.0,0.0,0.0,0.0,0.0,0.0,0.0,0.0,0.0,0.0,0.0,0.0,0.0,0.0,0.0,0.0,0.0,0.0,0.0,0.0,0.0,0.0,0.0,0.0,0.0,0.0,0.0,0.0,0.0,0.0,0.0,0.0,0.0,0.0,0.0,0.0,0.0,0.0,0.0,0.0,0.0,0.0,0.0,0.0,0.0,0.0,0.0,0.0,0.0,0.0,0.0,0.0,0.0,0.0,0.0,0.0,0.0,0.0,0.0,0.0,0.0,0.0,0.0,0.0,0.0,0.0,0.0,0.0,0.0,-3.4936,-3.5824,-3.5944,-3.5186,-3.3932,-3.2831,0.0,0.0,0.0,0.0,0.0,0.0,0.0,0.0,0.0,0.0,0.0,0.0,0.0,0.0,0.0,0.0,0.0,0.0,0.0,0.0,0.0,0.0,0.0,0.0,0.0,0.0,0.0,0.0,0.0,0.0,0.0,0.0,0.0,0.0,0.0,0.0,0.0,0.0,0.0,0.0,0.0,0.0,0.0,0.0,0.0,0.0,0.0,0.0,0.0,0.0,0.0,0.0,0.0,0.0,0.0,0.0,0.0,0.0,0.0,0.0,0.0,0.0,0.0,0.0,0.0,0.0,0.0,0.0,0.0,0.0,0.0,0.0,0.0,0.0,0.0,0.0,0.0,0.0,0.0,0.0,0.0,0.0,0.0,0.0,0.0,0.0,0.0,0.0,0.0,0.0,0.0,0.0,0.0,0.0,0.0,0.0,0.0,0.0,0.0,0.0,0.0,0.0,0.0,0.0,0.0,0.0,0.0,0.0,-3.4954,-3.5703,-3.6559,-3.6665,-3.5944,-3.5161,-3.3936,0.0,0.0,0.0,0.0,0.0,0.0,0.0,0.0,0.0,0.0,0.0,0.0,0.0,0.0,0.0,0.0,0.0,0.0,0.0,0.0,0.0,0.0,0.0,0.0,0.0,0.0,0.0,0.0,0.0,0.0,0.0,0.0,0.0,0.0,0.0,0.0,0.0,0.0,0.0,0.0,0.0,0.0,0.0,0.0,0.0,0.0,0.0,0.0,0.0,0.0,0.0,0.0,0.0,0.0,0.0,0.0,0.0,0.0,0.0,0.0,0.0,0.0,0.0,0.0,0.0,0.0,0.0,0.0,0.0,0.0,0.0,0.0,0.0,0.0,0.0,0.0,0.0,0.0,0.0,0.0,0.0,0.0,0.0,0.0,0.0,0.0,0.0,0.0,0.0,0.0,0.0,0.0,0.0,0.0,0.0,0.0,0.0,0.0,0.0,0.0,0.0,0.0,0.0,0.0,0.0,0.0,0.0,0.0,-3.5685,-3.6399,-3.7202,-3.7274,-3.6664,-3.6657,-3.5311,0.0,0.0,0.0,0.0,0.0,0.0,0.0,0.0,0.0,0.0,0.0,0.0,0.0,0.0,0.0,0.0,0.0,0.0,0.0,0.0,0.0,0.0,0.0,0.0,0.0,0.0,0.0,0.0,0.0,0.0,0.0,0.0,0.0,0.0,0.0,0.0,0.0,0.0,0.0,0.0,0.0,0.0,0.0,0.0,0.0,0.0,0.0,0.0,0.0,0.0,0.0,0.0,0.0,0.0,0.0,0.0,0.0,0.0,0.0,0.0,0.0,0.0,0.0,0.0,0.0,0.0,0.0,0.0,0.0,0.0,0.0,0.0,0.0,0.0,0.0,0.0,0.0,0.0,0.0,0.0,0.0,0.0,0.0,0.0,0.0,0.0,0.0,0.0,0.0,0.0,0.0,0.0,0.0,0.0,0.0,0.0,0.0,0.0,0.0,0.0,0.0,0.0,0.0,0.0,0.0,0.0,0.0,0.0,-3.6238,-3.6399,-3.7202,-3.7542,-3.7453,-3.6373,-3.4891,0.0,0.0,0.0,0.0,0.0,0.0,0.0,0.0,0.0,0.0,0.0,0.0,0.0,0.0,0.0,0.0,0.0,0.0,0.0,0.0,0.0,0.0,0.0,0.0,0.0,0.0,0.0,0.0,0.0,0.0,0.0,0.0,0.0,0.0,0.0,0.0,0.0,0.0,0.0,0.0,0.0,0.0,0.0,0.0,0.0,0.0,0.0,0.0,-3.0707,0.0,0.0,0.0,0.0,0.0,0.0,0.0,0.0,0.0,0.0,0.0,0.0,0.0,0.0,0.0,0.0,0.0,0.0,0.0,0.0,0.0,0.0,0.0,0.0,0.0,0.0,0.0,0.0,0.0,0.0,0.0,0.0,0.0,0.0,0.0,0.0,0.0,0.0,0.0,0.0,0.0,0.0,0.0,0.0,0.0,0.0,0.0,0.0,0.0,0.0,0.0,0.0,0.0,0.0,0.0,0.0,0.0,0.0,0.0,-3.6577,-3.697,-3.7362,-3.7613,-3.7613,-3.6556,-3.5096,0.0,0.0,0.0,0.0,0.0,0.0,0.0,0.0,0.0,0.0,0.0,0.0,0.0,0.0,0.0,0.0,0.0,0.0,0.0,0.0,0.0,0.0,0.0,0.0,0.0,0.0,0.0,0.0,0.0,0.0,0.0,0.0,0.0,0.0,0.0,0.0,0.0,0.0,0.0,0.0,0.0,0.0,0.0,0.0,0.0,0.0,0.0,0.0,0.0,0.0,0.0,0.0,0.0,0.0,0.0,0.0,0.0,0.0,0.0,0.0,0.0,0.0,0.0,0.0,0.0,0.0,0.0,0.0,0.0,0.0,0.0,0.0,0.0,0.0,0.0,0.0,0.0,0.0,0.0,0.0,0.0,0.0,0.0,0.0,0.0,0.0,0.0,0.0,0.0,0.0,0.0,0.0,0.0,0.0,0.0,0.0,0.0,0.0,0.0,0.0,0.0,0.0,0.0,0.0,0.0,0.0,0.0,-3.606,-3.6792,-3.7559,-3.7595,-3.7595,-3.7595,-3.7006,-3.5552,-3.3286,0.0,0.0,0.0,0.0,0.0,0.0,0.0,0.0,0.0,0.0,0.0,0.0,0.0,0.0,0.0,0.0,0.0,0.0,0.0,0.0,0.0,0.0,0.0,0.0,0.0,0.0,0.0,0.0,0.0,0.0,0.0,0.0,0.0,0.0,0.0,0.0,0.0,0.0,-3.0757,-3.2074,0.0,0.0,0.0,0.0,0.0,0.0,0.0,0.0,-3.3213,0.0,0.0,0.0,0.0,0.0,0.0,0.0,0.0,0.0,0.0,0.0,0.0,0.0,0.0,0.0,0.0,0.0,0.0,0.0,0.0,0.0,0.0,0.0,0.0,0.0,0.0,0.0,0.0,0.0,0.0,0.0,0.0,0.0,0.0,0.0,0.0,0.0,0.0,0.0,0.0,0.0,0.0,0.0,0.0,0.0,0.0,0.0,0.0,0.0,0.0,0.0,0.0,0.0,0.0,0.0,0.0,-3.6167,-3.6328,-3.6774,-3.7577,-3.7595,-3.7595,-3.7595,-3.747,-3.6022,-3.3223,0.0,0.0,0.0,0.0,0.0,0.0,0.0,0.0,0.0,0.0,0.0,0.0,0.0,0.0,0.0,0.0,0.0,0.0,0.0,0.0,0.0,0.0,0.0,0.0,0.0,0.0,0.0,0.0,0.0,0.0,0.0,0.0,0.0,0.0,0.0,0.0,0.0,0.0,0.0,-3.2843,-3.3477,0.0,0.0,0.0,0.0,0.0,0.0,0.0,0.0,-3.3504,0.0,0.0,0.0,0.0,0.0,0.0,0.0,0.0,0.0,0.0,0.0,0.0,0.0,0.0,0.0,0.0,0.0,0.0,0.0,0.0,0.0,0.0,0.0,0.0,0.0,0.0,0.0,0.0,0.0,0.0,0.0,0.0,0.0,0.0,0.0,0.0,0.0,0.0,0.0,0.0,0.0,0.0,0.0,0.0,0.0,0.0,0.0,0.0,0.0,0.0,0.0,0.0,0.0,0.0,0.0,-3.5685,-3.6595,-3.7202,-3.7577,-3.7595,-3.7595,-3.7577,-3.6792,-3.5274,0.0,0.0,0.0,0.0,0.0,0.0,0.0,0.0,0.0,0.0,0.0,0.0,0.0,0.0,0.0,0.0,0.0,0.0,0.0,0.0,0.0,0.0,0.0,0.0,0.0,0.0,0.0,0.0,0.0,0.0,0.0,0.0,0.0,0.0,0.0,0.0,0.0,0.0,0.0,0.0,-3.3565,-3.381,-3.4619,0.0,0.0,0.0,0.0,0.0,0.0,-3.3242,-3.3307,0.0,0.0,0.0,0.0,0.0,0.0,0.0,0.0,0.0,0.0,0.0,0.0,0.0,0.0,0.0,0.0,0.0,0.0,0.0,0.0,0.0,0.0,0.0,0.0,0.0,0.0,0.0,0.0,0.0,0.0,0.0,0.0,0.0,0.0,0.0,0.0,0.0,0.0,0.0,0.0,0.0,0.0,0.0,0.0,0.0,0.0,0.0,0.0,0.0,0.0,0.0,0.0,0.0,0.0,0.0,-3.5048,-3.647,-3.727,-3.7449,-3.7522,-3.7576,-3.7577,-3.6203,-3.4633,0.0,0.0,0.0,0.0,0.0,0.0,0.0,0.0,0.0,0.0,0.0,0.0,0.0,0.0,0.0,0.0,0.0,0.0,0.0,0.0,0.0,0.0,0.0,0.0,0.0,0.0,0.0,0.0,0.0,0.0,0.0,0.0,0.0,0.0,0.0,0.0,0.0,0.0,0.0,0.0,0.0,-3.4243,-3.5349,-3.3753,0.0,0.0,0.0,0.0,-3.3572,-3.3638,0.0,0.0,0.0,0.0,0.0,0.0,0.0,0.0,0.0,0.0,0.0,0.0,0.0,0.0,0.0,0.0,0.0,0.0,0.0,0.0,0.0,0.0,0.0,0.0,0.0,0.0,0.0,0.0,0.0,0.0,0.0,0.0,0.0,0.0,0.0,0.0,0.0,0.0,0.0,0.0,0.0,0.0,0.0,0.0,0.0,0.0,0.0,0.0,0.0,0.0,0.0,0.0,0.0,0.0,0.0,0.0,-3.4601,-3.5422,-3.6194,-3.6943,-3.7262,-3.7485,-3.7595,-3.672,-3.5203,0.0,0.0,0.0,0.0,0.0,0.0,0.0,0.0,0.0,0.0,0.0,0.0,0.0,0.0,0.0,0.0,0.0,0.0,0.0,0.0,0.0,0.0,0.0,0.0,0.0,0.0,0.0,0.0,0.0,0.0,0.0,0.0,0.0,0.0,0.0,0.0,0.0,0.0,0.0,0.0,0.0,-3.4906,-3.4612,-3.3576,-3.3137,0.0,0.0,0.0,-3.4878,-3.4962,0.0,0.0,0.0,0.0,0.0,0.0,0.0,0.0,0.0,0.0,0.0,0.0,0.0,0.0,0.0,0.0,0.0,0.0,0.0,0.0,0.0,0.0,0.0,0.0,0.0,0.0,0.0,0.0,0.0,0.0,0.0,0.0,0.0,0.0,0.0,0.0,0.0,0.0,0.0,0.0,0.0,0.0,0.0,0.0,0.0,0.0,0.0,0.0,0.0,0.0,0.0,0.0,0.0,0.0,0.0,-3.2634,-3.4545,-3.5714,-3.6466,-3.69,-3.7225,-3.7466,-3.7595,-3.5971,-3.4401,0.0,0.0,0.0,0.0,0.0,0.0,0.0,0.0,0.0,0.0,0.0,0.0,0.0,0.0,0.0,0.0,0.0,0.0,0.0,0.0,0.0,0.0,0.0,0.0,0.0,0.0,0.0,0.0,0.0,0.0,0.0,0.0,0.0,0.0,0.0,0.0,0.0,0.0,0.0,0.0,0.0,0.0,-3.5405,-3.4412,0.0,0.0,0.0,-3.4199,-3.4587,0.0,0.0,0.0,0.0,0.0,0.0,0.0,0.0,0.0,0.0,0.0,0.0,0.0,0.0,0.0,0.0,0.0,0.0,0.0,0.0,0.0,0.0,0.0,0.0,0.0,0.0,0.0,0.0,0.0,0.0,0.0,0.0,0.0,0.0,0.0,0.0,0.0,0.0,0.0,0.0,0.0,0.0,0.0,0.0,0.0,0.0,0.0,0.0,0.0,0.0,0.0,0.0,0.0,0.0,0.0,0.0,0.0,-3.4525,-3.5792,-3.6577,-3.6818,-3.711,-3.7266,-3.7237,-3.5383,0.0,0.0,0.0,0.0,0.0,0.0,0.0,0.0,0.0,0.0,0.0,0.0,0.0,0.0,0.0,0.0,0.0,0.0,0.0,0.0,0.0,0.0,0.0,0.0,0.0,0.0,0.0,-2.4308,0.0,0.0,0.0,0.0,0.0,0.0,0.0,0.0,0.0,0.0,0.0,0.0,0.0,0.0,-3.4852,-3.5915,-3.5079,-3.4651,0.0,0.0,-3.4461,-3.4696,-3.5137,-3.4956,0.0,0.0,0.0,0.0,0.0,0.0,0.0,0.0,0.0,0.0,0.0,0.0,0.0,0.0,0.0,0.0,0.0,0.0,0.0,0.0,0.0,0.0,0.0,0.0,0.0,0.0,0.0,0.0,0.0,0.0,0.0,0.0,0.0,0.0,0.0,0.0,0.0,0.0,0.0,0.0,0.0,0.0,0.0,0.0,0.0,0.0,0.0,0.0,0.0,0.0,0.0,0.0,0.0,0.0,0.0,-3.4357,-3.5113,-3.5876,-3.6594,-3.6756,-3.6679,-3.6381,-3.558,-3.3706,0.0,0.0,0.0,0.0,0.0,0.0,0.0,0.0,0.0,0.0,0.0,0.0,0.0,0.0,0.0,0.0,0.0,0.0,0.0,0.0,0.0,0.0,0.0,0.0,0.0,0.0,0.0,0.0,0.0,0.0,0.0,0.0,0.0,0.0,0.0,0.0,0.0,0.0,0.0,0.0,0.0,-3.5272,-3.5356,-3.5224,-3.5387,0.0,0.0,-3.5373,-3.6042,-3.618,-3.5732,-3.4251,0.0,0.0,0.0,0.0,0.0,0.0,0.0,0.0,0.0,0.0,0.0,0.0,0.0,0.0,0.0,0.0,0.0,0.0,0.0,0.0,0.0,0.0,0.0,0.0,0.0,0.0,0.0,0.0,0.0,0.0,0.0,0.0,0.0,0.0,0.0,0.0,0.0,0.0,0.0,0.0,0.0,0.0,0.0,0.0,0.0,0.0,0.0,0.0,0.0,0.0,0.0,0.0,0.0,-3.2397,-3.4071,-3.516,-3.5902,-3.627,-3.6341,-3.6337,-3.6292,-3.5134,-3.3491,0.0,0.0,0.0,0.0,0.0,0.0,0.0,0.0,0.0,0.0,0.0,0.0,0.0,0.0,0.0,0.0,0.0,0.0,0.0,0.0,0.0,0.0,0.0,0.0,0.0,0.0,0.0,0.0,-2.6813,-2.7192,-2.7692,0.0,0.0,0.0,0.0,0.0,0.0,0.0,0.0,0.0,0.0,-3.6205,-3.6609,-3.6222,0.0,0.0,-3.568,-3.5456,-3.618,-3.5904,-3.5283,-3.4249,-3.4096,0.0,0.0,0.0,0.0,0.0,0.0,0.0,0.0,0.0,0.0,0.0,0.0,0.0,0.0,0.0,0.0,0.0,0.0,0.0,0.0,0.0,0.0,0.0,0.0,0.0,0.0,0.0,0.0,0.0,0.0,0.0,0.0,0.0,0.0,0.0,0.0,0.0,0.0,0.0,0.0,0.0,0.0,0.0,0.0,0.0,0.0,0.0,0.0,0.0,0.0,0.0,0.0,-3.249,-3.3874,-3.5231,-3.5868,-3.5745,-3.5745,-3.5622,-3.5385,-3.4497,-3.3191,0.0,0.0,0.0,0.0,0.0,0.0,0.0,0.0,0.0,0.0,0.0,0.0,0.0,0.0,0.0,0.0,0.0,0.0,0.0,0.0,0.0,0.0,0.0,0.0,0.0,0.0,0.0,0.0,-2.7371,-2.7567,-2.8142,0.0,0.0,0.0,0.0,0.0,0.0,0.0,0.0,0.0,0.0,-3.6738,-3.7374,-3.6801,-3.6284,-3.6284,-3.587,-3.5645,-3.5939,-3.5921,-3.5473,-3.4303,0.0,0.0,0.0,0.0,0.0,0.0,0.0,0.0,0.0,0.0,0.0,0.0,0.0,0.0,0.0,0.0,0.0,0.0,0.0,0.0,0.0,0.0,0.0,0.0,0.0,0.0,0.0,0.0,0.0,0.0,0.0,0.0,0.0,0.0,0.0,0.0,0.0,0.0,0.0,0.0,0.0,0.0,0.0,0.0,0.0,0.0,0.0,0.0,0.0,0.0,0.0,0.0,0.0,0.0,-3.3791,-3.5266,-3.5649,-3.4976,-3.4943,-3.4429,-3.3473,-3.3722,-3.2842,-3.0639,0.0,0.0,0.0,0.0,0.0,0.0,0.0,0.0,0.0,0.0,0.0,0.0,0.0,0.0,0.0,0.0,0.0,0.0,0.0,0.0,0.0,0.0,0.0,0.0,0.0,0.0,-2.8142,-2.8178,-2.8164,0.0,0.0,0.0,0.0,0.0,0.0,0.0,0.0,0.0,0.0,-3.6017,-3.6755,-3.7392,-3.6818,-3.6353,-3.6318,-3.6318,-3.6059,-3.5421,-3.6456,-3.6684,0.0,0.0,0.0,0.0,0.0,0.0,0.0,0.0,0.0,0.0,0.0,0.0,0.0,0.0,0.0,0.0,0.0,0.0,0.0,0.0,0.0,0.0,0.0,0.0,0.0,0.0,0.0,-3.3411,-3.1955,0.0,0.0,0.0,0.0,0.0,0.0,0.0,0.0,0.0,0.0,0.0,-3.6399,-3.6506,0.0,0.0,0.0,0.0,0.0,0.0,0.0,0.0,0.0,0.0,0.0,0.0,-3.2525,-3.447,-3.5245,-3.5352,-3.4907,-3.4625,-3.41,-3.3333,-3.309,-3.2377,-3.1146,0.0,0.0,0.0,0.0,0.0,0.0,0.0,0.0,0.0,0.0,0.0,0.0,0.0,0.0,0.0,0.0,0.0,0.0,0.0,0.0,0.0,0.0,0.0,0.0,0.0,-2.8042,0.0,0.0,0.0,0.0,0.0,0.0,0.0,0.0,0.0,0.0,0.0,-3.4634,-3.6606,-3.7028,-3.7262,-3.7461,-3.7702,-3.7646,0.0,0.0,0.0,0.0,0.0,0.0,0.0,0.0,0.0,0.0,0.0,0.0,0.0,0.0,-3.9928,-3.6853,-3.6111,-3.6094,-3.6632,0.0,0.0,0.0,0.0,0.0,0.0,0.0,0.0,0.0,0.0,0.0,0.0,0.0,0.0,0.0,0.0,-3.3739,0.0,0.0,0.0,0.0,0.0,0.0,0.0,0.0,-3.7523,-3.8276,-3.8342,-3.8435,-3.8158,0.0,-3.6471,-3.5186,0.0,0.0,0.0,0.0,0.0,0.0,0.0,0.0,-3.2688,-3.4464,-3.5238,-3.5183,-3.4359,-3.4126,-3.368,-3.2948,-3.2702,-3.2253,-3.1487,-3.0559,-2.9944,0.0,0.0,0.0,0.0,0.0,0.0,0.0,0.0,0.0,0.0,0.0,0.0,0.0,0.0,0.0,0.0,0.0,0.0,0.0,0.0,0.0,0.0,0.0,-2.7864,0.0,0.0,0.0,0.0,0.0,0.0,0.0,0.0,0.0,-3.4279,-3.4868,-3.6094,-3.8127,-3.8091,-3.7875,-3.7892,0.0,0.0,0.0,0.0,0.0,0.0,0.0,-3.6922,-3.7426,-3.734,-3.753,-3.853,-4.0359,-4.1774,-4.1964,0.0,0.0,-3.9238,-3.8474,-3.8439,-3.8962,-3.9687,-4.0429,-4.1147,-4.1371,-4.1321,0.0,0.0,0.0,0.0,0.0,0.0,0.0,0.0,-3.6883,-3.6542,0.0,-3.5528,0.0,0.0,0.0,0.0,0.0,0.0,0.0,0.0,-4.0083,-4.0209,-3.9066,-3.8864,-3.8712,-3.8632,-3.9197,-3.8698,-3.7011,-3.3519,0.0,0.0,0.0,0.0,0.0,0.0,-3.3399,-3.3908,-3.5238,-3.5048,-3.3321,-3.3481,-3.3186,-3.2284,-3.259,-3.2433,-3.1673,-3.1618,-3.1275,-3.055,-2.9869,0.0,0.0,0.0,0.0,0.0,0.0,0.0,0.0,0.0,0.0,0.0,0.0,0.0,0.0,0.0,0.0,0.0,0.0,0.0,0.0,-2.773,0.0,0.0,0.0,0.0,0.0,0.0,0.0,0.0,0.0,0.0,-3.59,-3.68,-3.8166,-3.9616,0.0,0.0,0.0,0.0,-3.8336,-3.765,-3.8203,-3.8461,-3.7789,-3.875,-3.9146,-3.7858,0.0,0.0,-4.0998,-4.224,-4.2982,-4.2275,-4.2844,-4.3258,-4.3207,-4.2396,-4.194,-4.2085,-4.263,-4.3483,-4.4216,-4.4445,-4.4483,-3.9715,0.0,0.0,0.0,0.0,-3.9643,-4.0402,-4.1903,-4.0636,-3.9764,-3.9217,-3.8454,0.0,0.0,0.0,0.0,0.0,0.0,-3.8743,-3.9175,-3.9789,-3.9873,-3.9542,-3.9035,-3.8585,-3.8151,-3.7547,-3.6932,-3.6319,-3.4733,-3.3322,-3.208,0.0,0.0,0.0,0.0,-3.354,-3.4856,-3.5141,-3.4687,-3.3573,-3.3683,-3.3302,-3.244,-3.2674,-3.2632,-3.2336,-3.2419,-3.2109,-3.1403,-3.1153,0.0,0.0,0.0,0.0,0.0,0.0,0.0,0.0,0.0,0.0,0.0,0.0,0.0,0.0,0.0,0.0,0.0,0.0,0.0,-2.7716,-2.7587,-2.7962,0.0,0.0,0.0,0.0,0.0,0.0,0.0,0.0,0.0,-3.8011,-3.7801,-3.8005,0.0,0.0,-3.6973,-3.6956,-3.7887,-3.8525,-3.8323,0.0,0.0,0.0,-3.9353,-3.9129,-3.9825,-4.0912,-4.2033,-4.3155,-4.369,-4.4087,-4.4354,-4.463,-4.4759,-4.4716,-4.3716,-4.3293,-4.4147,-4.463,-4.5234,-4.6379,-4.6419,-4.5908,-4.2216,-4.168,-4.0508,-4.0492,-4.1155,-4.0805,-4.1652,-4.3236,-4.2095,-4.1521,-4.1342,-4.0619,-3.9333,-3.7685,-3.7866,0.0,0.0,0.0,-4.0054,-4.0507,-4.0133,-3.99,-3.9715,-3.8819,-3.8185,-3.7763,-3.7015,-3.6563,-3.6423,-3.5694,-3.4868,-3.4032,0.0,0.0,-3.321,-3.3439,-3.4103,-3.5138,-3.5125,-3.4785,-3.414,-3.3923,-3.3401,-3.2576,-3.269,-3.2756,-3.2672,-3.2756,-3.259,-3.2188,-3.1882,-3.1118,0.0,0.0,0.0,0.0,0.0,0.0,0.0,0.0,0.0,0.0,0.0,-2.7794,-2.5224,0.0,0.0,0.0,-2.7697,-2.8399,-2.8444,-2.9187,0.0,0.0,0.0,0.0,0.0,0.0,0.0,-3.779,-3.8781,-3.9229,-3.8811,-3.817,-3.7897,-3.8496,-3.7542,-3.6766,-3.6766,0.0,-3.8594,-3.8594,-3.9629,-4.0549,-4.0843,-4.0135,-3.9842,-4.0756,-4.1516,-4.2413,-4.3603,-4.4087,-4.457,-4.519,-4.5414,-4.5414,-4.5414,-4.4665,-4.4285,-4.5207,-4.5673,-4.6207,-4.7103,-4.6921,-4.6464,-4.4446,-4.4178,-4.1306,-4.063,-4.1379,-4.1552,-4.2063,-4.2717,-4.2096,-4.2227,-4.29,-4.2158,-4.1379,-4.0655,-3.9985,0.0,0.0,-4.1433,-4.1876,-4.2111,-4.0972,-4.0189,-3.9606,-3.8329,-3.7619,-3.7408,-3.7211,-3.707,-3.687,-3.6241,-3.5943,-3.5992,-3.5313,-3.4949,-3.4899,-3.4923,-3.4923,-3.4947,-3.5241,-3.525,-3.4852,-3.4173,-3.3473,-3.2746,-3.2774,-3.2805,-3.2805,-3.2805,-3.2873,-3.2971,-3.2239,-3.1457,-3.0725,0.0,0.0,0.0,0.0,0.0,0.0,0.0,0.0,0.0,0.0,0.0,0.0,0.0,0.0,0.0,-2.895,0.0,-2.9851,-3.1789,0.0,0.0,0.0,-3.4673,-3.5006,-3.6774,-3.793,-3.7783,0.0,0.0,0.0,0.0,-3.7949,-3.8444,-3.7892,-3.7409,-3.7409,-3.8013,-3.8491,-3.8456,-3.9198,-3.998,-4.0618,-4.0739,-4.0843,-4.105,-4.1567,-4.2292,-4.3103,-4.3845,-4.4552,-4.5121,-4.5363,-4.5414,-4.5414,-4.5328,-4.5414,-4.538,-4.6017,-4.6613,-4.6749,-4.6697,-4.644,-4.3012,-4.279,-4.2136,-4.2678,-4.393,-4.4055,-4.4225,-4.4353,-4.3682,-4.3471,-4.3617,-4.2917,-4.2502,-4.2321,-4.2158,-4.2176,-4.232,-4.2158,-4.1993,-4.1789,-4.1167,-4.0315,-3.9276,-3.8334,-3.7442,-3.6645,-3.5942,-3.5573,-3.5413,-3.5247,-3.5446,-3.5959,-3.5827,-3.5462,-3.4916,-3.4899,-3.5024,-3.5287,-3.5356,-3.5431,-3.5387,-3.4393,-3.384,-3.3746,-3.3191,-3.2868,-3.2868,-3.2868,-3.3153,-3.3758,-3.3061,-3.2525,-3.2329,-2.9904,0.0,0.0,0.0,0.0,0.0,0.0,0.0,0.0,0.0,-3.0071,-2.635,0.0,-2.9476,0.0,-3.056,-3.158,-3.1934,-3.2331,0.0,0.0,-3.5501,-3.6091,-3.6866,-3.849,-3.9259,-3.8476,-3.9755,-4.0372,-3.9549,-3.8846,-3.8242,-3.7823,-3.7077,-3.6577,-3.6611,-3.7249,-3.7771,-3.7909,-3.8888,-3.975,-4.0008,-4.0532,-4.1084,-4.1654,-4.1871,-4.2275,-4.3069,-4.381,-4.438,-4.4561,-4.5044,-4.5345,-4.538,-4.5414,-4.5414,-4.5449,-4.6035,-4.6731,-4.7182,-4.682,-4.6304,-4.2432,-4.2308,-4.2486,-4.3048,-4.3822,-4.3942,-4.4021,-4.3985,-4.3597,-4.3457,-4.3439,-4.3062,-4.2919,-4.2919,-4.2919,-4.2919,-4.29,-4.2634,-4.2419,-4.2193,-4.1414,-4.0686,-4.0002,-3.8856,-3.7997,-3.7456,-3.6643,-3.6222,-3.6133,-3.615,-3.6534,-3.7235,-3.6753,-3.6454,-3.633,-3.587,-3.5629,-3.5633,-3.5815,-3.5908,-3.5888,-3.4942,-3.4335,-3.4081,-3.3328,-3.29,-3.29,-3.29,-3.3114,-3.3508,-3.3132,-3.29,-3.2864,-3.1242,-3.0332,0.0,0.0,0.0,0.0,0.0,0.0,0.0,0.0,0.0,0.0,0.0,-3.1128,0.0,-3.2497,0.0,-3.4154,-3.466,-3.5604,-3.712,-3.7611,-3.8096,-3.8642,-3.9792,-4.0302,-3.9709,-4.0107,-4.0268,-3.9773,-3.9043,-3.8461,-3.8025,-3.7616,-3.7077,-3.6525,-3.7012,-3.7616,-3.7978,-3.8939,-3.9836,-4.0146,-4.0601,-4.1032,-4.1429,-4.1492,-4.1774,-4.2534,-4.3,-4.3379,-4.3776,-4.4389,-4.4906,-4.4923,-4.519,-4.5397,-4.5466,-4.5742,-4.6146,-4.6477,-4.6121,-4.5686,-4.2613,-4.2611,-4.2841,-4.2883,-4.2793,-4.2908,-4.2893,-4.2822,-4.2881,-4.2919,-4.2919,-4.2919,-4.2919,-4.2919,-4.2919,-4.2919,-4.2919,-4.2919,-4.2919,-4.2827,-4.1797,-4.1296,-4.1181,-3.9747,-3.9051,-3.8925,-3.8161,-3.7773,-3.779,-3.7807,-3.8104,-3.8668,-3.7757,-3.7598,-3.8237,-3.7324,-3.6559,-3.6032,-3.6454,-3.6619,-3.6434,-3.567,-3.494,-3.4241,-3.3455,-3.3007,-3.29,-3.3007,-3.3096,-3.3203,-3.3203,-3.3239,-3.3328,-3.3061,-3.2632,0.0,-3.1813,0.0,0.0,0.0,0.0,0.0,0.0,0.0,0.0,-3.2755,-3.3002,-3.3235,-3.445,-3.5518,-3.628,-3.7547,-3.8523,-3.9049,-3.961,-3.9991,-4.0058,-4.0649,-4.0989,-4.0774,-4.0308,-3.9986,-3.9894,-3.9198,-3.875,-3.8738,-3.856,-3.8047,-3.6973,-3.7249,-3.7927,-3.853,-3.9215,-3.9939,-4.0653,-4.0877,-4.0912,-4.0912,-4.0946,-4.1136,-4.175,-4.1981,-4.2309,-4.3069,-4.3845,-4.4363,-4.4432,-4.501,-4.538,-4.5414,-4.5449,-4.5483,-4.5447,-4.5287,-4.5005,-4.42,-4.4068,-4.4568,-4.442,-4.3841,-4.3725,-4.3383,-4.2881,-4.29,-4.2919,-4.2919,-4.2919,-4.2919,-4.2919,-4.2919,-4.2919,-4.2919,-4.2919,-4.2919,-4.2864,-4.2643,-4.2359,-4.1948,-4.0917,-4.0229,-3.9804,-3.8791,-3.8277,-3.8254,-3.8213,-3.8282,-3.8459,-3.8277,-3.841,0.0,0.0,0.0,0.0,-3.7032,-3.7228,-3.718,-3.6524,-3.5793,-3.499,-3.4276,0.0,-3.2971,-3.3526,-3.4151,-3.4722,-3.4775,0.0,0.0,0.0,0.0,0.0,0.0,0.0,0.0,0.0,0.0,0.0,-3.4278,-3.3447,-3.3562,-3.4388,-3.4687,-3.4194,-3.577,-3.7055,-3.7586,-3.8408,-3.9245,-4.0018,-4.0185,-4.0114,-3.9836,-4.0469,-4.0694,-4.0014,-4.04,-4.0694,-4.0601,-3.9991,-3.9491,-3.9457,-3.8974,-3.8491,-3.8232,-3.8284,-3.8461,-3.8651,-3.9319,-3.9991,-4.0791,-4.0894,-4.0894,-4.0894,-4.0894,-4.0963,-4.1136,-4.1671,-4.2258,-4.3034,-4.3793,-4.4492,-4.5044,-4.5311,-4.5414,-4.5414,-4.5414,-4.5371,-4.523,-4.5113,-4.4978,-4.4766,0.0,-4.521,-4.5077,0.0,-4.4534,-4.4045,-4.3367,-4.3044,-4.2919,-4.2919,-4.2919,-4.2919,-4.2919,-4.2919,-4.2919,-4.2919,-4.2919,-4.2919,-4.2919,-4.2919,-4.2787,-4.2519,-4.1884,-4.1461,-4.1195,-4.0328,-3.9891,-3.9891,-3.9841,-3.9841,-3.9857,-3.9687,-3.9707,-3.9919,-3.9611,-3.8874,-3.769,-3.7494,-3.7448,-3.7468,-3.6774,-3.6203,-3.5792,0.0,0.0,0.0,0.0,0.0,0.0,0.0,0.0,0.0,0.0,0.0,-3.6292,-3.5275,-3.4954,-3.5739,-3.5435,-3.5917,-3.7434,-3.7202,-3.6435,-3.519,-3.6284,-3.6915,-3.6676,-3.7798,-3.8785,-3.9305,-3.9347,-3.9679,-4.0573,-4.036,-4.0126,-4.0319,-4.07,-4.0786,-4.0452,-4.07,-4.0959,-4.0894,-4.056,-4.0325,-4.029,-3.9997,-3.9721,-3.9704,-3.937,-3.925,-3.9669,-4.0014,-4.0429,-4.0808,-4.0894,-4.0894,-4.0894,-4.0894,-4.0894,-4.0894,-4.1516,-4.2154,-4.262,-4.3517,-4.4449,-4.4785,-4.5147,-4.5414,-4.5397,-4.5371,-4.5274,-4.5203,-4.5069,-4.4978,-4.537,-4.5956,-4.5893,-4.572,-4.5551,-4.5346,-4.4834,-4.4065,0.0,0.0,0.0,-4.2919,-4.2919,-4.2919,-4.2919,-4.2919,-4.2919,-4.2919,-4.2919,-4.2919,-4.2919,-4.2919,-4.29,-4.2611,-4.2434,-4.2394,-4.1852,-4.1547,-4.1507,-4.1503,-4.1503,-4.1494,-4.1174,-4.1038,-4.1026,-4.0379,-3.9708,-3.905,-3.8123,-3.7698,-3.7773,-3.7006,-3.6542,-3.6399,-3.5757,-3.5346,-3.5221,-3.5329,-3.54,-3.5435,-3.5543,-3.6221,-3.747,-3.6988,-3.7255,-3.8629,-3.8183,-3.7916,-3.8184,-3.8076,-3.829,-3.8968,-3.9538,-3.9165,-3.7327,-3.814,-3.8828,-3.9035,-3.9529,-4.0089,-4.0643,-4.0221,-4.021,-4.1053,-4.0568,-4.0383,-4.0855,-4.1029,-4.1076,-4.1,-4.1006,-4.1047,-4.0894,-4.0877,-4.0894,-4.0894,-4.0791,-4.0894,-4.0825,-4.0308,-4.0112,-4.0636,-4.0756,-4.0877,-4.0894,-4.0894,-4.0894,-4.0894,-4.0894,-4.0946,-4.1153,-4.1602,-4.2068,-4.2585,-4.3517,-4.4242,-4.4518,-4.5027,-4.538,-4.5414,-4.53,-4.5247,-4.522,-4.514,-4.5032,-4.7302,-4.7416,-4.7795,-4.744,-4.6585,-4.6402,-4.5768,-4.4822,-4.3496,-4.2919,-4.2919,-4.2919,-4.2919,-4.2919,-4.2919,-4.2919,-4.2919,-4.2919,-4.2919,0.0,-4.2919,-4.2919,-4.2882,-4.2785,-4.2686,-4.2552,-4.229,-4.2121,-4.1998,-4.1948,-4.1948,-4.1998,-4.1937,-4.1946,-4.2014,-4.1303,-4.0858,-4.0733,-3.9342,-3.8611,-3.8611,-3.7845,-3.7113,-3.6435,-3.6328,-3.5899,-3.5222,-3.5882,-3.6238,-3.6256,-3.6881,-3.7381,-3.7577,-3.7523,-3.7844,-3.8719,-3.8682,-3.9218,-4.0449,-3.9985,-3.9629,-3.9734,-3.9841,-4.0019,-4.0394,-3.9666,-3.9209,-3.9284,-3.9796,-4.0144,-4.039,-4.0923,-4.1268,-4.134,-4.1248,-4.1162,-4.1117,-4.1152,-4.1175,-4.1093,-4.1093,-4.1047,-4.0935,-4.0894,-4.0894,-4.0894,-4.0894,-4.0894,-4.0877,-4.0808,-4.0774,-4.0877,-4.0894,-4.0894,-4.0894,-4.0894,-4.0929,-4.0894,-4.0946,-4.1205,-4.1774,-4.2068,-4.2568,-4.3707,-4.4156,-4.457,-4.5079,-4.5294,-4.5397,-4.5414,-4.5371,-4.5353,-4.5327,-4.5247,-4.5069,-4.7961,-4.8336,-4.8384,-4.8106,-4.7624,-4.6973,-4.653,-4.6113,-4.5095,-4.4472,-4.4205,-4.4186,-4.3951,-4.3552,-4.3571,-4.3336,-4.2919,-4.3353,-4.3571,-4.3571,-4.3534,-4.3571,-4.3498,-4.3058,-4.2725,-4.2571,-4.2486,-4.2346,-4.2225,-4.2199,-4.2181,-4.2205,-4.2207,-4.2228,-4.2269,-4.193,-4.1752,-4.1716,-4.0199,-3.9377,-3.9397,-3.904,-3.8487,-3.7737,-3.7702,-3.7327,-3.6542,-3.6845,-3.7041,-3.7059,-3.7809,-3.8433,-3.8826,-3.8843,-3.92,-3.9968,-3.9627,-3.9681,-4.0396,-4.0521,-4.0556,-4.0574,-4.0967,-4.1341,-4.1716,-4.0816,-4.0247,-4.0265,-4.0789,-4.1165,-4.1208,-4.1603,-4.1732,-4.1538,-4.1515,-4.1426,-4.129,-4.134,-4.138,-4.1307,-4.1261,-4.1192,-4.1029,-4.0953,-4.0894,-4.0894,-4.0894,-4.0912,-4.0912,-4.0912,-4.0912,-4.0894,-4.0894,-4.0894,-4.0894,-4.0894,-4.1067,-4.1412,-4.1498,-4.1826,-4.2499,-4.2913,-4.3517,-4.4156,-4.4578,-4.501,-4.538,-4.5414,-4.5414,-4.5397,-4.5327,-4.53,-4.5274,-4.5194,-4.5032,-4.8314,-4.8855,-4.8623,-4.8477,-4.8328,-4.7495,-4.7219,-4.7278,-4.6783,-4.6341,-4.5979,-4.5611,-4.5025,-4.4403,-4.4349,-4.4081,-4.3685,-4.4175,-4.4522,-4.458,-4.458,-4.458,-4.4525,-4.3868,-4.3463,-4.3308,-4.3268,-4.3151,-4.301,-4.303,-4.2943,-4.2781,-4.2582,-4.2452,-4.2391,-4.2391,-4.2351,-4.2218,-4.1074,-4.034,-4.0182,-3.9984,-3.9609,-3.911,-3.904,-3.8754,-3.8148,-3.8113,-3.813,-3.813,-3.8719,-3.9288,-3.9823,-3.9877,-4.0251,-4.0931,-4.0521,-4.0271,-4.0467,-4.102,-4.1359,-4.1377,-4.2109,-4.2555,-4.2519,-4.2115,-4.1647,-4.1413,-4.1742,-4.2034,-4.2016,-4.2072,-4.1966,-4.1714,-4.1697,-4.1758,-4.1748,-4.185,-4.1978,-4.1971,-4.1815,-4.1614,-4.1412,-4.111,-4.0894,-4.0894,-4.1032,-4.1153,-4.1153,-4.1153,-4.1188,-4.1309,-4.1153,-4.0912,-4.0912,-4.1101,-4.1395,-4.194,-4.2171,-4.2603,-4.3258,-4.3931,-4.4363,-4.4544,-4.501,-4.5311,-4.5397,-4.5414,-4.5414,-4.5397,-4.5327,-4.5247,-4.5274,-4.5167,-4.5005,-4.8834,-4.889,-4.8838,-4.8678,-4.8402,-4.8041,-4.7947,-4.8007,-4.7934,-4.7992,-4.7867,-4.6451,-4.5603,-4.522,-4.5202,-4.5287,-4.5461,-4.5608,-4.5755,-4.597,-4.5986,-4.5986,-4.5969,-4.5858,-4.5681,-4.5313,-4.5388,-4.5203,-4.4892,-4.5066,-4.489,-4.4198,-4.3488,-4.2993,-4.271,-4.2709,-4.2554,-4.2308,-4.2165,-4.1716,-4.0985,-4.0269,-3.9877,-3.9825,-3.9788,-3.9752,-3.9611,-3.97,-3.9663,-3.9681,-3.9734,-3.9841,-3.9895,-3.9895,-4.0269,-4.1056,-4.1056,-4.1306,-4.1966,-4.2126,-4.2216,-4.2234,-4.2947,-4.3393,-4.3429,-4.3907,-4.364,-4.2605,-4.2267,-4.2371,-4.2284,-4.2356,-4.2302,-4.2143,-4.2115,-4.2243,-4.2688,-4.2873,-4.3196,-4.3825,-4.2986,-4.2451,-4.2224,-4.1613,-4.105,-4.117,-4.1619,-4.1912,-4.1912,-4.1905,-4.2137,-4.2465,-4.1878,-4.1084,-4.1101,-4.1516,-4.1964,-4.213,-4.2654,-4.3327,-4.3983,-4.4311,-4.4483,-4.5027,-4.5276,-4.5397,-4.5414,-4.5414,-4.5414,-4.5414,-4.5397,-4.5371,-4.5388,-4.5291,-4.514,-4.889,-4.889,-4.889,-4.882,-4.8678,-4.8587,-4.8587,-4.8678,-4.8731,-4.8713,-4.864,-4.8008,-4.7313,-4.6544,-4.6544,-4.636,-4.6101,-4.656,-4.687,-4.6973,-4.6989,-4.7023,-4.6986,-4.652,-4.6163,-4.5917,-4.5971,-4.5846,-4.5606,-4.5605,-4.5422,-4.5111,-4.4765,-4.4326,-4.3757,-4.355,-4.3158,-4.2571,-4.2371,-4.2129,-4.1823,-4.1484,-4.1092,-4.0663,-4.0628,-4.0378,-3.9948,-3.9877,-3.9877,-3.993,-4.0342,-4.0628,-4.0628,-4.1056,-4.1448,-4.1805,-4.2269,-4.2662,-4.3001,-4.3411,-4.3661,-4.3661,-4.3964,-4.4139,-4.4157,-4.4424,-4.4282,-4.3822,-4.3661,-4.3661,-4.3643,-4.3661,-4.3597,-4.3486,-4.3486,-4.361,-4.3811,-4.3904,-4.4081,-4.4263,-4.3761,-4.3314,-4.3138,-4.2666,-4.2299,-4.2275,-4.2551,-4.2689,-4.2723,-4.2706,-4.2844,-4.3034,-4.262,-4.2344,-4.224,-4.2465,-4.2861,-4.3258,-4.3603,-4.4104,-4.4699,-4.4958,-4.5096,-4.538,-4.5397,-4.5414,-4.5414,-4.5414,-4.5414,-4.5414,-4.5414,-4.5414,-4.5414,-4.5371,-4.5274,-4.889,-4.889,-4.889,-4.889,-4.889,-4.889,-4.8962,-4.9013,-4.9098,-4.9062,-4.8993,-4.9108,-4.8739,-4.8053,-4.7858,-4.749,-4.7149,-4.7683,-4.8027,-4.8093,-4.8159,-4.8175,-4.81,-4.7594,-4.7162,-4.6995,-4.7068,-4.6949,-4.6669,-4.6305,-4.6195,-4.6177,-4.5957,-4.5517,-4.4894,-4.4616,-4.4152,-4.3433,-4.316,-4.3015,-4.295,-4.2929,-4.2448,-4.1538,-4.1413,-4.1145,-4.061,-4.0574,-4.0574,-4.0574,-4.1127,-4.1538,-4.177,-4.2305,-4.2715,-4.2947,-4.3465,-4.3782,-4.3782,-4.43,-4.4585,-4.4603,-4.4763,-4.4946,-4.4959,-4.5142,-4.5267,-4.5267,-4.5267,-4.516,-4.4621,-4.4585,-4.4563,-4.4555,-4.4515,-4.4587,-4.48,-4.4854,-4.4943,-4.5098,-4.4716,-4.4091,-4.3731,-4.3516,-4.3429,-4.318,-4.3327,-4.35,-4.35,-4.35,-4.3569,-4.3759,-4.3828,-4.3603,-4.3327,-4.3379,-4.3741,-4.4121,-4.4363,-4.4768,-4.5294,-4.5363,-4.5397,-4.5397,-4.5397,-4.5414,-4.5414,-4.5414,-4.5414,-4.5414,-4.5414,-4.5414,-4.5414,-4.5397,-4.5397,-4.889,-4.889,-4.889,-4.8909,-4.889,-4.889,-4.889,-4.8926,-4.8907,-4.9012,-4.9181,-4.9241,-4.9349,-4.937,-4.8874,-4.8824,-4.9001,-4.9033,-4.9215,-4.9453,-4.9516,-4.9588,-4.9607,-4.9569,-4.9337,-4.8877,-4.9055,-4.9133,-4.8942,-4.8129,-4.7692,-4.7657,-4.6925,-4.6326,-4.5989,-4.59,-4.5589,-4.4945,-4.4825,-4.4731,-4.4471,-4.4446,-4.3697,-4.2465,-4.2272,-4.2251,-4.2162,-4.22,-4.2218,-4.218,-4.2251,-4.2608,-4.3265,-4.3429,-4.375,-4.4317,-4.4514,-4.4549,-4.4549,-4.4656,-4.471,-4.4763,-4.541,-4.5749,-4.5784,-4.6302,-4.6641,-4.6819,-4.6676,-4.6177,-4.5035,-4.4888,-4.4799,-4.4781,-4.4692,-4.5049,-4.5695,-4.5744,-4.6123,-4.6453,-4.5845,-4.4882,-4.3736,-4.4036,-4.4023,-4.3698,-4.3862,-4.4259,-4.4259,-4.4259,-4.4492,-4.4941,-4.5052,-4.4794,-4.3655,-4.3845,-4.4242,-4.4501,-4.4923,-4.532,-4.5345,-4.5414,-4.5414,-4.5414,-4.5414,-4.5414,-4.5414,-4.5414,-4.5414,-4.5414,-4.5414,-4.5414,-4.5414,-4.5414,-4.5414,-4.889,-4.889,-4.8996,-4.8979,-4.889,-4.889,-4.889,-4.8909,-4.9027,-4.9115,-4.9166,-4.9308,-4.9368,-4.9402,-4.9337,-4.938,-4.9521,-4.9581,-4.964,-4.9764,-4.9802,-4.983,-4.983,-4.983,-4.9759,-4.9655,-4.9811,-4.9805,-4.9594,-4.9047,-4.8787,-4.8663,-4.8288,-4.7725,-4.7158,-4.6926,-4.6452,-4.5718,-4.5317,-4.5034,-4.4944,-4.4714,-4.43,-4.3839,-4.3768,-4.3554,-4.309,-4.3518,-4.3786,-4.3747,-4.3765,-4.3911,-4.4139,-4.4193,-4.43,-4.4603,-4.5066,-4.5374,-4.5445,-4.5856,-4.6123,-4.6159,-4.6391,-4.6534,-4.6605,-4.6819,-4.6998,-4.6998,-4.6998,-4.6623,-4.6355,-4.6123,-4.6123,-4.6141,-4.6141,-4.6195,-4.648,-4.6569,-4.6694,-4.685,-4.6447,-4.5804,-4.5162,-4.5161,-4.5129,-4.4751,-4.4854,-4.4958,-4.501,-4.5027,-4.5113,-4.5311,-4.5397,-4.5225,-4.4837,-4.4803,-4.5027,-4.5079,-4.5259,-4.5328,-4.5397,-4.5414,-4.5414,-4.5414,-4.5414,-4.5414,-4.5414,-4.5414,-4.5414,-4.5414,-4.5414,-4.5414,-4.5414,-4.5414,-4.5414,-4.8943,-4.8979,-4.9064,-4.9081,-4.9012,-4.8995,-4.8995,-4.9012,-4.9129,-4.9181,-4.9197,-4.934,-4.9399,-4.9418,-4.9559,-4.9663,-4.9736,-4.9778,-4.9802,-4.9811,-4.9619,-4.9533,-4.9476,-4.9229,-4.9227,-4.9465,-4.9825,-4.9914,-4.9787,-4.9535,-4.9358,-4.9241,-4.9062,-4.8702,-4.8201,-4.7936,-4.7443,-4.6801,-4.6372,-4.6096,-4.5892,-4.5677,-4.5336,-4.5088,-4.5249,-4.4874,-4.3925,-4.4335,-4.4585,-4.4585,-4.4585,-4.471,-4.4963,-4.5249,-4.5374,-4.5445,-4.5873,-4.6177,-4.6248,-4.6717,-4.698,-4.6998,-4.698,-4.6998,-4.6998,-4.6998,-4.6998,-4.6998,-4.6998,-4.6998,-4.6998,-4.6962,-4.6998,-4.6998,-4.6998,-4.6998,-4.6998,-4.698,-4.6939,-4.6893,-4.676,-4.6411,-4.603,-4.6045,-4.5827,-4.5502,-4.5511,-4.5615,-4.545,-4.5414,-4.5414,-4.5414,-4.5414,-4.5397,-4.519,-4.519,-4.5242,-4.5294,-4.5311,-4.538,-4.5414,-4.5414,-4.5414,-4.5414,-4.5414,-4.5414,-4.5414,-4.5414,-4.5414,-4.5414,-4.5414,-4.5414,-4.5414,-4.5414,-4.5414,-4.9101,-4.91,-4.9164,-4.9214,-4.9195,-4.9179,-4.9195,-4.912,-4.9137,-4.9148,-4.9123,-4.9309,-4.9386,-4.9574,-4.9634,-4.9721,-4.9778,-4.9887,-4.9848,-4.9728,-4.9026,-4.8736,-4.8774,-4.8243,-4.8465,-4.9224,-4.9635,-4.9929,-5.0043,-4.9856,-4.9668,-4.9462,-4.9309,-4.9139,-4.9064,-4.8815,-4.8639,-4.8274,-4.8107,-4.791,-4.756,-4.7291,-4.6777,-4.6029,-4.6485,-4.6141,-4.4728,-4.471,-4.4817,-4.4763,-4.4745,-4.5013,-4.5802,-4.6409,-4.689,-4.6801,-4.6962,-4.702,-4.6998,-4.7074,-4.7122,-4.7105,-4.7033,-4.6998,-4.6998,-4.6998,-4.6998,-4.6998,-4.6998,-4.6998,-4.6998,-4.6998,-4.6998,-4.6998,-4.6998,-4.6998,-4.6998,-4.6998,-4.6957,-4.6847,-4.6801,-4.6566,-4.6277,-4.6332,-4.6235,-4.5701,-4.5744,-4.5854,-4.5485,-4.5414,-4.5414,-4.5414,-4.5414,-4.5414,-4.5414,-4.5397,-4.5397,-4.5397,-4.538,-4.5414,-4.5414,-4.5414,-4.5414,-4.5414,-4.5414,-4.5414,-4.5414,-4.5414,-4.5414,-4.5414,-4.5414,-4.5414,-4.5414,-4.5414,-4.5414,-4.9197,-4.9262,-4.9324,-4.9337,-4.9355,-4.9337,-4.9056,-4.8531,-4.8573,-4.8573,-4.8558,-4.8634,-4.8931,-4.9401,-4.9589,-4.9682,-4.9773,-5.027,-5.0094,-4.9127,-4.8249,-4.8225,-4.8679,-4.8983,-4.994,-5.1256,-5.1674,-5.1775,-5.1659,-5.1485,-5.1154,-5.0527,-5.0132,-4.9704,-4.9222,-4.9013,-4.882,-4.8731,-4.8514,-4.8288,-4.8075,-4.7726,-4.7302,-4.7032,-4.7008,-4.6712,-4.6302,-4.6248,-4.6248,-4.6212,-4.6248,-4.6373,-4.6623,-4.6855,-4.698,-4.7033,-4.7556,-4.7824,-4.7824,-4.7806,-4.777,-4.7717,-4.7301,-4.7015,-4.6998,-4.6998,-4.6998,-4.6998,-4.6998,-4.6998,-4.6998,-4.6998,-4.7002,-4.6998,-4.6998,-4.6998,-4.702,-4.702,-4.698,-4.6934,-4.6934,-4.6731,-4.6405,-4.6447,-4.6211,-4.5693,-4.5667,-4.5589,-4.5476,-4.5414,-4.5414,-4.5414,-4.5414,-4.5414,-4.5414,-4.5414,-4.5414,-4.5414,-4.5414,-4.5414,-4.5414,-4.5414,-4.5414,-4.5414,-4.5414,-4.5414,-4.5414,-4.5414,-4.5414,-4.5414,-4.5414,-4.5414,-4.5414,-4.5414,-4.5414,-4.9257,-4.9352,-4.9461,-4.9303,-4.904,-4.9021,-4.8758,-4.8307,-4.8328,-4.8497,-4.8731,-4.8817,-4.9062,-4.9521,-4.9887,-5.0086,-5.0191,-5.0707,-5.0382,-4.95,-4.9075,-4.8988,-4.9153,-4.9305,-4.9965,-5.1058,-5.1503,-5.1655,-5.1674,-5.1801,-5.1533,-5.0915,-5.0906,-5.0482,-4.967,-4.9423,-4.9243,-4.893,-4.8695,-4.8514,-4.8345,-4.8053,-4.7747,-4.7511,-4.7294,-4.7156,-4.702,-4.6998,-4.6998,-4.6998,-4.6998,-4.6998,-4.6998,-4.698,-4.6998,-4.7087,-4.7431,-4.7734,-4.7752,-4.7663,-4.777,-4.7663,-4.7288,-4.6998,-4.6998,-4.6998,-4.6998,-4.6998,-4.7133,-4.7133,-4.7025,-4.7116,-4.7116,-4.7002,-4.6998,-4.6998,-4.702,-4.7116,-4.7093,-4.707,-4.7093,-4.6916,-4.6613,-4.6501,-4.6217,-4.5829,-4.5693,-4.5563,-4.5502,-4.5414,-4.5414,-4.5414,-4.5414,-4.5414,-4.5414,-4.5414,-4.5414,-4.5414,-4.5414,-4.5414,-4.5414,-4.5414,-4.5414,-4.5414,-4.5414,-4.5414,-4.5414,-4.5414,-4.5414,-4.5414,-4.5414,-4.5414,-4.5414,-4.5414,-4.5414,-4.9337,-4.943,-4.9558,-4.9145,-4.8523,-4.8485,-4.8409,-4.8315,-4.8423,-4.882,-4.9405,-4.9551,-4.9726,-4.9952,-5.0552,-5.0824,-5.0869,-5.079,-5.0839,-5.0744,-5.0745,-5.0601,-4.9795,-4.9392,-4.9495,-4.966,-5.0153,-5.0323,-5.0697,-5.1145,-5.0963,-5.0888,-5.1257,-5.117,-5.0177,-5.0058,-4.9522,-4.8966,-4.8873,-4.8713,-4.8476,-4.8345,-4.8113,-4.7557,-4.7446,-4.7272,-4.7025,-4.6998,-4.6998,-4.6998,-4.6998,-4.6998,-4.6998,-4.6998,-4.6998,-4.7015,-4.7033,-4.7235,-4.7163,-4.7342,-4.7283,-4.7301,-4.714,-4.6998,-4.6998,-4.6998,-4.6998,-4.702,-4.7245,-4.7294,-4.7116,-4.7205,-4.7249,-4.7048,-4.6998,-4.702,-4.7066,-4.7294,-4.7338,-4.7227,-4.7316,-4.7276,-4.669,-4.6719,-4.6394,-4.6013,-4.5887,-4.5744,-4.5554,-4.5414,-4.5414,-4.5414,-4.5414,-4.5414,-4.5414,-4.5414,-4.5414,-4.5414,-4.5414,-4.5414,-4.5414,-4.5414,-4.5414,-4.5414,-4.5414,-4.5414,-4.5414,-4.5414,-4.5414,-4.5414,-4.5414,-4.5414,-4.5414,-4.5414,-4.5414,-4.9434,-4.9558,-4.9094,-4.8767,-4.8632,-4.8632,-4.8215,-4.7799,-4.8386,-4.884,-4.9105,-4.9611,-5.0227,-5.079,-5.1003,-5.1343,-5.1469,-5.1137,-5.1174,-5.1515,-5.1654,-5.0964,-5.0128,-5.0237,-5.0657,-5.1192,-5.1263,-5.1755,-5.1774,-5.177,-5.1551,-5.087,-5.0986,-5.056,-4.961,-4.9387,-4.9132,-4.8927,-4.8909,-4.8892,-4.8751,-4.8399,-4.8052,-4.787,-4.7461,-4.7174,-4.702,-4.6998,-4.6998,-4.6998,-4.6998,-4.6998,-4.6998,-4.7015,-4.7069,-4.7122,-4.7568,-4.7895,-4.7895,-4.7895,-4.7877,-4.7824,-4.7377,-4.6998,-4.6998,-4.6998,-4.6998,-4.702,-4.7111,-4.7116,-4.7043,-4.7151,-4.7111,-4.7025,-4.7196,-4.7245,-4.7334,-4.7446,-4.7536,-4.7684,-4.76,-4.732,-4.6949,-4.6554,-4.6242,-4.5829,-4.5667,-4.5615,-4.545,-4.5414,-4.5414,-4.5414,-4.5414,-4.5414,-4.5414,-4.5414,-4.5414,-4.5414,-4.5414,-4.5414,-4.5414,-4.5414,-4.5414,-4.5414,-4.5414,-4.5414,-4.5414,-4.5414,-4.5414,-4.5414,-4.5414,-4.5414,-4.5414,-4.5414,-4.5414,-4.9318,-4.9122,-4.8767,-4.8229,-4.7738,-4.8003,-4.7864,-4.7719,-4.8679,-4.9424,-4.9784,-5.022,-5.0713,-5.1187,-5.1211,-5.1319,-5.1496,-5.1393,-5.1477,-5.1576,-5.1335,-5.0804,-5.0361,-5.0572,-5.0814,-5.1282,-5.1357,-5.1258,-5.1272,-5.158,-5.133,-5.0886,-5.0962,-5.0569,-4.9696,-4.948,-4.9224,-4.9039,-4.9187,-4.941,-4.9357,-4.9285,-4.9175,-4.8953,-4.8446,-4.802,-4.7597,-4.7176,-4.6998,-4.6998,-4.6998,-4.6998,-4.7033,-4.7337,-4.7502,-4.7538,-4.8229,-4.8657,-4.8657,-4.8657,-4.8657,-4.8514,-4.7925,-4.7568,-4.7449,-4.7252,-4.6998,-4.702,-4.7133,-4.7205,-4.7303,-4.7589,-4.7897,-4.8049,-4.8225,-4.8153,-4.7641,-4.7728,-4.7891,-4.7951,-4.7829,-4.7557,-4.7129,-4.6596,-4.6154,-4.5829,-4.5563,-4.5502,-4.5414,-4.5414,-4.55,-4.5604,-4.5483,-4.5432,-4.5449,-4.5449,-4.5414,-4.5414,-4.5414,-4.5414,-4.5414,-4.5414,-4.5414,-4.5414,-4.5414,-4.5414,-4.5414,-4.5414,-4.5414,-4.5414,-4.5414,-4.5414,-4.5414,-4.5414,-4.5414,-4.9068,-4.8423,-4.8443,-4.7624,-4.662,-4.7112,-4.7643,-4.8003,-4.9367,-5.0505,-5.113,-5.1319,-5.1362,-5.1305,-5.1286,-5.1116,-5.1027,-5.1209,-5.1204,-5.0958,-5.0569,-5.0214,-5.0365,-4.9984,-4.9939,-5.0048,-4.9876,-4.9906,-5.007,-5.0526,-5.0566,-5.045,-5.0966,-5.0923,-5.0224,-5.0153,-4.9856,-4.9596,-4.9968,-5.0246,-5.0249,-5.0301,-5.0242,-5.0049,-4.9595,-4.9021,-4.8334,-4.7747,-4.7372,-4.7306,-4.7158,-4.7194,-4.7288,-4.7895,-4.827,-4.8377,-4.8835,-4.9186,-4.9257,-4.9168,-4.9222,-4.9079,-4.8639,-4.8323,-4.8216,-4.7818,-4.7515,-4.7533,-4.7523,-4.7809,-4.8031,-4.8708,-4.9107,-4.9255,-4.9906,-4.9479,-4.8463,-4.8312,-4.8565,-4.8329,-4.8324,-4.8024,-4.7495,-4.6967,-4.646,-4.6828,-4.6439,-4.6306,-4.6149,-4.5975,-4.6044,-4.6069,-4.5828,-4.5466,-4.5483,-4.55,-4.5449,-4.5414,-4.5414,-4.5414,-4.5414,-4.5414,-4.5414,-4.5414,-4.5414,-4.5414,-4.5414,-4.5414,-4.5414,-4.5414,-4.5414,-4.5414,-4.5414,-4.5414,-4.5414,-4.8574,-4.8455,-4.7244,-4.6904,-4.7163,-4.7359,-4.8136,-4.94,-5.0448,-5.1414,-5.1987,-5.212,-5.2082,-5.2059,-5.1424,-5.1336,-5.1246,-5.0563,-4.9784,-4.948,-4.944,-4.9411,-4.9589,-4.9462,-4.9483,-4.9521,-4.9503,-4.9472,-4.957,-4.9709,-4.9668,-4.9679,-5.0396,-5.0513,-5.0301,-5.0748,-5.1063,-5.0896,-5.1026,-5.1101,-5.1009,-5.0793,-5.0652,-5.0463,-4.9838,-4.94,-4.9145,-4.8925,-4.8812,-4.8675,-4.8323,-4.8066,-4.8091,-4.868,-4.9079,-4.9186,-4.9276,-4.9412,-4.9353,-4.949,-4.9335,-4.9514,-4.9353,-4.9061,-4.9067,-4.8889,-4.8746,-4.88,-4.8888,-4.8936,-4.9252,-4.9531,-4.9959,-5.0263,-5.0615,-5.0772,-5.029,-5.0222,-5.0169,-5.0108,-4.9868,-4.9625,-4.9,-4.8371,-4.8005,-4.7866,-4.7587,-4.7382,-4.7042,-4.6642,-4.664,-4.6682,-4.6328,-4.6035,-4.6121,-4.5983,-4.5621,-4.5466,-4.5414,-4.5414,-4.5414,-4.5414,-4.5414,-4.5414,-4.5414,-4.5414,-4.5414,-4.5414,-4.5414,-4.5414,-4.5414,-4.5414,-4.5414,-4.5414,-4.5414,-4.8202,-4.7864,-4.6708,-4.6462,-4.6923,-4.7675,-4.8736,-5.0101,-5.1717,-5.2362,-5.2385,-5.24,-5.221,-5.176,-5.1002,-5.069,-5.0582,-4.9795,-4.9148,-4.898,-4.8998,-4.9049,-4.9176,-4.9446,-4.9622,-4.9481,-4.9415,-4.9384,-4.9396,-4.9666,-4.9863,-4.9696,-5.046,-5.0873,-5.0747,-5.1212,-5.1323,-5.1454,-5.1806,-5.1974,-5.1881,-5.1865,-5.1514,-5.1125,-5.0378,-4.9846,-4.987,-4.9436,-4.943,-4.9512,-4.9546,-4.9238,-4.8983,-4.9596,-5.0079,-5.0192,-5.0716,-5.0911,-5.0971,-5.0929,-5.0989,-5.0852,-5.0484,-5.0192,-4.9942,-4.9686,-4.9293,-4.9293,-4.9305,-4.9512,-5.0093,-5.0754,-5.1018,-5.1452,-5.1909,-5.2211,-5.2118,-5.1619,-5.1119,-5.1005,-5.0578,-5.0208,-4.9762,-4.9387,-4.8922,-4.851,-4.8225,-4.8005,-4.774,-4.74,-4.7351,-4.7262,-4.6906,-4.6707,-4.6855,-4.6579,-4.588,-4.5638,-4.5414,-4.5414,-4.5414,-4.5414,-4.5414,-4.5414,-4.5414,-4.5414,-4.5414,-4.5414,-4.5414,-4.5414,-4.5414,-4.5414,-4.5432,-4.5449,-4.5432,-4.7866,-4.7229,-4.6367,-4.6127,-4.6601,-4.787,-4.9097,-5.041,-5.2362,-5.2688,-5.2442,-5.231,-5.1793,-5.1149,-5.0353,-4.9811,-4.9567,-4.9307,-4.9033,-4.9223,-4.9224,-4.9391,-4.9612,-5.0056,-5.0199,-4.9717,-4.9851,-4.9786,-4.989,-5.0137,-5.046,-5.0468,-5.1138,-5.1546,-5.1584,-5.1751,-5.1974,-5.2122,-5.2531,-5.2791,-5.2772,-5.2979,-5.2746,-5.2127,-5.1465,-5.0964,-5.0856,-5.048,-5.0137,-5.034,-5.1,-5.0726,-5.0407,-5.068,-5.1357,-5.1379,-5.2091,-5.234,-5.2363,-5.2535,-5.2553,-5.2747,-5.1978,-5.1416,-5.1125,-5.068,-5.0311,-5.0115,-5.0221,-5.0412,-5.0839,-5.1619,-5.2272,-5.2655,-5.3308,-5.3642,-5.3437,-5.2398,-5.1841,-5.1712,-5.1399,-5.0939,-5.0561,-5.0169,-4.9639,-4.919,-4.8924,-4.868,-4.8468,-4.8273,-4.8286,-4.8062,-4.7724,-4.6934,-4.6889,-4.6889,-4.6224,-4.5742,-4.5466,-4.5432,-4.5432,-4.5414,-4.5414,-4.5414,-4.5414,-4.5414,-4.5414,-4.5414,-4.5414,-4.5414,-4.5414,-4.5414,-4.5449,-4.55,-4.5587,-4.7384,-4.727,-4.5767,-4.5899,-4.7131,-4.7548,-4.8969,-5.0827,-5.1585,-5.195,-5.2253,-5.1722,-5.1381,-5.0959,-5.0277,-4.9745,-4.943,-4.9241,-4.9335,-4.9745,-4.9893,-5.0153,-5.0711,-5.0989,-5.1099,-5.108,-5.1077,-5.1059,-5.0912,-5.1174,-5.1229,-5.1342,-5.1992,-5.2382,-5.2587,-5.2977,-5.3181,-5.3088,-5.3348,-5.346,-5.3458,-5.3313,-5.3133,-5.2721,-5.2304,-5.2227,-5.2286,-5.2236,-5.2249,-5.2334,-5.2462,-5.2367,-5.214,-5.2334,-5.2429,-5.2484,-5.2682,-5.2937,-5.2915,-5.285,-5.2806,-5.2765,-5.2579,-5.248,-5.2403,-5.2227,-5.1801,-5.1901,-5.196,-5.2251,-5.275,-5.2812,-5.3021,-5.3216,-5.3214,-5.3279,-5.3017,-5.2676,-5.2491,-5.2543,-5.2171,-5.1723,-5.1315,-5.0994,-5.067,-5.0384,-5.0222,-5.0057,-4.9898,-4.9588,-4.9383,-4.9055,-4.865,-4.7647,-4.6813,-4.6786,-4.651,-4.5897,-4.5604,-4.5518,-4.5483,-4.5432,-4.5414,-4.5414,-4.5414,-4.5414,-4.5414,-4.5414,-4.5414,-4.5414,-4.5414,-4.5414,-4.5518,-4.5656,-4.6138,-4.7284,-4.7207,-4.5596,-4.5862,-4.7378,-4.8357,-4.9614,-5.1192,-5.2096,-5.221,-5.1779,-5.1362,-5.094,-5.0523,-5.0158,-4.9712,-4.9474,-4.9652,-4.9797,-5.0153,-5.058,-5.0933,-5.1528,-5.1806,-5.1992,-5.2141,-5.2364,-5.2104,-5.1528,-5.1844,-5.1974,-5.2215,-5.2828,-5.3218,-5.3274,-5.3534,-5.3794,-5.3813,-5.3813,-5.3813,-5.3793,-5.3462,-5.3196,-5.3088,-5.2893,-5.2806,-5.2806,-5.2806,-5.2875,-5.2987,-5.3048,-5.3133,-5.3238,-5.3279,-5.3217,-5.3112,-5.3196,-5.33,-5.33,-5.33,-5.332,-5.33,-5.3154,-5.3066,-5.3002,-5.286,-5.285,-5.2806,-5.2806,-5.2937,-5.3182,-5.3193,-5.3151,-5.3235,-5.3172,-5.2962,-5.2787,-5.2608,-5.2743,-5.294,-5.2427,-5.202,-5.2035,-5.1754,-5.1619,-5.1531,-5.1402,-5.1228,-5.1079,-5.0627,-5.014,-4.9788,-4.9326,-4.8598,-4.7676,-4.7407,-4.6889,-4.619,-4.5811,-4.5725,-4.55,-4.5432,-4.5414,-4.5414,-4.5414,-4.5414,-4.5414,-4.5414,-4.5414,-4.5414,-4.5414,-4.5449,-4.5604,-4.588,-4.6431,-4.717,-4.7018,-4.552,-4.5862,-4.7504,-4.9002,-5.022,-5.1338,-5.2513,-5.2362,-5.1319,-5.0978,-5.0523,-5.005,-4.9881,-4.9778,-4.9696,-5.0185,-5.0441,-5.0967,-5.1378,-5.1713,-5.2122,-5.2419,-5.2847,-5.294,-5.3274,-5.3144,-5.2419,-5.2587,-5.281,-5.2977,-5.3534,-5.3813,-5.3775,-5.3757,-5.3813,-5.3813,-5.3813,-5.3813,-5.3736,-5.3561,-5.3381,-5.34,-5.3133,-5.3045,-5.3069,-5.3088,-5.3214,-5.3341,-5.3422,-5.3521,-5.3737,-5.3813,-5.3678,-5.3501,-5.3659,-5.3774,-5.3775,-5.3756,-5.3698,-5.3678,-5.3502,-5.344,-5.3361,-5.3217,-5.3066,-5.3002,-5.3027,-5.3133,-5.3381,-5.3196,-5.3109,-5.3045,-5.2959,-5.2717,-5.2472,-5.2333,-5.2338,-5.2384,-5.2273,-5.225,-5.2203,-5.1951,-5.169,-5.164,-5.1513,-5.1454,-5.1255,-5.0946,-5.0544,-5.0293,-4.9923,-4.9452,-4.8849,-4.8407,-4.7586,-4.6544,-4.6224,-4.6086,-4.5742,-4.5414,-4.5432,-4.5483,-4.5414,-4.5414,-4.5414,-4.5432,-4.5414,-4.5414,-4.5414,-4.5449,-4.5535,-4.6173,-4.6958,-4.6868,-4.6259,-4.5312,-4.5862,-4.7416,-4.8509,-4.9765,-5.1116,-5.1528,-5.1419,-5.1054,-5.0429,-5.0063,-4.9922,-4.9849,-5.0097,-5.045,-5.0778,-5.1322,-5.215,-5.249,-5.2883,-5.3461,-5.3609,-5.3534,-5.3515,-5.3701,-5.3738,-5.3348,-5.3441,-5.3608,-5.3645,-5.3645,-5.3813,-5.3813,-5.3813,-5.3813,-5.3813,-5.3813,-5.3813,-5.3793,-5.3755,-5.3717,-5.3698,-5.3659,-5.36,-5.3561,-5.3561,-5.3639,-5.3678,-5.3717,-5.3755,-5.3813,-5.3813,-5.3813,-5.3756,-5.3775,-5.3813,-5.3813,-5.3813,-5.3813,-5.3813,-5.3717,-5.3736,-5.3659,-5.3639,-5.358,-5.3678,-5.3639,-5.3601,-5.3659,-5.3639,-5.34,-5.3109,-5.2893,-5.249,-5.2162,-5.2356,-5.2356,-5.2361,-5.2408,-5.2343,-5.2273,-5.1951,-5.169,-5.169,-5.1665,-5.1564,-5.1359,-5.0972,-5.0665,-5.0331,-5.016,-4.9735,-4.9522,-4.9166,-4.8396,-4.7131,-4.6906,-4.6621,-4.6104,-4.5776,-4.5604,-4.5621,-4.5587,-4.5707,-4.588,-4.5828,-4.5552,-4.5414,-4.5414,-4.5414,-4.5414,-4.6293,-4.7355,-4.6323,-4.6076,-4.5243,-4.5862,-4.7491,-4.8799,-4.9779,-5.0542,-5.1471,-5.1338,-5.0542,-5.012,-4.9893,-4.9979,-5.0223,-5.0589,-5.099,-5.1657,-5.2329,-5.2997,-5.3342,-5.3682,-5.3888,-5.3888,-5.3813,-5.3813,-5.3813,-5.3794,-5.3813,-5.3813,-5.3813,-5.3813,-5.3813,-5.3813,-5.3813,-5.3813,-5.3813,-5.3813,-5.3813,-5.3813,-5.3813,-5.3813,-5.3813,-5.3813,-5.3813,-5.3813,-5.3813,-5.3813,-5.3813,-5.3813,-5.3813,-5.3813,-5.3813,-5.3813,-5.3813,-5.3813,-5.3813,-5.3813,-5.3813,-5.3813,-5.3813,-5.3813,-5.3813,-5.3793,-5.3813,-5.3813,-5.3813,-5.3793,-5.3813,-5.3813,-5.3737,-5.362,-5.342,-5.3151,-5.2937,-5.2694,-5.2397,-5.2397,-5.2495,-5.2518,-5.2545,-5.2545,-5.2477,-5.2221,-5.1878,-5.1615,-5.1546,-5.1418,-5.1132,-5.0739,-5.0443,-5.0149,-5.0046,-4.9913,-4.9815,-4.9614,-4.9154,-4.8252,-4.8017,-4.7603,-4.67,-4.6286,-4.6173,-4.631,-4.6586,-4.6621,-4.6535,-4.6138,-4.5742,-4.5552,-4.5414,-4.5535,-4.5742,-4.6586,-4.7562,-4.5725,-4.5683,-4.5123,-4.5862,-4.7523,-4.8983,-4.9874,-5.041,-5.1509,-5.1376,-5.0448,-5.0063,-4.9987,-5.0296,-5.0828,-5.1229,-5.1703,-5.2815,-5.3336,-5.3635,-5.3892,-5.4088,-5.411,-5.3963,-5.3832,-5.3813,-5.3813,-5.3813,-5.3813,-5.3813,-5.3813,-5.3813,-5.3813,-5.3813,-5.3813,-5.3813,-5.3813,-5.3813,-5.3813,-5.3813,-5.3813,-5.3813,-5.3813,-5.3813,-5.3813,-5.3813,-5.3813,-5.3813,-5.3813,-5.3813,-5.3813,-5.3813,-5.3813,-5.3813,-5.3813,-5.3813,-5.3813,-5.3813,-5.3813,-5.3813,-5.3813,-5.3813,-5.3813,-5.3813,-5.3813,-5.3813,-5.3813,-5.3813,-5.3813,-5.3813,-5.3756,-5.3562,-5.3422,-5.3277,-5.3088,-5.2937,-5.2828,-5.2761,-5.2765,-5.2857,-5.29,-5.2919,-5.2809,-5.2527,-5.2132,-5.1654,-5.1444,-5.1271,-5.0928,-5.0547,-5.0331,-5.008,-5.0005,-4.9971,-4.9924,-4.9804,-4.943,-4.9189,-4.8965,-4.8241,-4.7103,-4.6906,-4.6975,-4.7217,-4.7379,-4.7327,-4.7121,-4.6517,-4.6,-4.6259,-4.6397,-4.6052,-4.6259,-4.7027,-4.7424,-4.5251,-4.4708,-4.4827,-4.5862,-4.7453,-4.8395,-4.9671,-5.0865,-5.1192,-5.1211,-5.077,-5.0334,-5.0315,-5.0927,-5.1286,-5.2006,-5.3237,-5.3426,-5.389,-5.4266,-5.4439,-5.4303,-5.4199,-5.4037,-5.3907,-5.3832,-5.3813,-5.3813,-5.3813,-5.3813,-5.3813,-5.3813,-5.3813,-5.3813,-5.3813,-5.3813,-5.3813,-5.3813,-5.3813,-5.3813,-5.3813,-5.3813,-5.3813,-5.3813,-5.3813,-5.3813,-5.3813,-5.3813,-5.3813,-5.3813,-5.3813,-5.3813,-5.3813,-5.3813,-5.3813,-5.3813,-5.3813,-5.3813,-5.3813,-5.3813,-5.3813,-5.3813,-5.3813,-5.3813,-5.3813,-5.3813,-5.3813,-5.3813,-5.3813,-5.3813,-5.3794,-5.3737,-5.358,-5.3442,-5.3318,-5.3235,-5.3109,-5.3002,-5.3045,-5.3196,-5.3258,-5.3277,-5.3172,-5.2922,-5.2255,-5.1719,-5.1149,-5.0991,-5.0757,-5.0397,-5.0263,-5.008,-5.0022,-4.9993,-4.9993,-4.9821,-4.9648,-4.9413,-4.9189,-4.8275,-4.7172,-4.7276,-4.7976,-4.7579,-4.7665,-4.77,-4.77,-4.7217,-4.6983,-4.7379,-4.7345,-4.669,-4.6337,-4.6682,-4.6837,-4.4763,-4.4605,-4.4757,-4.5843,-4.7453,-4.8325,-4.9343,-5.0391,-5.0959,-5.0865,-5.0391,-5.0101,-5.0391,-5.113,-5.1817,-5.2523,-5.3592,-5.4193,-5.4504,-5.4604,-5.4557,-5.439,-5.4252,-5.4036,-5.3851,-5.3813,-5.3813,-5.3813,-5.3813,-5.3813,-5.3813,-5.3813,-5.3813,-5.3813,-5.3813,-5.3813,-5.3813,-5.3813,-5.3813,-5.3813,-5.3813,-5.3813,-5.3813,-5.3813,-5.3813,-5.3813,-5.3813,-5.3813,-5.3813,-5.3813,-5.3813,-5.3813,-5.3813,-5.3813,-5.3813,-5.3813,-5.3813,-5.3831,-5.3868,-5.385,-5.3813,-5.3813,-5.3813,-5.3831,-5.3887,-5.3831,-5.3813,-5.3813,-5.3813,-5.3813,-5.3794,-5.3813,-5.3736,-5.3639,-5.3561,-5.3481,-5.34,-5.3297,-5.3318,-5.3462,-5.3561,-5.3619,-5.3481,-5.33,-5.2513,-5.1757,-5.1192,-5.0694,-5.0509,-5.0302,-5.0149,-5.008,-4.9993,-5.0011,-5.0011,-4.9942,-4.9873,-4.9666,-4.9413,-4.862,-4.7879,-4.8717,-4.9114,-4.8528,-4.801,-4.8172,-4.8155,-4.7924,-4.7786,-4.7689,-4.7414,-4.6983,-4.6734,-4.6475,-4.6372,-4.444,-4.4597,-4.4706,-4.5786,-4.7397,-4.806,-4.8926,-4.9912,-5.0523,-5.0505,-4.9893,-4.9931,-5.0542,-5.149,-5.2101,-5.3067,-5.3958,-5.4564,-5.4806,-5.478,-5.4606,-5.446,-5.4287,-5.4091,-5.387,-5.3832,-5.3813,-5.3813,-5.3813,-5.3813,-5.3813,-5.3813,-5.3813,-5.3813,-5.3813,-5.3813,-5.3813,-5.3813,-5.3813,-5.3813,-5.3813,-5.3813,-5.3813,-5.3813,-5.3813,-5.3813,-5.3813,-5.3813,-5.3813,-5.3813,-5.3813,-5.3813,-5.3813,-5.3813,-5.3813,-5.3813,-5.3831,-5.3887,-5.411,-5.4166,-5.4296,-5.4686,-5.4333,-5.4277,-5.4147,-5.398,-5.3813,-5.3813,-5.3813,-5.3813,-5.3813,-5.3813,-5.3813,-5.3717,-5.3717,-5.3659,-5.3678,-5.362,-5.3659,-5.3737,-5.3774,-5.3736,-5.3343,-5.3075,-5.2335,-5.1558,-5.0929,-5.0519,-5.0341,-5.0206,-5.008,-4.9993,-5.0011,-5.0011,-4.9993,-4.9959,-4.9942,-4.9907,-4.9637,-4.9327,-4.9085,-4.9769,-4.9717,-4.8827,-4.8517,-4.8741,-4.8413,-4.7844,-4.7689,-4.7672,-4.7293,-4.6845,-4.6621,-4.631,-4.5983,-4.4387,-4.4528,-4.4646,-4.5734,-4.7314,-4.7416,-4.8433,-4.9917,-5.0107,-5.0036,-4.9903,-4.9903,-5.078,-5.1959,-5.229,-5.3209,-5.4417,-5.4795,-5.489,-5.4795,-5.4587,-5.4455,-5.4304,-5.4091,-5.3888,-5.3832,-5.3813,-5.3813,-5.3813,-5.3813,-5.3813,-5.3813,-5.3813,-5.3813,-5.3813,-5.3813,-5.3813,-5.3813,-5.3813,-5.3813,-5.3813,-5.3813,-5.3813,-5.3813,-5.3813,-5.3813,-5.3813,-5.3813,-5.3813,-5.3813,-5.3813,-5.3813,-5.3813,-5.3813,-5.3813,-5.3813,-5.3813,-5.4184,-5.4852,-5.4963,-5.5391,-5.5726,-5.5243,-5.5039,-5.4834,-5.4407,-5.3961,-5.411,-5.3905,-5.3831,-5.3813,-5.3813,-5.3813,-5.3813,-5.3813,-5.3813,-5.3813,-5.3813,-5.3813,-5.3813,-5.3793,-5.3698,-5.3222,-5.2736,-5.2054,-5.1337,-5.0677,-5.0341,-5.0189,-5.0092,-4.9993,-5.0011,-5.0011,-5.0011,-5.0011,-5.0011,-4.9993,-5.0011,-4.9878,-4.9585,-4.9482,-4.9752,-4.951,-4.8965,-4.8758,-4.8741,-4.8206,-4.762,-4.7551,-4.7448,-4.7,-4.6603,-4.6397,-4.6155,-4.5811,-4.4314,-4.444,-4.4578,-4.562,-4.7103,-4.7345,-4.8647,-5.051,-5.0596,-5.027,-4.984,-4.9736,-5.0568,-5.1684,-5.2345,-5.3127,-5.4484,-5.4795,-5.4795,-5.468,-5.4486,-5.4337,-5.4163,-5.4019,-5.3869,-5.3813,-5.3813,-5.3813,-5.3813,-5.3813,-5.3813,-5.3813,-5.3813,-5.3813,-5.3813,-5.3813,-5.3813,-5.3813,-5.3813,-5.3813,-5.3813,-5.3813,-5.3813,-5.3813,-5.3813,-5.3813,-5.3813,-5.3813,-5.3813,-5.3813,-5.3813,-5.3813,-5.3813,-5.3813,-5.3813,-5.3813,-5.3868,-5.4481,-5.5577,-5.6227,-5.6469,-5.6395,-5.6116,-5.5874,-5.58,-5.5076,-5.4741,-5.4444,-5.4128,-5.398,-5.3813,-5.3813,-5.3813,-5.3813,-5.3813,-5.3813,-5.3813,-5.3813,-5.3813,-5.3813,-5.3793,-5.3542,-5.3159,-5.2626,-5.1958,-5.1329,-5.0721,-5.0302,-5.0092,-5.0051,-5.0011,-5.0011,-5.0011,-5.0011,-5.0011,-5.0011,-5.0011,-5.0011,-5.0011,-4.9878,-4.9873,-4.9855,-4.9769,-4.9465,-4.9051,-4.862,-4.8034,-4.7534,-4.7379,-4.7155,-4.6845,-4.681,-4.6862,-4.6328,-4.5587,-4.4274,-4.4387,-4.4482,-4.5496,-4.6963,-4.7257,-4.8596,-5.0373,-5.0685,-5.0338,-4.9717,-4.9578,-5.0435,-5.1566,-5.214,-5.2994,-5.4423,-5.4606,-5.4622,-5.4522,-5.4371,-5.4233,-5.4073,-5.3907,-5.3832,-5.3813,-5.3813,-5.3813,-5.3813,-5.3813,-5.3813,-5.3813,-5.3813,-5.3813,-5.3813,-5.3813,-5.3813,-5.3813,-5.3813,-5.3813,-5.3813,-5.3813,-5.3813,-5.3813,-5.3813,-5.3813,-5.3813,-5.3813,-5.3813,-5.3813,-5.3813,-5.3813,-5.3813,-5.3813,-5.3813,-5.3831,-5.4556,-5.5299,-5.6506,-5.7435,-5.7546,-5.7342,-5.6933,-5.6729,-5.658,-5.5949,-5.5336,-5.4927,-5.4481,-5.411,-5.3868,-5.3868,-5.3813,-5.3813,-5.3813,-5.3813,-5.3813,-5.3813,-5.3813,-5.3813,-5.3737,-5.3444,-5.3078,-5.2536,-5.1928,-5.1347,-5.0766,-5.0415,-5.0051,-4.9993,-4.9993,-5.0011,-5.0011,-5.0011,-5.0011,-5.0011,-5.0011,-5.0011,-5.0011,-5.0011,-4.9993,-4.9942,-4.9976,-4.9878,-4.9258,-4.8603,-4.7913,-4.75,-4.7517,-4.731,-4.6948,-4.7034,-4.7276,-4.6517,-4.55,-4.4244,-4.43,-4.4391,-4.5438,-4.6861,-4.7339,-4.828,-4.949,-5.0263,-5.0134,-4.9418,-4.9459,-5.0403,-5.1638,-5.1933,-5.289,-5.4127,-5.4388,-5.439,-5.4356,-5.4216,-5.4127,-5.4018,-5.3907,-5.3832,-5.3813,-5.3813,-5.3813,-5.3813,-5.3813,-5.3813,-5.3813,-5.3813,-5.3813,-5.3813,-5.3813,-5.3813,-5.3813,-5.3813,-5.3813,-5.3813,-5.3813,-5.3813,-5.3813,-5.3813,-5.3813,-5.3813,-5.3813,-5.3813,-5.3813,-5.3813,-5.3813,-5.3813,-5.3813,-5.3813,-5.4277,-5.541,-5.6506,-5.7268,-5.8048,-5.8438,-5.8178,-5.7862,-5.7639,-5.7323,-5.6803,-5.6097,-5.5466,-5.4946,-5.4407,-5.3998,-5.3905,-5.3813,-5.3813,-5.3813,-5.3813,-5.3813,-5.3813,-5.3813,-5.3793,-5.3755,-5.3502,-5.3075,-5.2531,-5.2114,-5.175,-5.121,-5.0712,-5.0359,-5.0022,-4.9993,-5.0011,-5.0011,-5.0011,-5.0011,-5.0011,-5.0011,-5.0011,-5.0011,-5.0011,-5.0011,-5.0011,-5.0011,-4.9775,-4.9223,-4.8723,-4.8482,-4.8137,-4.7844,-4.7569,-4.7327,-4.6914,-4.7052,-4.6242,-4.5414,-4.4116,-4.4285,-4.4916,-4.5776,-4.6887,-4.8513,-4.934,-4.9515,-5.0129,-5.0008,-4.9297,-4.9814,-5.0602,-5.154,-5.2278,-5.3209,-5.3842,-5.4216,-5.4234,-5.4163,-5.4109,-5.4,-5.3907,-5.3851,-5.3813,-5.3813,-5.3813,-5.3813,-5.3813,-5.3813,-5.3813,-5.3813,-5.3813,-5.3813,-5.3813,-5.3813,-5.3813,-5.3813,-5.3813,-5.3813,-5.3813,-5.3813,-5.3813,-5.3813,-5.3813,-5.3813,-5.3813,-5.3813,-5.3813,-5.3813,-5.3813,-5.3813,-5.3813,-5.3831,-5.3943,-5.4797,-5.6097,-5.7305,-5.7602,-5.8231,-5.8677,-5.8677,-5.8419,-5.8419,-5.8141,-5.7583,-5.6785,-5.6153,-5.5429,-5.4834,-5.4221,-5.3961,-5.385,-5.3813,-5.3813,-5.3813,-5.3813,-5.3813,-5.3813,-5.3793,-5.3755,-5.3561,-5.3115,-5.2747,-5.2361,-5.2084,-5.1719,-5.1184,-5.0684,-5.0359,-5.0022,-4.9993,-5.0011,-5.0011,-5.0011,-5.0011,-5.0011,-5.0011,-5.0011,-5.0011,-5.0011,-5.0011,-5.0011,-4.9757,-4.9378,-4.9378,-4.9476,-4.9062,-4.8499,-4.8189,-4.7913,-4.7293,-4.6638,-4.5897,-4.55,-4.4036,-4.4175,-4.4683,-4.5544,-4.6818,-4.874,-4.9455,-4.9363,-4.9969,-4.9825,-4.9228,-4.9887,-5.069,-5.1471,-5.2343,-5.3162,-5.3926,-5.4,-5.4018,-5.3981,-5.3981,-5.3907,-5.3813,-5.3813,-5.3813,-5.3813,-5.3813,-5.3813,-5.3813,-5.3813,-5.3813,-5.3813,-5.3813,-5.3813,-5.3813,-5.3813,-5.3813,-5.3813,-5.3813,-5.3813,-5.3813,-5.3813,-5.3813,-5.3813,-5.3813,-5.3813,-5.3813,-5.3813,-5.3813,-5.3813,-5.3813,-5.3813,-5.3924,-5.4073,-5.4686,-5.5559,-5.6617,-5.7565,-5.8029,-5.8401,-5.8642,-5.8677,-5.8677,-5.8661,-5.8549,-5.8159,-5.7509,-5.6896,-5.6042,-5.5261,-5.4593,-5.4035,-5.3924,-5.3813,-5.3813,-5.3813,-5.3813,-5.3813,-5.3793,-5.3774,-5.3697,-5.3559,-5.3277,-5.2915,-5.2694,-5.2563,-5.2268,-5.1701,-5.1184,-5.0739,-5.0302,-5.0022,-4.9993,-5.0011,-5.0011,-5.0011,-5.0011,-5.0011,-5.0011,-5.0011,-5.0011,-5.0011,-5.0011,-4.9873,-4.9648,-4.9717,-4.9804,-4.9597,-4.9154,-4.8723,-4.8034,-4.7241,-4.6483,-4.5776,-4.5569,-4.4005,-4.4023,-4.4153,-4.534,-4.6791,-4.837,-4.8927,-4.8983,-4.9669,-4.9577,-4.915,-4.9912,-5.0784,-5.1528,-5.2456,-5.32,-5.3721,-5.3851,-5.387,-5.3813,-5.3832,-5.3813,-5.3813,-5.3813,-5.3813,-5.3813,-5.3813,-5.3813,-5.3813,-5.3813,-5.3813,-5.3813,-5.3813,-5.3813,-5.3813,-5.3813,-5.3813,-5.3813,-5.3813,-5.3813,-5.3813,-5.3813,-5.3813,-5.3813,-5.3813,-5.3813,-5.3813,-5.3813,-5.3813,-5.3813,-5.3813,-5.3813,-5.4017,-5.45,-5.5317,-5.593,-5.671,-5.749,-5.7992,-5.8326,-5.8549,-5.8642,-5.8677,-5.8677,-5.8605,-5.8568,-5.8029,-5.7063,-5.6134,-5.528,-5.4574,-5.4073,-5.385,-5.3813,-5.3813,-5.3813,-5.3813,-5.3813,-5.3813,-5.3755,-5.3658,-5.3521,-5.3439,-5.3088,-5.2934,-5.2974,-5.2783,-5.225,-5.1601,-5.1096,-5.0564,-5.0092,-5.0022,-5.0011,-5.0011,-5.0011,-5.0011,-5.0011,-5.0011,-5.0011,-5.0011,-5.0011,-5.0011,-4.989,-4.9804,-4.989,-4.9907,-4.9752,-4.9327,-4.8517,-4.781,-4.7052,-4.6345,-4.5725,-4.5518,-4.4005,-4.4135,-4.5379,-4.6828,-4.8259,-4.8723,-4.889,-4.8909,-4.9076,-4.9113,-4.9187,-5.0358,-5.1175,-5.1528,-5.2847,-5.3627,-5.372,-5.3813,-5.3813,-5.3813,-5.3813,-5.3813,-5.3813,-5.3813,-5.3813,-5.3813,-5.3813,-5.3813,-5.3813,-5.3813,-5.3813,-5.3813,-5.3813,-5.3813,-5.3813,-5.3813,-5.3813,-5.3813,-5.3813,-5.3813,-5.3813,-5.3813,-5.3813,-5.3813,-5.3813,-5.3813,-5.3813,-5.3813,-5.3813,-5.3813,-5.3813,-5.3813,-5.3831,-5.4593,-5.5057,-5.5447,-5.6227,-5.7045,-5.7528,-5.7843,-5.8029,-5.8494,-5.8621,-5.8658,-5.8698,-5.8677,-5.8196,-5.7138,-5.6209,-5.5373,-5.463,-5.4184,-5.3813,-5.3813,-5.3813,-5.3813,-5.3813,-5.3813,-5.3813,-5.3698,-5.36,-5.3521,-5.3479,-5.3357,-5.3248,-5.3164,-5.3124,-5.2721,-5.1922,-5.1288,-5.0684,-5.0263,-5.0051,-5.0011,-5.0011,-5.0011,-5.0011,-5.0011,-5.0011,-5.0011,-5.0011,-5.0011,-5.0011,-5.0011,-4.9976,-5.0011,-5.0011,-4.9976,-4.9413,-4.8568,-4.7982,-4.7396,-4.6648,-4.5949,-4.569,-4.4005,-4.4209,-4.5788,-4.7218,-4.8296,-4.8742,-4.889,-4.889,-4.889,-4.889,-4.915,-5.0543,-5.1398,-5.1639,-5.3088,-5.3813,-5.3813,-5.3813,-5.3813,-5.3813,-5.3813,-5.3813,-5.3813,-5.3813,-5.3813,-5.3813,-5.3813,-5.3813,-5.3813,-5.3813,-5.3813,-5.3813,-5.3813,-5.3813,-5.3813,-5.3813,-5.3813,-5.3813,-5.3813,-5.3813,-5.3813,-5.3813,-5.3813,-5.3813,-5.3813,-5.3813,-5.3813,-5.3813,-5.3813,-5.3813,-5.3813,-5.3813,-5.398,-5.4574,-5.4926,-5.528,-5.5837,-5.6506,-5.6822,-5.7063,-5.7379,-5.7936,-5.8196,-5.8085,-5.8549,-5.8494,-5.8029,-5.7045,-5.6506,-5.5707,-5.4853,-5.4277,-5.3943,-5.3813,-5.3813,-5.3813,-5.3813,-5.3813,-5.3813,-5.3774,-5.3678,-5.3598,-5.3518,-5.3378,-5.3251,-5.3082,-5.3103,-5.2654,-5.1946,-5.1373,-5.0803,-5.0359,-5.0109,-5.0011,-5.0011,-5.0011,-5.0011,-5.0011,-5.0011,-5.0011,-5.0011,-5.0011,-5.0011,-5.0011,-5.0011,-5.0011,-5.0011,-5.0011,-4.9585,-4.881,-4.8327,-4.7879,-4.7062,-4.6234,-4.5845,-4.4079,-4.4376,-4.5862,-4.6958,-4.7757,-4.8574,-4.889,-4.889,-4.889,-4.889,-4.9132,-5.0655,-5.1305,-5.1936,-5.3014,-5.3497,-5.3813,-5.3813,-5.3813,-5.3813,-5.3813,-5.3813,-5.3813,-5.3813,-5.3813,-5.3813,-5.3813,-5.3813,-5.3813,-5.3813,-5.3813,-5.3813,-5.3813,-5.3813,-5.3813,-5.3813,-5.3813,-5.3813,-5.3813,-5.3813,-5.3813,-5.3813,-5.3813,-5.3813,-5.3813,-5.3813,-5.3813,-5.3813,-5.3813,-5.3813,-5.3813,-5.3813,-5.3924,-5.4351,-5.4556,-5.4871,-5.5187,-5.5726,-5.606,-5.6134,-5.6729,-5.7268,-5.7398,-5.7751,-5.8252,-5.8103,-5.7639,-5.7045,-5.6487,-5.5744,-5.4871,-5.4333,-5.3998,-5.3813,-5.3813,-5.3813,-5.3813,-5.3813,-5.3813,-5.3793,-5.3716,-5.3636,-5.3518,-5.3398,-5.3254,-5.3085,-5.2698,-5.2179,-5.1676,-5.121,-5.0712,-5.0331,-5.0051,-5.0011,-5.0011,-5.0011,-5.0011,-5.0011,-5.0011,-5.0011,-5.0011,-5.0011,-5.0011,-5.0011,-5.0011,-5.0011,-5.0011,-5.0011,-4.9482,-4.9068,-4.8344,-4.781,-4.7303,-4.6527,-4.5966,-4.4432,-4.5119,-4.6104,-4.6958,-4.7757,-4.8574,-4.889,-4.889,-4.889,-4.889,-4.9317,-5.0525,-5.1398,-5.1491,-5.3088,-5.3775,-5.3813,-5.3813,-5.3813,-5.3813,-5.3813,-5.3813,-5.3813,-5.3813,-5.3813,-5.3813,-5.3813,-5.3813,-5.3813,-5.3813,-5.3813,-5.3813,-5.3813,-5.3813,-5.3813,-5.3813,-5.3813,-5.3813,-5.3813,-5.3813,-5.3813,-5.3813,-5.3813,-5.3813,-5.3813,-5.3813,-5.3813,-5.3813,-5.3813,-5.3813,-5.3813,-5.3813,-5.3887,-5.4035,-5.4147,-5.4258,-5.4574,-5.4834,-5.5094,-5.5243,-5.5819,-5.7138,-5.7398,-5.7751,-5.7992,-5.7862,-5.7286,-5.6525,-5.5874,-5.5001,-5.4258,-5.4073,-5.3813,-5.3813,-5.3813,-5.3813,-5.3813,-5.3813,-5.3813,-5.3755,-5.3658,-5.3579,-5.3538,-5.3378,-5.3269,-5.3017,-5.2631,-5.2108,-5.1669,-5.1131,-5.0592,-5.0302,-4.9993,-5.0011,-5.0011,-5.0011,-5.0011,-5.0011,-5.0011,-5.0011,-5.0011,-5.0011,-5.0011,-5.0011,-5.0011,-5.0011,-5.0011,-4.9907,-4.9873,-4.9407,-4.8344,-4.7638,-4.7234,-4.6717,-4.6086]},{"header":{"parameterUnit":"m.s-1","parameterCategory":1,"la1":31.0,"la2":29.5877,"lo1":-88.7671,"lo2":-86.6584,"dy":0.0162,"dx":0.0185,"nx":115,"ny":88,"refTime":"2025-11-06T00:00:00:Z","depth":0,"parameterNumber":3,"parameterNumberName":"V-component_of_WINDS"},"data":[0.0,0.0,0.0,0.0,0.0,0.0,0.0,0.0,0.0,0.0,0.0,0.0,0.0,0.0,0.0,0.0,0.0,0.0,0.0,0.0,0.0,0.0,0.0,0.0,0.0,0.0,0.0,0.0,0.0,0.0,0.0,0.0,0.0,0.0,0.0,0.0,0.0,0.0,0.0,0.0,0.0,0.0,0.0,0.0,0.0,0.0,0.0,0.0,0.0,0.0,0.0,0.0,0.0,0.0,0.0,0.0,0.0,0.0,0.0,0.0,0.0,0.0,0.0,0.0,0.0,0.0,0.0,0.0,0.0,0.0,0.0,0.0,0.0,0.0,0.0,0.0,0.0,0.0,0.0,0.0,0.0,0.0,0.0,0.0,0.0,0.0,0.0,0.0,0.0,0.0,0.0,0.0,0.0,0.0,0.0,0.0,0.0,0.0,0.0,0.0,0.0,0.0,0.0,0.0,0.0,0.0,0.0,0.0,0.0,0.0,0.0,0.0,0.0,0.0,0.0,0.0,0.0,0.0,0.0,0.0,0.0,0.0,0.0,0.0,0.0,0.0,0.0,0.0,0.0,0.0,0.0,0.0,0.0,0.0,0.0,0.0,0.0,0.0,0.0,0.0,0.0,0.0,0.0,0.0,0.0,0.0,0.0,0.0,0.0,0.0,0.0,0.0,0.0,0.0,0.0,0.0,0.0,0.0,0.0,0.0,0.0,0.0,0.0,0.0,0.0,0.0,0.0,0.0,0.0,0.0,0.0,0.0,0.0,0.0,0.0,0.0,0.0,0.0,0.0,0.0,0.0,0.0,0.0,0.0,0.0,0.0,0.0,0.0,0.0,0.0,0.0,0.0,0.0,0.0,0.0,0.0,0.0,0.0,0.0,0.0,0.0,0.0,0.0,0.0,0.0,0.0,0.0,0.0,0.0,0.0,0.0,0.0,0.0,0.0,0.0,0.0,0.0,0.0,0.0,0.0,0.0,0.0,0.0,0.0,0.0,0.0,0.0,0.0,0.0,0.0,0.0,0.0,0.0,0.0,0.0,0.0,0.0,0.0,0.0,0.0,0.0,0.0,0.0,0.0,0.0,0.0,0.0,0.0,0.0,0.0,0.0,0.0,0.0,0.0,0.0,0.0,0.0,0.0,0.0,0.0,0.0,0.0,0.0,0.0,0.0,0.0,0.0,0.0,0.0,0.0,0.0,0.0,0.0,0.0,0.0,0.0,0.0,0.0,0.0,0.0,0.0,0.0,0.0,0.0,0.0,0.0,0.0,0.0,0.0,0.0,0.0,0.0,0.0,0.0,0.0,0.0,0.0,0.0,0.0,0.0,0.0,0.0,0.0,0.0,0.0,0.0,0.0,0.0,0.0,0.0,0.0,0.0,0.0,0.0,0.0,0.0,0.0,0.0,0.0,0.0,0.0,0.0,0.0,0.0,0.0,0.0,0.0,0.0,0.0,0.0,0.0,0.0,0.0,0.0,0.0,0.0,0.0,0.0,0.0,0.0,0.0,0.0,0.0,0.0,0.0,0.0,0.0,0.0,0.0,0.0,0.0,0.0,0.0,0.0,0.0,0.0,0.0,0.0,0.0,0.0,0.0,0.0,0.0,0.0,0.0,0.0,0.0,0.0,0.0,0.0,0.0,0.0,0.0,0.0,0.0,0.0,0.0,0.0,0.0,0.0,0.0,0.0,0.0,0.0,0.0,0.0,0.0,0.0,0.0,0.0,0.0,0.0,0.0,0.0,0.0,0.0,0.0,0.0,0.0,0.0,0.0,0.0,0.0,0.0,0.0,0.0,0.0,0.0,0.0,0.0,0.0,0.0,0.0,0.0,0.0,0.0,0.0,0.0,0.0,0.0,0.0,0.0,0.0,0.0,0.0,0.0,0.0,0.0,0.0,0.0,0.0,0.0,0.0,0.0,0.0,0.0,0.0,0.0,0.0,0.0,0.0,0.0,0.0,0.0,0.0,0.0,0.0,0.0,0.0,0.0,0.0,0.0,0.0,0.0,0.0,0.0,0.0,0.0,0.0,0.0,0.0,0.0,0.0,0.0,0.0,0.0,0.0,0.0,0.0,0.0,0.0,0.0,0.0,0.0,0.0,0.0,0.0,0.0,0.0,0.0,0.0,0.0,0.0,0.0,0.0,0.0,0.0,0.0,0.0,0.0,0.0,0.0,0.0,0.0,0.0,0.0,0.0,0.0,0.0,0.0,0.0,0.0,0.0,0.0,0.0,0.0,0.0,0.0,0.0,0.0,0.0,0.0,0.0,0.0,0.0,0.0,0.0,0.0,0.0,0.0,0.0,0.0,0.0,0.0,0.0,0.0,0.0,0.0,0.0,0.0,0.0,0.0,0.0,0.0,0.0,0.0,0.0,0.0,0.0,0.0,0.0,0.0,0.0,0.0,0.0,0.0,0.0,0.0,0.0,0.0,0.0,0.0,0.0,0.0,0.0,0.0,0.0,0.0,0.0,0.0,0.0,0.0,0.0,0.0,0.0,0.0,0.0,0.0,0.0,0.0,0.0,0.0,0.0,0.0,0.0,0.0,0.0,0.0,0.0,0.0,0.0,0.0,0.0,0.0,0.0,0.0,0.0,0.0,0.0,0.0,0.0,0.0,0.0,0.0,0.0,0.0,0.0,0.0,0.0,0.0,0.0,0.0,0.0,0.0,0.0,0.0,0.0,0.0,0.0,0.0,0.0,0.0,0.0,0.0,0.0,0.0,0.0,0.0,0.0,0.0,0.0,0.0,0.0,0.0,0.0,0.0,0.0,0.0,0.0,0.0,0.0,0.0,0.0,0.0,0.0,0.0,0.0,0.0,0.0,0.0,0.0,0.0,0.0,0.0,0.0,0.0,0.0,0.0,0.0,0.0,0.0,0.0,0.0,0.0,0.0,0.0,0.0,0.0,0.0,0.0,0.0,0.0,0.0,0.0,0.0,0.0,0.0,0.0,0.0,0.0,0.0,0.0,0.0,0.0,0.0,0.0,0.0,0.0,0.0,0.0,0.0,0.0,0.0,0.0,0.0,0.0,0.0,0.0,0.0,0.0,0.0,0.0,0.0,0.0,0.0,0.0,0.0,0.0,0.0,0.0,0.0,0.0,0.0,0.0,0.0,0.0,0.0,0.0,0.0,0.0,0.0,0.0,0.0,0.0,0.0,0.0,0.0,0.0,0.0,0.0,0.0,0.0,0.0,0.0,0.0,0.0,0.0,0.0,0.0,0.0,0.0,0.0,0.0,0.0,0.0,0.0,0.0,0.0,0.0,0.0,0.0,0.0,0.0,0.0,0.0,0.0,0.0,0.0,0.0,0.0,0.0,0.0,0.0,0.0,0.0,0.0,0.0,0.0,0.0,0.0,0.0,0.0,0.0,0.0,0.0,0.0,0.0,0.0,0.0,0.0,0.0,0.0,0.0,0.0,0.0,0.0,0.0,0.0,0.0,0.0,0.0,0.0,0.0,0.0,0.0,0.0,0.0,0.0,0.0,0.0,0.0,0.0,0.0,0.0,0.0,0.0,0.0,0.0,0.0,0.0,0.0,0.0,0.0,0.0,0.0,0.0,0.0,0.0,0.0,0.0,0.0,0.0,0.0,0.0,0.0,0.0,0.0,0.0,0.0,0.0,0.0,0.0,0.0,0.0,0.0,0.0,0.0,0.0,0.0,0.0,0.0,0.0,0.0,0.0,0.0,0.0,0.0,0.0,0.0,0.0,0.0,0.0,0.0,0.0,0.0,0.0,0.0,0.0,0.0,0.0,0.0,0.0,0.0,0.0,0.0,0.0,0.0,0.0,0.0,0.0,0.0,0.0,0.0,0.0,0.0,0.0,0.0,0.0,0.0,0.0,0.0,0.0,0.0,0.0,0.0,0.0,0.0,0.0,0.0,0.0,0.0,0.0,0.0,0.0,0.0,0.0,0.0,0.0,0.0,0.0,0.0,0.0,0.0,0.0,0.0,0.0,0.0,0.0,0.0,0.0,0.0,0.0,0.0,0.0,0.0,0.0,0.0,0.0,0.0,0.0,0.0,0.0,0.0,0.0,0.0,0.0,0.0,0.0,0.0,0.0,0.0,0.0,0.0,0.0,0.0,0.0,0.0,0.0,0.0,0.0,0.0,0.0,0.0,0.0,0.0,0.0,0.0,0.0,0.0,0.0,0.0,0.0,0.0,0.0,0.0,0.0,0.0,0.0,0.0,0.0,0.0,0.0,0.0,0.0,0.0,0.0,0.0,0.0,0.0,0.0,0.0,0.0,0.0,0.0,0.0,0.0,1.2696,0.0,0.0,0.0,0.0,0.0,0.0,0.0,0.0,0.0,0.0,0.0,0.0,0.0,0.0,0.0,0.0,0.0,0.0,0.0,0.0,0.0,0.0,0.0,0.0,0.0,0.0,0.0,0.0,0.0,0.0,0.0,0.0,0.0,0.0,0.0,0.0,0.0,0.0,0.0,0.0,0.0,0.0,0.0,0.0,0.0,0.0,0.0,0.0,0.0,0.0,0.0,0.0,0.0,0.0,0.0,0.0,0.0,0.0,0.0,0.0,0.0,0.0,0.0,0.0,0.0,0.0,0.0,0.0,0.0,0.0,0.0,0.0,0.0,0.0,0.0,0.0,0.0,0.0,0.0,0.0,0.0,0.0,0.0,0.0,0.0,0.0,0.0,0.0,0.0,0.0,0.0,0.0,0.0,0.0,0.0,0.0,0.0,0.0,0.0,0.0,0.0,0.0,0.0,0.0,0.0,0.0,0.0,0.0,0.0,0.0,1.1366,1.1898,1.2673,1.3083,1.3076,0.0,0.0,0.0,0.0,0.0,0.0,0.0,0.0,0.0,0.0,0.0,0.0,0.0,0.0,0.0,0.0,0.0,0.0,0.0,0.0,0.0,0.0,0.0,0.0,0.0,0.0,0.0,0.0,0.0,0.0,0.0,0.0,0.0,0.0,0.0,0.0,0.0,0.0,0.0,0.0,0.0,0.0,0.0,0.0,0.0,0.0,0.0,0.0,0.0,0.0,0.0,0.0,0.0,0.0,0.0,0.0,0.0,0.0,0.0,0.0,0.0,0.0,0.0,0.0,0.0,0.0,0.0,0.0,0.0,0.0,0.0,0.0,0.0,0.0,0.0,0.0,0.0,0.0,0.0,0.0,0.0,0.0,0.0,0.0,0.0,0.0,0.0,0.0,0.0,0.0,0.0,0.0,0.0,0.0,0.0,0.0,0.0,0.0,0.0,0.0,0.0,0.0,0.0,0.0,0.0,0.0,0.0,0.0,0.0,0.0,0.0,0.0,1.3307,1.3536,1.3382,0.0,0.0,0.0,0.0,0.0,0.0,0.0,0.0,0.0,0.0,0.0,0.0,0.0,0.0,0.0,0.0,0.0,0.0,0.0,0.0,0.0,0.0,0.0,0.0,0.0,0.0,0.0,0.0,0.0,0.0,0.0,0.0,0.0,0.0,0.0,0.0,0.0,0.0,0.0,0.0,0.0,0.0,0.0,0.0,0.0,0.0,0.0,0.0,0.0,0.0,0.0,0.0,0.0,0.0,0.0,0.0,0.0,0.0,0.0,0.0,0.0,0.0,0.0,0.0,0.0,0.0,0.0,0.0,0.0,0.0,0.0,0.0,0.0,0.0,0.0,0.0,0.0,0.0,0.0,0.0,0.0,0.0,0.0,0.0,0.0,0.0,0.0,0.0,0.0,0.0,0.0,0.0,0.0,0.0,0.0,0.0,0.0,0.0,0.0,0.0,0.0,0.0,0.0,0.0,0.0,0.0,0.0,0.0,0.0,0.0,1.3144,1.3818,1.39,0.0,1.3119,0.0,0.0,0.0,0.0,0.0,0.0,0.0,0.0,0.0,0.0,0.0,0.0,0.0,0.0,0.0,0.0,0.0,0.0,0.0,0.0,0.0,0.0,0.0,0.0,0.0,0.0,0.0,0.0,0.0,0.0,0.0,0.0,0.0,0.0,0.0,0.0,0.0,0.0,0.0,0.0,0.0,0.0,0.0,0.0,0.0,0.0,0.0,0.0,0.0,0.0,0.0,0.0,0.0,0.0,0.0,0.0,0.0,0.0,0.0,0.0,0.0,0.0,0.0,0.0,0.0,0.0,0.0,0.0,0.0,0.0,0.0,0.0,0.0,0.0,0.0,0.0,0.0,0.0,0.0,0.0,0.0,0.0,0.0,0.0,0.0,0.0,0.0,0.0,0.0,0.0,0.0,0.0,0.0,0.0,0.0,0.0,0.0,0.0,0.0,0.0,0.0,0.0,0.0,0.0,0.0,0.0,0.0,0.0,0.0,0.0,1.3461,1.3982,1.4027,1.3675,0.0,0.0,0.0,0.0,0.0,0.0,0.0,0.0,0.0,0.0,0.0,0.0,0.0,0.0,0.0,0.0,0.0,0.0,0.0,0.0,0.0,0.0,0.0,0.0,0.0,0.0,0.0,0.0,0.0,0.0,0.0,0.0,0.0,0.0,0.0,0.0,0.0,0.0,0.0,0.0,0.0,0.0,0.0,0.0,0.0,0.0,0.0,0.0,0.0,0.0,0.0,0.0,0.0,0.0,0.0,0.0,0.0,0.0,0.0,0.0,0.0,0.0,0.0,0.0,0.0,0.0,0.0,0.0,0.0,0.0,0.0,0.0,0.0,0.0,0.0,0.0,0.0,0.0,0.0,0.0,0.0,0.0,0.0,0.0,0.0,0.0,0.0,0.0,0.0,0.0,0.0,0.0,0.0,0.0,0.0,0.0,0.0,0.0,0.0,0.0,0.0,0.0,0.0,0.0,0.0,0.0,0.0,0.0,0.0,0.0,1.3787,0.0,1.4106,1.4159,1.377,1.3038,0.0,0.0,0.0,0.0,0.0,0.0,0.0,0.0,0.0,0.0,0.0,0.0,0.0,0.0,0.0,0.0,0.0,0.0,0.0,0.0,0.0,0.0,0.0,0.0,0.0,0.0,0.0,0.0,0.0,0.0,0.0,0.0,0.0,0.0,0.0,0.0,0.0,0.0,0.0,0.0,0.0,0.0,0.0,0.0,0.0,0.0,0.0,0.0,0.0,0.0,0.0,0.0,0.0,0.0,0.0,0.0,0.0,0.0,0.0,0.0,0.0,0.0,0.0,0.0,0.0,0.0,0.0,0.0,0.0,0.0,0.0,0.0,0.0,0.0,0.0,0.0,0.0,0.0,0.0,0.0,0.0,0.0,0.0,0.0,0.0,0.0,0.0,0.0,0.0,0.0,0.0,0.0,0.0,0.0,0.0,0.0,0.0,0.0,0.0,0.0,0.0,0.0,0.0,0.0,0.0,0.0,0.0,0.0,0.0,1.4965,1.4494,1.4467,1.4482,1.3989,0.0,0.0,0.0,0.0,0.0,0.0,0.0,0.0,0.0,0.0,0.0,0.0,0.0,0.0,0.0,0.0,0.0,0.0,0.0,0.0,0.0,0.0,0.0,0.0,0.0,0.0,0.0,0.0,0.0,0.0,0.0,0.0,0.0,0.0,0.0,0.0,0.0,0.0,0.0,0.0,0.0,0.0,0.0,0.0,0.0,0.0,0.0,0.0,0.0,0.0,0.0,0.0,0.0,0.0,0.0,0.0,0.0,0.0,0.0,0.0,0.0,0.0,0.0,0.0,0.0,0.0,0.0,0.0,0.0,0.0,0.0,0.0,0.0,0.0,0.0,0.0,0.0,0.0,0.0,0.0,0.0,0.0,0.0,0.0,0.0,0.0,0.0,0.0,0.0,0.0,0.0,0.0,0.0,0.0,0.0,0.0,0.0,0.0,0.0,0.0,0.0,0.0,0.0,0.0,0.0,0.0,0.0,0.0,0.0,1.4899,1.4591,1.444,1.4482,1.4108,1.3579,0.0,0.0,0.0,0.0,0.0,0.0,0.0,0.0,0.0,0.0,0.0,0.0,0.0,0.0,0.0,0.0,0.0,0.0,0.0,0.0,0.0,0.0,0.0,0.0,0.0,0.0,0.0,0.0,0.0,0.0,0.0,0.0,0.0,0.0,0.0,0.0,0.0,0.0,0.0,0.0,0.0,0.0,0.0,0.0,0.0,0.0,0.0,0.0,0.0,0.0,0.0,0.0,0.0,0.0,0.0,0.0,0.0,0.0,0.0,0.0,0.0,0.0,0.0,0.0,0.0,0.0,0.0,0.0,0.0,0.0,0.0,0.0,0.0,0.0,0.0,0.0,0.0,0.0,0.0,0.0,0.0,0.0,0.0,0.0,0.0,0.0,0.0,0.0,0.0,0.0,0.0,0.0,0.0,0.0,0.0,0.0,0.0,0.0,0.0,0.0,0.0,0.0,0.0,0.0,0.0,0.0,0.0,0.0,0.0,1.4533,0.0,1.4508,0.0,1.3822,1.3294,0.0,0.0,0.0,0.0,0.0,0.0,0.0,0.0,0.0,0.0,0.0,0.0,0.0,0.0,0.0,0.0,0.0,0.0,0.0,0.0,0.0,0.0,0.0,0.0,0.0,0.0,0.0,0.0,0.0,0.0,0.0,0.0,0.0,0.0,0.0,0.0,0.0,0.0,0.0,0.0,0.0,0.0,0.0,0.0,0.0,0.0,0.0,0.0,0.0,0.0,0.0,0.0,0.0,0.0,0.0,0.0,0.0,0.0,0.0,0.0,0.0,0.0,0.0,0.0,0.0,0.0,0.0,0.0,0.0,0.0,0.0,0.0,0.0,0.0,0.0,0.0,0.0,0.0,0.0,0.0,0.0,0.0,0.0,0.0,0.0,0.0,0.0,0.0,0.0,0.0,0.0,0.0,0.0,0.0,0.0,0.0,0.0,0.0,0.0,0.0,0.0,0.0,0.0,0.0,0.0,0.0,0.0,0.0,1.5054,1.4815,1.4988,1.482,1.4298,1.3763,1.3177,0.0,0.0,0.0,0.0,0.0,0.0,0.0,0.0,0.0,0.0,0.0,0.0,0.0,0.0,0.0,0.0,0.0,0.0,0.0,0.0,0.0,0.0,0.0,0.0,0.0,0.0,0.0,0.0,0.0,0.0,0.0,0.0,0.0,0.0,0.0,0.0,0.0,0.0,0.0,0.0,0.0,0.0,0.0,0.0,0.0,0.0,0.0,0.0,0.0,0.0,0.0,0.0,0.0,0.0,0.0,0.0,0.0,0.0,0.0,0.0,0.0,0.0,0.0,0.0,0.0,0.0,0.0,0.0,0.0,0.0,0.0,0.0,0.0,0.0,0.0,0.0,0.0,0.0,0.0,0.0,0.0,0.0,0.0,0.0,0.0,0.0,0.0,0.0,0.0,0.0,0.0,0.0,0.0,0.0,0.0,0.0,0.0,0.0,0.0,0.0,0.0,0.0,0.0,0.0,0.0,0.0,0.0,0.0,0.0,1.4569,1.4695,1.4607,1.4276,1.3343,1.2833,0.0,0.0,0.0,0.0,0.0,0.0,0.0,0.0,0.0,0.0,0.0,0.0,0.0,0.0,0.0,0.0,0.0,0.0,0.0,0.0,0.0,0.0,0.0,0.0,0.0,0.0,0.0,0.0,0.0,0.0,0.0,0.0,0.0,0.0,0.0,0.0,0.0,0.0,0.0,0.0,0.0,0.0,0.0,0.0,0.0,0.0,0.0,0.0,0.0,0.0,0.0,0.0,0.0,0.0,0.0,0.0,0.0,0.0,0.0,0.0,0.0,0.0,0.0,0.0,0.0,0.0,0.0,0.0,0.0,0.0,0.0,0.0,0.0,0.0,0.0,0.0,0.0,0.0,0.0,0.0,0.0,0.0,0.0,0.0,0.0,0.0,0.0,0.0,0.0,0.0,0.0,0.0,0.0,0.0,0.0,0.0,0.0,0.0,0.0,0.0,0.0,0.0,0.0,0.0,0.0,0.0,0.0,0.0,0.0,1.4733,1.4771,1.466,1.4396,1.3408,1.2862,1.2811,0.0,0.0,0.0,0.0,0.0,0.0,0.0,0.0,0.0,0.0,0.0,0.0,0.0,0.0,0.0,0.0,0.0,0.0,0.0,0.0,0.0,0.0,0.0,0.0,0.0,0.0,0.0,0.0,0.0,0.0,0.0,0.0,0.0,0.0,0.0,0.0,0.0,0.0,0.0,0.0,0.0,0.0,0.0,0.0,0.0,0.0,0.0,0.0,0.0,0.0,0.0,0.0,0.0,0.0,0.0,0.0,0.0,0.0,0.0,0.0,0.0,0.0,0.0,0.0,0.0,0.0,0.0,0.0,0.0,0.0,0.0,0.0,0.0,0.0,0.0,0.0,0.0,0.0,0.0,0.0,0.0,0.0,0.0,0.0,0.0,0.0,0.0,0.0,0.0,0.0,0.0,0.0,0.0,0.0,0.0,0.0,0.0,0.0,0.0,0.0,0.0,0.0,0.0,0.0,0.0,0.0,0.0,0.0,1.5213,1.5165,1.4981,1.4607,1.3888,1.3199,0.0,0.0,0.0,0.0,0.0,0.0,0.0,0.0,0.0,0.0,0.0,0.0,0.0,0.0,0.0,0.0,0.0,0.0,0.0,0.0,0.0,0.0,0.0,0.0,0.0,0.0,0.0,0.0,0.0,0.0,0.0,0.0,0.0,0.0,0.0,0.0,0.0,0.0,0.0,0.0,0.0,0.0,0.0,0.0,0.0,0.0,0.0,0.0,0.0,0.0,0.0,0.0,0.0,0.0,0.0,0.0,0.0,0.0,0.0,0.0,0.0,0.0,0.0,0.0,0.0,0.0,0.0,0.0,0.0,0.0,0.0,0.0,0.0,0.0,0.0,0.0,0.0,0.0,0.0,0.0,0.0,0.0,0.0,0.0,0.0,0.0,0.0,0.0,0.0,0.0,0.0,0.0,0.0,0.0,0.0,0.0,0.0,0.0,0.0,0.0,0.0,0.0,0.0,0.0,0.0,0.0,0.0,0.0,0.0,1.5554,1.567,1.5443,1.4981,1.4185,1.3473,0.0,0.0,0.0,0.0,0.0,0.0,0.0,0.0,0.0,0.0,0.0,0.0,0.0,0.0,0.0,0.0,0.0,0.0,0.0,0.0,0.0,0.0,0.0,0.0,0.0,0.0,0.0,0.0,0.0,0.0,0.0,0.0,0.0,0.0,0.0,0.0,0.0,0.0,0.0,0.0,0.0,0.0,0.0,0.0,0.0,0.0,0.0,0.0,0.0,0.0,0.0,0.0,0.0,0.0,0.0,0.0,0.0,0.0,0.0,0.0,0.0,0.0,0.0,0.0,0.0,0.0,0.0,0.0,0.0,0.0,0.0,0.0,0.0,0.0,0.0,0.0,0.0,0.0,0.0,0.0,0.0,0.0,0.0,0.0,0.0,0.0,0.0,0.0,0.0,0.0,0.0,0.0,0.0,0.0,0.0,0.0,0.0,0.0,0.0,0.0,0.0,0.0,0.0,0.0,0.0,0.0,0.0,0.0,1.5562,1.5896,1.6134,1.599,1.5443,1.4789,1.397,0.0,0.0,0.0,0.0,0.0,0.0,0.0,0.0,0.0,0.0,0.0,0.0,0.0,0.0,0.0,0.0,0.0,0.0,0.0,0.0,0.0,0.0,0.0,0.0,0.0,0.0,0.0,0.0,0.0,0.0,0.0,0.0,0.0,0.0,0.0,0.0,0.0,0.0,0.0,0.0,0.0,0.0,0.0,0.0,0.0,0.0,0.0,0.0,0.0,0.0,0.0,0.0,0.0,0.0,0.0,0.0,0.0,0.0,0.0,0.0,0.0,0.0,0.0,0.0,0.0,0.0,0.0,0.0,0.0,0.0,0.0,0.0,0.0,0.0,0.0,0.0,0.0,0.0,0.0,0.0,0.0,0.0,0.0,0.0,0.0,0.0,0.0,0.0,0.0,0.0,0.0,0.0,0.0,0.0,0.0,0.0,0.0,0.0,0.0,0.0,0.0,0.0,0.0,0.0,0.0,0.0,0.0,0.0,1.5888,1.6206,1.6515,1.6449,1.5942,1.5513,1.4581,0.0,0.0,0.0,0.0,0.0,0.0,0.0,0.0,0.0,0.0,0.0,0.0,0.0,0.0,0.0,0.0,0.0,0.0,0.0,0.0,0.0,0.0,0.0,0.0,0.0,0.0,0.0,0.0,0.0,0.0,0.0,0.0,0.0,0.0,0.0,0.0,0.0,0.0,0.0,0.0,0.0,0.0,0.0,0.0,0.0,0.0,0.0,0.0,0.0,0.0,0.0,0.0,0.0,0.0,0.0,0.0,0.0,0.0,0.0,0.0,0.0,0.0,0.0,0.0,0.0,0.0,0.0,0.0,0.0,0.0,0.0,0.0,0.0,0.0,0.0,0.0,0.0,0.0,0.0,0.0,0.0,0.0,0.0,0.0,0.0,0.0,0.0,0.0,0.0,0.0,0.0,0.0,0.0,0.0,0.0,0.0,0.0,0.0,0.0,0.0,0.0,0.0,0.0,0.0,0.0,0.0,0.0,0.0,1.6134,1.6206,1.6515,1.6568,1.6285,1.5533,1.4676,0.0,0.0,0.0,0.0,0.0,0.0,0.0,0.0,0.0,0.0,0.0,0.0,0.0,0.0,0.0,0.0,0.0,0.0,0.0,0.0,0.0,0.0,0.0,0.0,0.0,0.0,0.0,0.0,0.0,0.0,0.0,0.0,0.0,0.0,0.0,0.0,0.0,0.0,0.0,0.0,0.0,0.0,0.0,0.0,0.0,0.0,0.0,0.0,1.4606,0.0,0.0,0.0,0.0,0.0,0.0,0.0,0.0,0.0,0.0,0.0,0.0,0.0,0.0,0.0,0.0,0.0,0.0,0.0,0.0,0.0,0.0,0.0,0.0,0.0,0.0,0.0,0.0,0.0,0.0,0.0,0.0,0.0,0.0,0.0,0.0,0.0,0.0,0.0,0.0,0.0,0.0,0.0,0.0,0.0,0.0,0.0,0.0,0.0,0.0,0.0,0.0,0.0,0.0,0.0,0.0,0.0,0.0,0.0,1.6285,1.6412,1.6635,1.6648,1.655,1.5848,1.4943,0.0,0.0,0.0,0.0,0.0,0.0,0.0,0.0,0.0,0.0,0.0,0.0,0.0,0.0,0.0,0.0,0.0,0.0,0.0,0.0,0.0,0.0,0.0,0.0,0.0,0.0,0.0,0.0,0.0,0.0,0.0,0.0,0.0,0.0,0.0,0.0,0.0,0.0,0.0,0.0,0.0,0.0,0.0,0.0,0.0,0.0,0.0,0.0,0.0,0.0,0.0,0.0,0.0,0.0,0.0,0.0,0.0,0.0,0.0,0.0,0.0,0.0,0.0,0.0,0.0,0.0,0.0,0.0,0.0,0.0,0.0,0.0,0.0,0.0,0.0,0.0,0.0,0.0,0.0,0.0,0.0,0.0,0.0,0.0,0.0,0.0,0.0,0.0,0.0,0.0,0.0,0.0,0.0,0.0,0.0,0.0,0.0,0.0,0.0,0.0,0.0,0.0,0.0,0.0,0.0,0.0,0.0,1.6055,1.6381,1.6673,1.6689,1.6689,1.6689,1.6235,1.5366,1.3958,0.0,0.0,0.0,0.0,0.0,0.0,0.0,0.0,0.0,0.0,0.0,0.0,0.0,0.0,0.0,0.0,0.0,0.0,0.0,0.0,0.0,0.0,0.0,0.0,0.0,0.0,0.0,0.0,0.0,0.0,0.0,0.0,0.0,0.0,0.0,0.0,0.0,0.0,1.3895,1.449,0.0,0.0,0.0,0.0,0.0,0.0,0.0,0.0,1.5886,0.0,0.0,0.0,0.0,0.0,0.0,0.0,0.0,0.0,0.0,0.0,0.0,0.0,0.0,0.0,0.0,0.0,0.0,0.0,0.0,0.0,0.0,0.0,0.0,0.0,0.0,0.0,0.0,0.0,0.0,0.0,0.0,0.0,0.0,0.0,0.0,0.0,0.0,0.0,0.0,0.0,0.0,0.0,0.0,0.0,0.0,0.0,0.0,0.0,0.0,0.0,0.0,0.0,0.0,0.0,0.0,1.6103,1.6174,1.6373,1.6681,1.6689,1.6689,1.6689,1.6634,1.585,1.4403,0.0,0.0,0.0,0.0,0.0,0.0,0.0,0.0,0.0,0.0,0.0,0.0,0.0,0.0,0.0,0.0,0.0,0.0,0.0,0.0,0.0,0.0,0.0,0.0,0.0,0.0,0.0,0.0,0.0,0.0,0.0,0.0,0.0,0.0,0.0,0.0,0.0,0.0,0.0,1.5753,1.6057,0.0,0.0,0.0,0.0,0.0,0.0,0.0,0.0,1.6887,0.0,0.0,0.0,0.0,0.0,0.0,0.0,0.0,0.0,0.0,0.0,0.0,0.0,0.0,0.0,0.0,0.0,0.0,0.0,0.0,0.0,0.0,0.0,0.0,0.0,0.0,0.0,0.0,0.0,0.0,0.0,0.0,0.0,0.0,0.0,0.0,0.0,0.0,0.0,0.0,0.0,0.0,0.0,0.0,0.0,0.0,0.0,0.0,0.0,0.0,0.0,0.0,0.0,0.0,0.0,1.5888,1.6293,1.6515,1.6681,1.6689,1.6689,1.6681,1.6381,1.5659,0.0,0.0,0.0,0.0,0.0,0.0,0.0,0.0,0.0,0.0,0.0,0.0,0.0,0.0,0.0,0.0,0.0,0.0,0.0,0.0,0.0,0.0,0.0,0.0,0.0,0.0,0.0,0.0,0.0,0.0,0.0,0.0,0.0,0.0,0.0,0.0,0.0,0.0,0.0,0.0,1.628,1.649,1.6791,0.0,0.0,0.0,0.0,0.0,0.0,1.6801,1.7017,0.0,0.0,0.0,0.0,0.0,0.0,0.0,0.0,0.0,0.0,0.0,0.0,0.0,0.0,0.0,0.0,0.0,0.0,0.0,0.0,0.0,0.0,0.0,0.0,0.0,0.0,0.0,0.0,0.0,0.0,0.0,0.0,0.0,0.0,0.0,0.0,0.0,0.0,0.0,0.0,0.0,0.0,0.0,0.0,0.0,0.0,0.0,0.0,0.0,0.0,0.0,0.0,0.0,0.0,0.0,1.5972,1.6572,1.6936,1.6968,1.6853,1.6779,1.6681,1.6118,1.5419,0.0,0.0,0.0,0.0,0.0,0.0,0.0,0.0,0.0,0.0,0.0,0.0,0.0,0.0,0.0,0.0,0.0,0.0,0.0,0.0,0.0,0.0,0.0,0.0,0.0,0.0,0.0,0.0,0.0,0.0,0.0,0.0,0.0,0.0,0.0,0.0,0.0,0.0,0.0,0.0,0.0,1.7026,1.7432,1.6783,0.0,0.0,0.0,0.0,1.7013,1.7185,0.0,0.0,0.0,0.0,0.0,0.0,0.0,0.0,0.0,0.0,0.0,0.0,0.0,0.0,0.0,0.0,0.0,0.0,0.0,0.0,0.0,0.0,0.0,0.0,0.0,0.0,0.0,0.0,0.0,0.0,0.0,0.0,0.0,0.0,0.0,0.0,0.0,0.0,0.0,0.0,0.0,0.0,0.0,0.0,0.0,0.0,0.0,0.0,0.0,0.0,0.0,0.0,0.0,0.0,0.0,0.0,1.6829,1.7372,1.7751,1.7819,1.7326,1.6935,1.6689,1.6349,1.5627,0.0,0.0,0.0,0.0,0.0,0.0,0.0,0.0,0.0,0.0,0.0,0.0,0.0,0.0,0.0,0.0,0.0,0.0,0.0,0.0,0.0,0.0,0.0,0.0,0.0,0.0,0.0,0.0,0.0,0.0,0.0,0.0,0.0,0.0,0.0,0.0,0.0,0.0,0.0,0.0,0.0,1.8219,1.7683,1.7432,1.7388,0.0,0.0,0.0,1.8399,1.8492,0.0,0.0,0.0,0.0,0.0,0.0,0.0,0.0,0.0,0.0,0.0,0.0,0.0,0.0,0.0,0.0,0.0,0.0,0.0,0.0,0.0,0.0,0.0,0.0,0.0,0.0,0.0,0.0,0.0,0.0,0.0,0.0,0.0,0.0,0.0,0.0,0.0,0.0,0.0,0.0,0.0,0.0,0.0,0.0,0.0,0.0,0.0,0.0,0.0,0.0,0.0,0.0,0.0,0.0,0.0,1.6138,1.6989,1.7709,1.8082,1.7997,1.7408,1.6976,1.6689,1.6015,1.5316,0.0,0.0,0.0,0.0,0.0,0.0,0.0,0.0,0.0,0.0,0.0,0.0,0.0,0.0,0.0,0.0,0.0,0.0,0.0,0.0,0.0,0.0,0.0,0.0,0.0,0.0,0.0,0.0,0.0,0.0,0.0,0.0,0.0,0.0,0.0,0.0,0.0,0.0,0.0,0.0,0.0,0.0,1.8529,1.8153,0.0,0.0,0.0,1.8136,1.8197,0.0,0.0,0.0,0.0,0.0,0.0,0.0,0.0,0.0,0.0,0.0,0.0,0.0,0.0,0.0,0.0,0.0,0.0,0.0,0.0,0.0,0.0,0.0,0.0,0.0,0.0,0.0,0.0,0.0,0.0,0.0,0.0,0.0,0.0,0.0,0.0,0.0,0.0,0.0,0.0,0.0,0.0,0.0,0.0,0.0,0.0,0.0,0.0,0.0,0.0,0.0,0.0,0.0,0.0,0.0,0.0,0.0,1.7073,1.8335,1.8687,1.8207,1.7651,1.718,1.6676,1.58,0.0,0.0,0.0,0.0,0.0,0.0,0.0,0.0,0.0,0.0,0.0,0.0,0.0,0.0,0.0,0.0,0.0,0.0,0.0,0.0,0.0,0.0,0.0,0.0,0.0,0.0,0.0,1.0854,0.0,0.0,0.0,0.0,0.0,0.0,0.0,0.0,0.0,0.0,0.0,0.0,0.0,0.0,1.8239,1.8946,1.8603,1.8327,0.0,0.0,1.8227,1.8158,1.8536,1.8586,0.0,0.0,0.0,0.0,0.0,0.0,0.0,0.0,0.0,0.0,0.0,0.0,0.0,0.0,0.0,0.0,0.0,0.0,0.0,0.0,0.0,0.0,0.0,0.0,0.0,0.0,0.0,0.0,0.0,0.0,0.0,0.0,0.0,0.0,0.0,0.0,0.0,0.0,0.0,0.0,0.0,0.0,0.0,0.0,0.0,0.0,0.0,0.0,0.0,0.0,0.0,0.0,0.0,0.0,0.0,1.7364,1.9564,2.004,1.8696,1.8376,1.7692,1.6532,1.5981,1.5051,0.0,0.0,0.0,0.0,0.0,0.0,0.0,0.0,0.0,0.0,0.0,0.0,0.0,0.0,0.0,0.0,0.0,0.0,0.0,0.0,0.0,0.0,0.0,0.0,0.0,0.0,0.0,0.0,0.0,0.0,0.0,0.0,0.0,0.0,0.0,0.0,0.0,0.0,0.0,0.0,0.0,1.8362,1.8454,1.8581,1.8815,0.0,0.0,1.8759,1.9164,1.9237,1.8999,1.8164,0.0,0.0,0.0,0.0,0.0,0.0,0.0,0.0,0.0,0.0,0.0,0.0,0.0,0.0,0.0,0.0,0.0,0.0,0.0,0.0,0.0,0.0,0.0,0.0,0.0,0.0,0.0,0.0,0.0,0.0,0.0,0.0,0.0,0.0,0.0,0.0,0.0,0.0,0.0,0.0,0.0,0.0,0.0,0.0,0.0,0.0,0.0,0.0,0.0,0.0,0.0,0.0,0.0,1.7407,1.7878,1.9439,1.9952,1.9234,1.807,1.7138,1.6539,1.5781,1.4911,0.0,0.0,0.0,0.0,0.0,0.0,0.0,0.0,0.0,0.0,0.0,0.0,0.0,0.0,0.0,0.0,0.0,0.0,0.0,0.0,0.0,0.0,0.0,0.0,0.0,0.0,0.0,0.0,1.1903,1.2107,1.2329,0.0,0.0,0.0,0.0,0.0,0.0,0.0,0.0,0.0,0.0,1.8897,1.9261,1.9158,0.0,0.0,1.8971,1.8852,1.9237,1.9091,1.876,1.821,1.8081,0.0,0.0,0.0,0.0,0.0,0.0,0.0,0.0,0.0,0.0,0.0,0.0,0.0,0.0,0.0,0.0,0.0,0.0,0.0,0.0,0.0,0.0,0.0,0.0,0.0,0.0,0.0,0.0,0.0,0.0,0.0,0.0,0.0,0.0,0.0,0.0,0.0,0.0,0.0,0.0,0.0,0.0,0.0,0.0,0.0,0.0,0.0,0.0,0.0,0.0,0.0,0.0,1.7687,1.8249,1.9832,2.0293,1.9509,1.8213,1.723,1.6547,1.5721,1.4864,0.0,0.0,0.0,0.0,0.0,0.0,0.0,0.0,0.0,0.0,0.0,0.0,0.0,0.0,0.0,0.0,0.0,0.0,0.0,0.0,0.0,0.0,0.0,0.0,0.0,0.0,0.0,0.0,1.2186,1.2274,1.2566,0.0,0.0,0.0,0.0,0.0,0.0,0.0,0.0,0.0,0.0,1.9226,1.982,1.9567,1.9292,1.9292,1.9072,1.8953,1.9109,1.91,1.8861,1.8191,0.0,0.0,0.0,0.0,0.0,0.0,0.0,0.0,0.0,0.0,0.0,0.0,0.0,0.0,0.0,0.0,0.0,0.0,0.0,0.0,0.0,0.0,0.0,0.0,0.0,0.0,0.0,0.0,0.0,0.0,0.0,0.0,0.0,0.0,0.0,0.0,0.0,0.0,0.0,0.0,0.0,0.0,0.0,0.0,0.0,0.0,0.0,0.0,0.0,0.0,0.0,0.0,0.0,0.0,1.8442,2.0981,2.1367,1.9288,1.9022,1.8162,1.6644,1.586,1.4924,1.3681,0.0,0.0,0.0,0.0,0.0,0.0,0.0,0.0,0.0,0.0,0.0,0.0,0.0,0.0,0.0,0.0,0.0,0.0,0.0,0.0,0.0,0.0,0.0,0.0,0.0,0.0,1.2566,1.2582,1.2613,0.0,0.0,0.0,0.0,0.0,0.0,0.0,0.0,0.0,0.0,1.8749,1.9236,1.9829,1.9577,1.9329,1.9311,1.9311,1.9173,1.8834,1.9384,1.9454,0.0,0.0,0.0,0.0,0.0,0.0,0.0,0.0,0.0,0.0,0.0,0.0,0.0,0.0,0.0,0.0,0.0,0.0,0.0,0.0,0.0,0.0,0.0,0.0,0.0,0.0,0.0,1.0294,0.9846,0.0,0.0,0.0,0.0,0.0,0.0,0.0,0.0,0.0,0.0,0.0,1.517,1.6301,0.0,0.0,0.0,0.0,0.0,0.0,0.0,0.0,0.0,0.0,0.0,0.0,1.8308,1.8911,2.0554,2.072,1.925,1.8459,1.761,1.6619,1.5872,1.5141,1.4359,0.0,0.0,0.0,0.0,0.0,0.0,0.0,0.0,0.0,0.0,0.0,0.0,0.0,0.0,0.0,0.0,0.0,0.0,0.0,0.0,0.0,0.0,0.0,0.0,0.0,1.2928,0.0,0.0,0.0,0.0,0.0,0.0,0.0,0.0,0.0,0.0,0.0,1.7981,1.9056,1.943,1.9656,1.9866,1.9994,2.0017,0.0,0.0,0.0,0.0,0.0,0.0,0.0,0.0,0.0,0.0,0.0,0.0,0.0,0.0,2.1174,1.9595,1.9201,1.9191,1.9427,0.0,0.0,0.0,0.0,0.0,0.0,0.0,0.0,0.0,0.0,0.0,0.0,0.0,0.0,0.0,0.0,1.1617,0.0,0.0,0.0,0.0,0.0,0.0,0.0,0.0,1.6073,1.6693,1.7171,1.823,1.8714,0.0,1.8935,1.7976,0.0,0.0,0.0,0.0,0.0,0.0,0.0,0.0,1.8968,1.9798,2.0913,2.0776,1.939,1.8481,1.7486,1.6427,1.5686,1.5083,1.4599,1.4047,1.3607,0.0,0.0,0.0,0.0,0.0,0.0,0.0,0.0,0.0,0.0,0.0,0.0,0.0,0.0,0.0,0.0,0.0,0.0,0.0,0.0,0.0,0.0,0.0,1.3216,0.0,0.0,0.0,0.0,0.0,0.0,0.0,0.0,0.0,1.6998,1.791,1.894,1.99,2.0094,2.0085,2.0095,0.0,0.0,0.0,0.0,0.0,0.0,0.0,1.9632,1.9847,1.9802,1.9902,2.0433,2.1403,2.2153,2.2254,0.0,0.0,2.0808,2.0457,2.0438,2.0662,2.1046,2.144,2.1878,2.2287,2.2787,0.0,0.0,0.0,0.0,0.0,0.0,0.0,0.0,1.2925,1.2716,0.0,1.2887,0.0,0.0,0.0,0.0,0.0,0.0,0.0,0.0,1.8109,1.891,1.9478,1.9749,2.0045,2.0325,2.0677,2.0576,2.0043,1.8247,0.0,0.0,0.0,0.0,0.0,0.0,2.0068,2.1034,2.1966,2.153,1.9627,1.9039,1.7878,1.6052,1.5284,1.4738,1.4476,1.4409,1.4171,1.3642,1.3298,0.0,0.0,0.0,0.0,0.0,0.0,0.0,0.0,0.0,0.0,0.0,0.0,0.0,0.0,0.0,0.0,0.0,0.0,0.0,0.0,1.345,0.0,0.0,0.0,0.0,0.0,0.0,0.0,0.0,0.0,0.0,1.7948,1.8852,1.9868,2.0678,0.0,0.0,0.0,0.0,2.0383,1.9966,2.0259,2.0397,2.004,2.0604,2.0814,2.0076,0.0,0.0,2.1742,2.24,2.2794,2.2419,2.2721,2.294,2.2913,2.2483,2.23,2.2318,2.2667,2.3059,2.351,2.432,2.5295,1.6858,0.0,0.0,0.0,0.0,1.6218,1.6426,1.7037,1.6263,1.5814,1.5497,1.5196,0.0,0.0,0.0,0.0,0.0,0.0,1.6646,1.6428,1.7715,1.8382,1.8491,1.9409,2.0247,2.1093,2.1568,2.1809,2.1769,2.0921,1.9433,1.7418,0.0,0.0,0.0,0.0,2.0402,2.0943,2.164,2.0997,1.8995,1.8719,1.7661,1.5691,1.515,1.4914,1.495,1.4817,1.4506,1.3982,1.387,0.0,0.0,0.0,0.0,0.0,0.0,0.0,0.0,0.0,0.0,0.0,0.0,0.0,0.0,0.0,0.0,0.0,0.0,0.0,1.348,1.383,1.4171,0.0,0.0,0.0,0.0,0.0,0.0,0.0,0.0,0.0,1.9315,1.9469,1.9837,0.0,0.0,1.9659,1.965,2.0145,2.0484,2.0323,0.0,0.0,0.0,2.0924,2.0805,2.1119,2.1696,2.2291,2.2885,2.3169,2.338,2.3584,2.373,2.3862,2.3776,2.3244,2.2959,2.3474,2.373,2.4051,2.4725,2.4942,2.5186,1.8796,1.8557,1.7877,1.7817,1.8055,1.7637,1.7841,1.8408,1.7598,1.7146,1.6966,1.6514,1.5891,1.5226,1.5299,0.0,0.0,0.0,1.7157,1.709,1.8237,1.8924,1.9263,2.0262,2.1112,2.1858,2.2241,2.2571,2.276,2.2304,2.1263,1.9648,0.0,0.0,2.0004,2.0642,2.1052,2.127,2.1367,2.0643,1.9022,1.799,1.6744,1.5451,1.507,1.4971,1.5062,1.4971,1.4724,1.4331,1.4153,1.3854,0.0,0.0,0.0,0.0,0.0,0.0,0.0,0.0,0.0,0.0,0.0,1.3896,1.3341,0.0,0.0,0.0,1.4303,1.4431,1.4298,1.4992,0.0,0.0,0.0,0.0,0.0,0.0,0.0,1.8841,1.9653,2.015,2.015,1.9817,1.9833,2.0415,1.9962,1.9549,1.9549,0.0,2.0521,2.0521,2.1071,2.1504,2.1659,2.1284,2.1129,2.1614,2.2016,2.2492,2.3123,2.338,2.3636,2.4091,2.4211,2.4211,2.4211,2.3749,2.3547,2.4101,2.4349,2.4633,2.5111,2.541,2.5755,1.9789,1.9669,1.839,1.8036,1.8369,1.8121,1.8072,1.8132,1.7544,1.7329,1.7333,1.7033,1.6771,1.6426,1.6155,0.0,0.0,1.6898,1.7614,1.8694,1.9215,1.9983,2.0948,2.1575,2.2104,2.2422,2.2636,2.2828,2.3039,2.2646,2.2459,2.249,2.2066,2.1838,2.1807,2.1769,2.1769,2.1731,2.1175,2.0352,1.9269,1.6991,1.5609,1.5226,1.4979,1.4864,1.4864,1.4864,1.4808,1.4637,1.4312,1.4005,1.368,0.0,0.0,0.0,0.0,0.0,0.0,0.0,0.0,0.0,0.0,0.0,0.0,0.0,0.0,0.0,1.5111,0.0,1.5664,1.6636,0.0,0.0,0.0,1.7476,1.6979,1.8385,1.9431,1.946,0.0,0.0,0.0,0.0,1.986,2.0387,2.0095,1.9838,1.9838,2.0159,2.0466,2.0448,2.0842,2.1202,2.154,2.1604,2.1659,2.1769,2.2044,2.2428,2.2858,2.3251,2.3627,2.4055,2.4183,2.4211,2.4211,2.4165,2.4211,2.4192,2.4532,2.4785,2.4988,2.5818,2.6476,1.8535,1.8995,1.854,1.8668,1.9216,1.8928,1.8829,1.8827,1.8205,1.7951,1.7955,1.7448,1.7172,1.7099,1.698,1.6987,1.7152,1.7949,1.7987,1.7417,1.8221,1.896,1.9582,1.9585,2.0435,2.191,2.1864,2.1906,2.2128,2.2025,2.2149,2.247,2.2387,2.2159,2.1818,2.1807,2.1568,2.1098,2.0982,1.9995,1.8225,1.6451,1.5466,1.5201,1.4864,1.4677,1.4677,1.4677,1.4804,1.503,1.4676,1.4439,1.4351,1.3314,0.0,0.0,0.0,0.0,0.0,0.0,0.0,0.0,0.0,1.4667,1.3462,0.0,1.4898,0.0,1.5782,1.6571,1.7114,1.7692,0.0,0.0,1.8976,1.8988,1.8936,1.9665,2.022,2.0243,2.0916,2.1297,2.0973,2.0546,2.0227,2.0058,1.9714,1.9448,1.9467,1.9806,2.0031,2.0104,2.0677,2.1135,2.1273,2.1495,2.1787,2.2089,2.2263,2.2419,2.284,2.3233,2.3535,2.3694,2.395,2.4174,2.4192,2.4211,2.4211,2.4229,2.4542,2.4978,2.5418,2.5554,2.5601,1.845,1.8781,1.8473,1.8551,1.8827,1.8596,1.8459,1.8444,1.8003,1.7779,1.7771,1.7453,1.7286,1.7286,1.7286,1.7286,1.7333,1.7878,1.7733,1.7154,1.79,1.8435,1.8706,1.9109,1.9938,2.0976,2.153,2.1818,2.1926,2.1936,2.2169,2.2595,2.192,2.1581,2.156,2.1606,2.125,2.0469,2.0109,1.9042,1.7262,1.6248,1.5557,1.5218,1.4795,1.4605,1.4605,1.4605,1.47,1.4919,1.4708,1.4605,1.4589,1.391,1.3505,0.0,0.0,0.0,0.0,0.0,0.0,0.0,0.0,0.0,0.0,0.0,1.5393,0.0,1.7052,0.0,1.8592,1.9212,1.9685,1.9841,1.9998,2.0043,2.0009,2.0549,2.0924,2.1003,2.1213,2.1242,2.1092,2.0759,2.0397,2.0218,1.9948,1.9714,1.9421,1.9628,1.9948,2.014,2.0704,2.1181,2.1346,2.1531,2.176,2.197,2.2061,2.2153,2.2556,2.2803,2.3004,2.3215,2.3602,2.3877,2.3886,2.4091,2.4202,2.4238,2.4385,2.4665,2.5039,2.5041,2.5064,1.8474,1.8528,1.824,1.8092,1.8054,1.7828,1.7712,1.7628,1.738,1.7286,1.7286,1.7286,1.7286,1.7286,1.7286,1.7286,1.7286,1.7286,1.7286,1.7358,1.785,1.8171,1.8335,1.9332,1.9898,2.0101,2.1316,2.1918,2.1928,2.1938,2.2166,2.2438,2.1199,2.068,2.0977,2.1171,2.0737,1.9717,1.8926,1.786,1.6604,1.6209,1.5785,1.529,1.4895,1.4653,1.4605,1.4653,1.4692,1.474,1.474,1.4756,1.4795,1.4676,1.4486,0.0,1.4164,0.0,0.0,0.0,0.0,0.0,0.0,0.0,0.0,1.5755,1.6186,1.7071,1.8414,1.9436,1.9955,2.0813,2.1025,2.0328,2.073,2.0929,2.0631,2.1104,2.1508,2.1623,2.1207,2.0982,2.1156,2.0842,2.0604,2.0543,2.0503,2.0177,1.9659,1.9806,2.0113,2.0433,2.0851,2.1236,2.1559,2.1678,2.1696,2.1696,2.1714,2.1815,2.2199,2.2263,2.2437,2.284,2.3251,2.3526,2.3563,2.3932,2.4192,2.4211,2.4229,2.4248,2.4356,2.4653,2.4883,1.6746,1.7359,1.795,1.8003,1.7768,1.8,1.7804,1.738,1.7333,1.7286,1.7286,1.7286,1.7286,1.7286,1.7286,1.7286,1.7286,1.7286,1.7286,1.7318,1.7446,1.7926,1.8676,1.8917,1.9458,2.0227,2.0734,2.0945,2.0987,2.1182,2.122,2.11,2.0782,2.0369,0.0,0.0,0.0,0.0,1.7813,1.7261,1.6993,1.6453,1.5983,1.5624,1.5261,0.0,1.4637,1.4927,1.5205,1.5459,1.5483,0.0,0.0,0.0,0.0,0.0,0.0,0.0,0.0,0.0,0.0,0.0,1.5351,1.5199,1.565,1.6865,1.7579,1.747,1.8969,2.0329,2.1103,2.1675,2.1978,2.1954,2.2218,2.2064,2.1181,2.1405,2.1523,2.122,2.1368,2.1523,2.1531,2.1264,2.0998,2.0979,2.0723,2.0466,2.0328,2.0356,2.0397,2.0497,2.0906,2.1264,2.1632,2.1687,2.1687,2.1687,2.1687,2.1723,2.1815,2.2099,2.241,2.2821,2.3224,2.3657,2.395,2.4156,2.4211,2.4211,2.4211,2.4251,2.443,2.4686,2.4932,1.6682,0.0,1.7923,1.8098,0.0,1.8446,1.83,1.7742,1.7446,1.7286,1.7286,1.7286,1.7286,1.7286,1.7286,1.7286,1.7286,1.7286,1.7286,1.7286,1.7286,1.7559,1.8048,1.8484,1.8949,1.9429,2.0272,2.0656,2.0656,2.0795,2.0795,2.0638,2.0112,1.9635,1.9201,1.8894,1.849,1.7977,1.7384,1.7017,1.6878,1.6469,1.6118,1.5936,0.0,0.0,0.0,0.0,0.0,0.0,0.0,0.0,0.0,0.0,0.0,1.6206,1.5705,1.5562,1.5912,1.5777,1.5944,1.6667,1.6563,1.6317,1.599,1.7113,1.8055,1.8536,1.9729,2.0786,2.1508,2.1755,2.1881,2.1915,2.1857,2.1674,2.1438,2.147,2.1515,2.1396,2.147,2.1607,2.1687,2.1566,2.1385,2.1366,2.1211,2.1065,2.1055,2.0934,2.0869,2.1037,2.122,2.144,2.1641,2.1687,2.1687,2.1687,2.1687,2.1687,2.1687,2.2016,2.2355,2.2602,2.3078,2.3572,2.3813,2.4005,2.4211,2.4202,2.4251,2.439,2.448,2.4726,2.4932,1.6851,1.7125,1.7732,1.8067,1.8173,1.8783,1.8743,1.8252,0.0,0.0,0.0,1.7286,1.7286,1.7286,1.7286,1.7286,1.7286,1.7286,1.7286,1.7286,1.7286,1.7286,1.7333,1.8032,1.8396,1.8488,1.9683,2.032,2.0357,2.0411,2.0411,2.0294,1.9474,1.9027,1.8913,1.8402,1.7991,1.7693,1.7324,1.7031,1.6818,1.6476,1.6269,1.6206,1.592,1.5737,1.5682,1.5776,1.5808,1.5777,1.5871,1.6126,1.6634,1.642,1.6587,1.7199,1.7,1.6881,1.6951,1.6953,1.7048,1.735,1.7655,1.7437,1.6619,1.7381,1.8312,1.9409,2.025,2.0869,2.1327,2.133,2.1268,2.1257,2.1006,2.1022,2.1552,2.1472,2.1383,2.1571,2.1517,2.1482,2.1687,2.1678,2.1687,2.1687,2.1632,2.1687,2.165,2.1376,2.1328,2.1549,2.1614,2.1678,2.1687,2.1687,2.1687,2.1687,2.1687,2.1714,2.1824,2.2062,2.2309,2.2584,2.3078,2.3462,2.3608,2.3941,2.4192,2.4211,2.4341,2.444,2.4489,2.4637,2.4833,1.5712,1.5865,1.6925,1.756,1.7999,1.8571,1.8783,1.8566,1.7684,1.7286,1.7286,1.7286,1.7286,1.7286,1.7286,1.7286,1.7286,1.7286,1.7286,0.0,1.7286,1.7286,1.7326,1.7667,1.7955,1.8172,1.8773,1.9196,1.9417,1.9617,1.9617,1.9417,1.9222,1.9061,1.8816,1.8444,1.8244,1.8189,1.7568,1.7241,1.7191,1.68,1.6475,1.6222,1.6174,1.5983,1.5728,1.5975,1.6134,1.6142,1.642,1.6594,1.6681,1.6657,1.6849,1.7239,1.7273,1.7461,1.8009,1.7803,1.7644,1.7743,1.779,1.787,1.8037,1.8549,1.8965,1.9213,1.9896,2.0289,2.0193,2.0348,2.0576,2.0781,2.0791,2.0917,2.1347,2.1195,2.115,2.1392,2.1392,2.1482,2.1651,2.1687,2.1687,2.1687,2.1687,2.1687,2.1678,2.1641,2.1623,2.1678,2.1687,2.1687,2.1687,2.1687,2.1705,2.1687,2.1714,2.1851,2.2153,2.2309,2.2574,2.3178,2.3416,2.3636,2.3969,2.4146,2.4202,2.4211,2.4251,2.4242,2.4291,2.444,2.4726,1.5584,1.5822,1.6778,1.7331,1.7569,1.7914,1.7978,1.7759,1.7029,1.7127,1.7804,1.7852,1.7757,1.7596,1.7549,1.7454,1.7286,1.7516,1.7549,1.7549,1.7589,1.7549,1.7574,1.767,1.7861,1.8125,1.8473,1.8743,1.8966,1.912,1.9112,1.9012,1.8958,1.8912,1.8819,1.8669,1.8589,1.8573,1.7898,1.7583,1.754,1.7382,1.7135,1.6802,1.6786,1.6619,1.6269,1.6404,1.6492,1.6451,1.6833,1.7111,1.7286,1.7294,1.7453,1.7795,1.7695,1.7719,1.7985,1.8041,1.8057,1.8065,1.824,1.8406,1.8573,1.8762,1.8875,1.8883,1.951,1.9855,1.9766,1.9844,2.0073,2.0428,2.0473,2.0654,2.0925,2.0781,2.0744,2.0934,2.1024,2.1159,2.1472,2.166,2.1687,2.1687,2.1687,2.1696,2.1696,2.1696,2.1696,2.1687,2.1687,2.1687,2.1687,2.1687,2.1778,2.1961,2.2007,2.2181,2.2538,2.2757,2.3078,2.3416,2.3703,2.3932,2.4192,2.4211,2.4211,2.4202,2.4291,2.4341,2.439,2.4538,2.4833,1.5698,1.5992,1.6624,1.6988,1.7233,1.7581,1.7537,1.7266,1.6797,1.7154,1.7996,1.8024,1.7963,1.794,1.7918,1.7642,1.7318,1.7512,1.7538,1.7336,1.7336,1.7336,1.7315,1.728,1.7505,1.7884,1.8033,1.8261,1.859,1.8543,1.845,1.838,1.835,1.8404,1.8542,1.8542,1.8635,1.8742,1.8287,1.8013,1.789,1.7854,1.7687,1.7464,1.7382,1.7254,1.6984,1.6919,1.6927,1.6976,1.7239,1.7544,1.7783,1.7806,1.7974,1.8224,1.8041,1.793,1.8017,1.8263,1.8414,1.8422,1.8748,1.8947,1.8931,1.8972,1.887,1.8818,1.9133,1.9433,1.9425,1.9396,1.9625,2.0065,2.0056,2.0198,2.0531,2.0412,2.0417,2.0698,2.0791,2.0975,2.1329,2.1572,2.1687,2.1687,2.176,2.1824,2.1824,2.1824,2.1842,2.1906,2.1824,2.1696,2.1696,2.1797,2.1952,2.23,2.2364,2.2593,2.294,2.3297,2.3526,2.3684,2.3932,2.4156,2.4202,2.4211,2.4211,2.4202,2.4291,2.444,2.439,2.4587,2.4883,1.5867,1.5885,1.6045,1.6465,1.7199,1.7962,1.8046,1.783,1.7803,1.7586,1.7304,1.7194,1.7505,1.8213,1.8205,1.7725,1.6997,1.7052,1.671,1.611,1.6003,1.6003,1.6053,1.6014,1.6514,1.7281,1.7026,1.7295,1.8138,1.7809,1.74,1.7132,1.6911,1.7207,1.7746,1.78,1.8118,1.8781,1.8718,1.8573,1.8247,1.7982,1.7806,1.7731,1.7767,1.7751,1.7636,1.7676,1.7711,1.7719,1.7743,1.779,1.7814,1.7814,1.7982,1.8279,1.8279,1.839,1.8684,1.8756,1.8796,1.8804,1.9121,1.932,1.9336,1.9606,1.9487,1.9025,1.8874,1.8976,1.8881,1.8913,1.9222,1.9708,1.9583,1.9586,2.0247,2.022,2.0315,2.0903,2.1024,2.1223,2.1456,2.1662,2.1769,2.1833,2.2071,2.2227,2.2227,2.2282,2.2346,2.2519,2.2208,2.1787,2.1797,2.2016,2.2254,2.2401,2.262,2.2977,2.3325,2.3499,2.359,2.3941,2.4137,2.4202,2.4211,2.4211,2.4211,2.4211,2.4202,2.4251,2.426,2.4399,2.4637,1.5885,1.5885,1.5885,1.6099,1.6465,1.6789,1.6789,1.6524,1.6305,1.6299,1.6393,1.6005,1.6291,1.7056,1.7056,1.6759,1.6325,1.6316,1.6138,1.5774,1.5665,1.5563,1.555,1.534,1.567,1.6317,1.6166,1.6517,1.7279,1.7392,1.7322,1.726,1.7128,1.7126,1.7347,1.7706,1.8042,1.8125,1.8589,1.8702,1.8621,1.847,1.8295,1.8105,1.8089,1.7977,1.7838,1.7806,1.7806,1.783,1.7962,1.8089,1.8089,1.8279,1.8454,1.8613,1.8819,1.8994,1.9145,1.9328,1.9439,1.9439,1.9574,1.971,1.9718,1.9837,1.9773,1.9511,1.9439,1.9439,1.9431,1.9439,1.9582,1.9875,1.9875,1.9932,2.0197,2.0182,2.0263,2.0523,2.099,2.1419,2.1684,2.2092,2.2373,2.2419,2.2565,2.2638,2.2657,2.2648,2.2721,2.2821,2.2602,2.2455,2.24,2.2519,2.273,2.294,2.3123,2.3389,2.3767,2.3904,2.3978,2.4192,2.4202,2.4211,2.4211,2.4211,2.4211,2.4211,2.4211,2.4211,2.4211,2.4251,2.439,1.5885,1.5885,1.5885,1.5885,1.5885,1.5885,1.5791,1.563,1.5363,1.541,1.5565,1.5131,1.5134,1.5555,1.5897,1.589,1.5491,1.5493,1.5316,1.5106,1.4896,1.4844,1.4821,1.4608,1.4813,1.527,1.5237,1.5538,1.624,1.6625,1.6757,1.675,1.6784,1.6792,1.6841,1.735,1.7727,1.7991,1.8487,1.8871,1.9067,1.9113,1.8899,1.8494,1.8438,1.8319,1.8081,1.8065,1.8065,1.8065,1.8311,1.8494,1.8597,1.8835,1.9018,1.9121,1.9352,1.955,1.955,1.9781,1.9909,1.9917,1.9988,2.0011,2.0076,2.0098,2.0154,2.0154,2.0154,2.0106,1.9925,1.9909,1.9957,2.0071,2.0111,2.0143,2.024,2.0264,2.0304,2.0434,2.103,2.1564,2.1982,2.2533,2.291,2.2838,2.2977,2.3068,2.3068,2.3068,2.3105,2.3206,2.3242,2.3123,2.2977,2.3004,2.3197,2.3398,2.3526,2.3804,2.4146,2.4183,2.4202,2.4202,2.4202,2.4211,2.4211,2.4211,2.4211,2.4211,2.4211,2.4211,2.4211,2.4202,2.4202,1.5885,1.5885,1.5885,1.5891,1.5885,1.5885,1.5885,1.5838,1.5832,1.5571,1.5095,1.4761,1.4326,1.404,1.5293,1.5453,1.4748,1.4641,1.4228,1.3599,1.3442,1.3403,1.3408,1.3398,1.3798,1.4478,1.4008,1.4089,1.4672,1.506,1.5209,1.5255,1.536,1.5613,1.6173,1.6367,1.7045,1.8216,1.851,1.8987,1.9684,1.9789,1.9455,1.8907,1.8765,1.8812,1.8772,1.8734,1.8742,1.878,1.8812,1.897,1.9319,1.9336,1.9479,1.9789,1.9877,1.9893,1.9893,1.9941,1.9965,1.9988,2.0218,2.0369,2.0384,2.0615,2.0766,2.0845,2.0782,2.0559,2.0051,2.0044,2.0004,1.9996,1.9957,2.0116,2.0345,2.0426,2.0535,2.0804,2.1196,2.1769,2.2405,2.2802,2.3039,2.3112,2.3261,2.3471,2.3471,2.3471,2.3657,2.3895,2.4018,2.388,2.3151,2.3251,2.3462,2.3599,2.3886,2.4097,2.4174,2.4211,2.4211,2.4211,2.4211,2.4211,2.4211,2.4211,2.4211,2.4211,2.4211,2.4211,2.4211,2.4211,2.4211,1.5885,1.5885,1.5684,1.5737,1.5885,1.5885,1.5885,1.5891,1.5458,1.5309,1.5208,1.4606,1.4331,1.4283,1.4439,1.4218,1.3792,1.3576,1.3359,1.3044,1.2822,1.2713,1.2713,1.2713,1.2985,1.3305,1.2708,1.2649,1.3231,1.3891,1.4509,1.5052,1.5399,1.568,1.5836,1.6215,1.6678,1.7093,1.8022,1.8769,1.9135,1.9617,1.9781,1.9519,1.9487,1.9391,1.9185,1.9376,1.9495,1.9535,1.9542,1.955,1.971,1.9734,1.9781,1.9917,2.0124,2.0202,2.0234,2.0416,2.0535,2.0551,2.0655,2.0718,2.075,2.0845,2.0925,2.0925,2.0925,2.0758,2.0639,2.0535,2.0535,2.0543,2.0543,2.0567,2.0694,2.0734,2.079,2.092,2.129,2.197,2.2702,2.3135,2.3368,2.3669,2.3849,2.3904,2.3932,2.3941,2.3987,2.4156,2.4202,2.411,2.384,2.3822,2.3941,2.3969,2.4128,2.4165,2.4202,2.4211,2.4211,2.4211,2.4211,2.4211,2.4211,2.4211,2.4211,2.4211,2.4211,2.4211,2.4211,2.4211,2.4211,1.5785,1.5737,1.547,1.5416,1.5571,1.5624,1.5624,1.5571,1.5196,1.5095,1.5041,1.4498,1.4223,1.4229,1.3802,1.3423,1.3152,1.2989,1.2822,1.2708,1.2429,1.2292,1.2278,1.2217,1.2388,1.2562,1.225,1.2214,1.2644,1.3447,1.4153,1.4761,1.541,1.5707,1.5603,1.6097,1.6394,1.6688,1.7627,1.839,1.8892,1.9506,1.9948,2.0075,2.0146,1.9979,1.9614,1.9797,1.9909,1.9909,1.9909,1.9965,2.0019,2.0146,2.0202,2.0234,2.0424,2.0559,2.0591,2.0739,2.0917,2.0925,2.0917,2.0925,2.0925,2.0925,2.0925,2.0925,2.0925,2.0925,2.0925,2.0909,2.0925,2.0925,2.0925,2.0925,2.0925,2.0917,2.096,2.1062,2.131,2.2013,2.2887,2.2769,2.3161,2.4003,2.3945,2.3746,2.4102,2.4211,2.4211,2.4211,2.4211,2.4202,2.4091,2.4091,2.4119,2.4146,2.4156,2.4192,2.4211,2.4211,2.4211,2.4211,2.4211,2.4211,2.4211,2.4211,2.4211,2.4211,2.4211,2.4211,2.4211,2.4211,2.4211,1.5482,1.5422,1.5148,1.4987,1.4982,1.5035,1.4982,1.4959,1.4905,1.4733,1.4609,1.4256,1.3986,1.3748,1.3532,1.3207,1.2989,1.296,1.2718,1.2398,1.2224,1.2095,1.2104,1.1973,1.1971,1.2159,1.2606,1.2796,1.2825,1.3534,1.4066,1.4358,1.5075,1.5493,1.547,1.5802,1.6333,1.6917,1.7213,1.8032,1.9457,1.9649,1.9916,2.0313,2.0636,2.0543,1.9972,1.9965,2.0012,1.9988,1.998,2.01,2.0392,2.0662,2.0877,2.0837,2.0909,2.0873,2.0925,2.0897,2.098,2.0972,2.0941,2.0925,2.0925,2.0925,2.0925,2.0925,2.0925,2.0925,2.0925,2.0925,2.0925,2.0925,2.0925,2.0925,2.0925,2.0925,2.0968,2.1165,2.1267,2.1776,2.2384,2.2224,2.2426,2.3538,2.3497,2.3238,2.3994,2.4211,2.4211,2.4211,2.4211,2.4211,2.4211,2.4202,2.4202,2.4202,2.4192,2.4211,2.4211,2.4211,2.4211,2.4211,2.4211,2.4211,2.4211,2.4211,2.4211,2.4211,2.4211,2.4211,2.4211,2.4211,2.4211,1.5041,1.4826,1.4552,1.4439,1.4444,1.4439,1.4356,1.4203,1.3986,1.3986,1.4039,1.3773,1.38,1.3932,1.3694,1.3428,1.3162,1.3118,1.2781,1.2306,1.203,1.1968,1.2081,1.2156,1.2105,1.1892,1.1989,1.2072,1.2224,1.2777,1.3289,1.3894,1.485,1.5255,1.5225,1.563,1.6099,1.6305,1.6882,1.7516,1.8094,1.9101,1.9775,1.9964,2.0562,2.0798,2.0615,2.0591,2.0591,2.0575,2.0591,2.0647,2.0758,2.0861,2.0917,2.0941,2.1111,2.123,2.123,2.1222,2.1206,2.1182,2.106,2.0933,2.0925,2.0925,2.0925,2.0925,2.0925,2.0925,2.0925,2.0925,2.0865,2.0925,2.0925,2.0925,2.0873,2.0873,2.0917,2.1019,2.1019,2.142,2.2072,2.203,2.2476,2.3596,2.3646,2.3795,2.4053,2.4211,2.4211,2.4211,2.4211,2.4211,2.4211,2.4211,2.4211,2.4211,2.4211,2.4211,2.4211,2.4211,2.4211,2.4211,2.4211,2.4211,2.4211,2.4211,2.4211,2.4211,2.4211,2.4211,2.4211,2.4211,2.4211,1.4708,1.4385,1.4008,1.3847,1.3773,1.3768,1.3694,1.3567,1.3346,1.3393,1.3572,1.3481,1.3548,1.3792,1.3718,1.3655,1.3566,1.3528,1.3382,1.2974,1.235,1.2214,1.2198,1.2236,1.2169,1.1964,1.195,1.1985,1.1989,1.2556,1.3148,1.3881,1.4778,1.5314,1.5364,1.5761,1.6,1.6016,1.6411,1.6882,1.7358,1.8206,1.9049,1.968,2.0197,2.0565,2.0873,2.0925,2.0925,2.0925,2.0925,2.0925,2.0925,2.0917,2.0925,2.0964,2.1056,2.119,2.1198,2.1159,2.1206,2.1159,2.0992,2.0925,2.0925,2.0925,2.0925,2.0925,2.0617,2.0617,2.0814,2.0609,2.0609,2.0865,2.0925,2.0925,2.0873,2.0609,2.066,2.0712,2.066,2.1011,2.1674,2.1869,2.2417,2.3288,2.3596,2.3845,2.4003,2.4211,2.4211,2.4211,2.4211,2.4211,2.4211,2.4211,2.4211,2.4211,2.4211,2.4211,2.4211,2.4211,2.4211,2.4211,2.4211,2.4211,2.4211,2.4211,2.4211,2.4211,2.4211,2.4211,2.4211,2.4211,2.4211,1.4439,1.4116,1.3511,1.3168,1.3002,1.2991,1.2971,1.2946,1.2918,1.3024,1.318,1.3161,1.3266,1.3326,1.3427,1.3618,1.4048,1.3966,1.4159,1.4132,1.3538,1.2851,1.2531,1.2372,1.2283,1.2267,1.2388,1.243,1.2464,1.293,1.3477,1.4053,1.4758,1.54,1.5641,1.6084,1.6091,1.5969,1.5939,1.6358,1.7047,1.7358,1.8048,1.9517,1.9835,2.0248,2.0814,2.0925,2.0925,2.0925,2.0925,2.0925,2.0925,2.0925,2.0925,2.0933,2.0941,2.0968,2.0937,2.1016,2.1052,2.106,2.0988,2.0925,2.0925,2.0925,2.0925,2.0873,2.0359,2.0197,2.0609,2.0403,2.03,2.0763,2.0925,2.0873,2.0771,2.0197,2.0094,2.0351,2.0145,2.0189,2.1463,2.1353,2.2005,2.2878,2.3129,2.3497,2.3904,2.4211,2.4211,2.4211,2.4211,2.4211,2.4211,2.4211,2.4211,2.4211,2.4211,2.4211,2.4211,2.4211,2.4211,2.4211,2.4211,2.4211,2.4211,2.4211,2.4211,2.4211,2.4211,2.4211,2.4211,2.4211,2.4211,1.4175,1.3511,1.2983,1.2612,1.2351,1.2351,1.2245,1.2139,1.2288,1.2404,1.2471,1.2542,1.2814,1.2899,1.3012,1.3338,1.3851,1.3882,1.4192,1.4711,1.4507,1.3775,1.3197,1.2934,1.2865,1.2823,1.2781,1.2904,1.2909,1.3088,1.3392,1.375,1.45,1.4917,1.5227,1.5809,1.5964,1.5897,1.5891,1.6004,1.643,1.7496,1.8265,1.8736,1.9902,2.0573,2.0873,2.0925,2.0925,2.0925,2.0925,2.0925,2.0925,2.0933,2.0956,2.098,2.1179,2.1262,2.1262,2.1262,2.1254,2.123,2.1032,2.0925,2.0925,2.0925,2.0925,2.0873,2.0668,2.0609,2.0822,2.0624,2.0668,2.0814,2.0767,2.0604,2.0153,1.9835,1.9569,1.9205,1.9413,2.0086,2.0842,2.1709,2.2367,2.3288,2.3646,2.3746,2.4102,2.4211,2.4211,2.4211,2.4211,2.4211,2.4211,2.4211,2.4211,2.4211,2.4211,2.4211,2.4211,2.4211,2.4211,2.4211,2.4211,2.4211,2.4211,2.4211,2.4211,2.4211,2.4211,2.4211,2.4211,2.4211,2.4211,1.3793,1.3105,1.2612,1.2193,1.1902,1.1968,1.1878,1.1898,1.2081,1.2323,1.2413,1.2521,1.2644,1.2762,1.2828,1.3272,1.3979,1.4132,1.47,1.5339,1.5328,1.4568,1.3612,1.3197,1.2964,1.2786,1.2805,1.2958,1.3141,1.3279,1.3694,1.4351,1.4794,1.516,1.5609,1.5839,1.5994,1.5934,1.5982,1.6054,1.6216,1.7513,1.8386,1.8914,2.0129,2.088,2.1067,2.1004,2.0925,2.0925,2.0925,2.0925,2.0941,2.1076,2.1087,2.1103,2.1473,2.1663,2.1663,2.1663,2.1663,2.16,2.1338,2.1179,2.1064,2.0976,2.0925,2.0873,2.0617,2.0403,2.0323,2.02,2.0023,1.9964,2.0099,2.0069,1.9673,1.9042,1.8684,1.8527,1.884,1.9517,2.0431,2.1666,2.2636,2.3288,2.3845,2.4003,2.4211,2.4211,2.4257,2.4312,2.4248,2.422,2.4229,2.4229,2.4211,2.4211,2.4211,2.4211,2.4211,2.4211,2.4211,2.4211,2.4211,2.4211,2.4211,2.4211,2.4211,2.4211,2.4211,2.4211,2.4211,2.4211,2.4211,1.3378,1.2918,1.2303,1.1874,1.1624,1.1746,1.1879,1.1968,1.2309,1.2592,1.2748,1.2795,1.2866,1.2851,1.2847,1.3279,1.4211,1.4503,1.5289,1.5762,1.5763,1.5053,1.3967,1.351,1.3148,1.2885,1.2609,1.2965,1.3416,1.3598,1.4261,1.4944,1.54,1.5873,1.6077,1.6296,1.6199,1.6115,1.6235,1.6326,1.657,1.7689,1.8598,1.9275,2.0416,2.1124,2.1331,2.1258,2.1091,2.1,2.0996,2.1012,2.0992,2.1262,2.1428,2.1476,2.1743,2.1963,2.1995,2.1955,2.1979,2.1916,2.1655,2.1452,2.1404,2.129,2.1155,2.1163,2.0356,2.0232,1.9956,1.9433,1.922,1.9216,1.9157,1.9179,1.9151,1.8183,1.7556,1.825,1.8429,1.9038,2.0222,2.1466,2.2723,2.3475,2.3982,2.4363,2.4409,2.4445,2.4482,2.456,2.4431,2.4238,2.4248,2.4257,2.4229,2.4211,2.4211,2.4211,2.4211,2.4211,2.4211,2.4211,2.4211,2.4211,2.4211,2.4211,2.4211,2.4211,2.4211,2.4211,2.4211,2.4211,2.4211,1.3186,1.2644,1.1944,1.1694,1.1704,1.1808,1.2002,1.226,1.2578,1.2819,1.3022,1.3055,1.3046,1.298,1.2941,1.3516,1.4513,1.4558,1.4924,1.5839,1.5707,1.5343,1.4689,1.4358,1.4072,1.3792,1.3786,1.3894,1.398,1.4136,1.4418,1.507,1.5528,1.5745,1.6283,1.6489,1.6592,1.6537,1.6579,1.6604,1.6944,1.8112,1.9064,1.956,2.0899,2.1672,2.1816,2.1783,2.1796,2.1671,2.1452,2.1212,2.1349,2.161,2.1723,2.1771,2.181,2.1935,2.1973,2.1905,2.1965,2.1851,2.178,2.1908,2.1846,2.1767,2.1703,2.1727,2.1575,2.1025,2.0275,2.0264,1.9616,1.9043,1.8547,1.8229,1.8242,1.797,1.7827,1.8114,1.8707,1.961,2.0926,2.2108,2.3026,2.367,2.4182,2.4666,2.4684,2.4605,2.4734,2.4821,2.4698,2.4542,2.4587,2.4514,2.4321,2.4238,2.4211,2.4211,2.4211,2.4211,2.4211,2.4211,2.4211,2.4211,2.4211,2.4211,2.4211,2.4211,2.4211,2.4211,2.4211,2.4211,2.4211,1.2916,1.2434,1.1754,1.153,1.1699,1.1831,1.2095,1.2434,1.2895,1.3055,1.3122,1.3065,1.3017,1.2965,1.2775,1.3286,1.4206,1.475,1.5202,1.5797,1.5743,1.5583,1.5505,1.5294,1.5053,1.4364,1.4169,1.4277,1.4515,1.4771,1.5066,1.5609,1.5849,1.6162,1.6428,1.664,1.6676,1.6718,1.6833,1.6887,1.717,1.8303,1.971,2.0332,2.1579,2.2258,2.2204,2.2075,2.175,2.1464,2.1287,2.1409,2.1553,2.1565,2.158,2.1564,2.1332,2.1218,2.1178,2.1226,2.1185,2.1259,2.1429,2.1564,2.1651,2.1798,2.2011,2.2011,2.1888,2.1464,2.0176,1.9673,1.9202,1.8473,1.8,1.7723,1.7692,1.7522,1.7353,1.7687,1.8534,1.9462,2.0676,2.2183,2.3008,2.3464,2.3913,2.4394,2.4654,2.4675,2.4978,2.5063,2.4941,2.49,2.4913,2.4766,2.4459,2.433,2.4211,2.4211,2.4211,2.4211,2.4211,2.4211,2.4211,2.4211,2.4211,2.4211,2.4211,2.4211,2.4211,2.4211,2.422,2.4229,2.422,1.2658,1.2159,1.1668,1.1501,1.1619,1.1935,1.2184,1.2569,1.3055,1.3198,1.3136,1.3103,1.2913,1.2753,1.2554,1.294,1.3921,1.5016,1.5696,1.5934,1.5994,1.5988,1.6,1.6023,1.5768,1.4668,1.4767,1.4984,1.5313,1.5508,1.5849,1.6337,1.6616,1.6686,1.6761,1.6815,1.6887,1.6936,1.7068,1.7153,1.7338,1.8372,1.9655,2.0929,2.1515,2.1896,2.185,2.1688,2.1346,2.0659,2.08,2.1206,2.1461,2.1317,2.1011,2.0954,2.0651,2.0551,2.0494,2.043,2.0437,2.0314,2.0671,2.0969,2.1111,2.1317,2.1486,2.1596,2.1447,2.0946,1.9452,1.9043,1.8382,1.781,1.7707,1.7753,1.7815,1.7532,1.7598,1.7491,1.8962,2.0323,2.0943,2.201,2.2622,2.3265,2.373,2.4138,2.443,2.4729,2.5002,2.522,2.5109,2.4889,2.4931,2.4931,2.4643,2.4385,2.4238,2.422,2.422,2.4211,2.4211,2.4211,2.4211,2.4211,2.4211,2.4211,2.4211,2.4211,2.4211,2.4211,2.4229,2.4257,2.4303,1.242,1.1841,1.1411,1.1444,1.1751,1.1855,1.2209,1.2673,1.2862,1.3013,1.3089,1.2956,1.287,1.2706,1.2535,1.3039,1.4116,1.5231,1.597,1.6163,1.6211,1.6296,1.6477,1.6567,1.6418,1.6412,1.6166,1.6221,1.6297,1.6504,1.646,1.6682,1.6893,1.702,1.7086,1.7213,1.728,1.7249,1.7334,1.737,1.7628,1.8422,1.9339,2.0436,2.0801,2.0837,2.0794,2.0708,2.0516,2.0352,2.0401,2.043,2.0473,2.0352,2.0323,2.0344,2.0157,1.9924,1.9982,2.0155,2.027,2.0321,2.0315,2.0408,2.0444,2.0573,2.0798,2.0706,2.0664,2.0188,1.9134,1.8962,1.8841,1.8584,1.8648,1.8933,1.9428,1.9564,1.9105,1.8671,1.9961,2.1095,2.1518,2.1975,2.2759,2.3294,2.3686,2.4077,2.4405,2.4724,2.4959,2.513,2.5191,2.5002,2.4825,2.4876,2.473,2.4468,2.4312,2.4266,2.4248,2.422,2.4211,2.4211,2.4211,2.4211,2.4211,2.4211,2.4211,2.4211,2.4211,2.4211,2.4266,2.4339,2.4597,1.2339,1.177,1.1368,1.1435,1.1813,1.2001,1.237,1.2823,1.2989,1.3017,1.297,1.2866,1.2701,1.2597,1.2448,1.3088,1.4245,1.5358,1.6,1.6296,1.6435,1.6549,1.6742,1.6833,1.6893,1.6942,1.7014,1.693,1.6742,1.6845,1.6887,1.6966,1.7165,1.7292,1.731,1.7394,1.7479,1.7485,1.7485,1.7485,1.7543,1.8409,1.9165,1.9519,2.004,2.027,2.027,2.027,2.0033,1.9679,1.957,1.9339,1.9049,1.8933,1.9107,1.9397,1.9165,1.8874,1.8874,1.8874,1.8816,1.8874,1.9281,1.9577,1.9751,1.9961,2.0155,2.027,2.027,1.9924,1.9029,1.9229,1.9345,1.9113,1.9287,1.9802,2.0263,2.0723,2.0378,1.9859,2.0651,2.1348,2.162,2.2235,2.2982,2.3416,2.3697,2.4024,2.4295,2.4693,2.4931,2.5368,2.5541,2.5501,2.5283,2.5207,2.4931,2.4624,2.4422,2.4376,2.4257,2.422,2.4211,2.4211,2.4211,2.4211,2.4211,2.4211,2.4211,2.4211,2.4211,2.4229,2.4312,2.4459,2.4753,1.2309,1.1723,1.135,1.1435,1.1789,1.2161,1.2521,1.28,1.3093,1.3055,1.2795,1.271,1.2597,1.2479,1.2668,1.3222,1.425,1.5283,1.5844,1.6253,1.6508,1.6678,1.681,1.7032,1.7171,1.7201,1.731,1.7267,1.7032,1.7086,1.7159,1.7213,1.7394,1.7485,1.7473,1.7467,1.7485,1.7485,1.7485,1.7485,1.7719,1.8181,1.8642,1.8648,1.9339,1.9635,1.9513,1.9519,1.9171,1.8758,1.8525,1.8298,1.7655,1.7485,1.783,1.8357,1.7889,1.7602,1.7537,1.7596,1.7772,1.783,1.8292,1.8532,1.87,1.9107,1.9577,1.9751,1.9628,1.9339,1.8642,1.9165,1.9461,1.9635,1.9866,2.05,2.1067,2.141,2.1345,2.1231,2.1452,2.1509,2.1623,2.232,2.3014,2.3127,2.3408,2.3585,2.3968,2.4573,2.4994,2.5626,2.5919,2.6018,2.5905,2.5738,2.5368,2.4748,2.4643,2.4569,2.4385,2.4211,2.422,2.4248,2.4211,2.4211,2.4211,2.422,2.4211,2.4211,2.4211,2.4229,2.4275,2.4615,2.4968,1.223,1.1534,1.1298,1.1435,1.1822,1.2038,1.2408,1.2804,1.2847,1.288,1.2729,1.2573,1.2424,1.2505,1.295,1.3541,1.4169,1.48,1.5507,1.6006,1.6424,1.6737,1.6984,1.7289,1.7394,1.7388,1.7449,1.7461,1.7334,1.7364,1.7418,1.743,1.743,1.7485,1.7485,1.7485,1.7485,1.7485,1.7485,1.7485,1.7543,1.7661,1.7713,1.7772,1.7889,1.8064,1.8181,1.8181,1.7948,1.783,1.7713,1.7661,1.7485,1.7485,1.7485,1.7596,1.7537,1.7485,1.7485,1.7485,1.7485,1.7485,1.7713,1.7719,1.7889,1.7948,1.8123,1.783,1.7948,1.8,1.7889,1.7948,1.8648,1.9461,2.004,2.1074,2.1873,2.1353,2.1353,2.1288,2.1174,2.1281,2.1452,2.232,2.3014,2.3014,2.307,2.3296,2.3745,2.4518,2.5191,2.5852,2.6181,2.6236,2.6262,2.6142,2.58,2.506,2.4941,2.4854,2.4578,2.4404,2.4312,2.4321,2.4303,2.4367,2.4459,2.4431,2.4284,2.4211,2.4211,2.4211,2.4211,2.4679,2.5179,1.2304,1.1702,1.1333,1.1435,1.1841,1.2167,1.2354,1.2602,1.2833,1.28,1.2602,1.2438,1.2382,1.2519,1.2988,1.3437,1.3902,1.4569,1.5129,1.5698,1.6181,1.6605,1.6797,1.725,1.7485,1.7485,1.7485,1.7479,1.7485,1.7485,1.7485,1.7485,1.7485,1.7485,1.7485,1.7485,1.7485,1.7485,1.7485,1.7485,1.7485,1.7485,1.7485,1.7485,1.7485,1.7485,1.7485,1.7485,1.7485,1.7485,1.7485,1.7485,1.7485,1.7485,1.7485,1.7485,1.7485,1.7485,1.7485,1.7485,1.7485,1.7485,1.7485,1.7543,1.7485,1.7485,1.7485,1.7543,1.7485,1.7485,1.7655,1.8006,1.859,1.9345,1.9924,2.0558,2.1303,2.1303,2.101,2.0952,2.0831,2.0831,2.1002,2.1631,2.249,2.3183,2.3287,2.3568,2.4184,2.4953,2.5633,2.6245,2.64,2.64,2.6418,2.638,2.6205,2.5656,2.5598,2.5378,2.4831,2.4611,2.4615,2.4689,2.4836,2.4854,2.4808,2.4597,2.4385,2.4284,2.4211,2.4275,2.4385,2.4836,2.5289,1.2573,1.1974,1.1407,1.1435,1.1794,1.2156,1.2377,1.2569,1.2843,1.281,1.2578,1.2424,1.2405,1.254,1.2909,1.3308,1.3733,1.4337,1.4729,1.5253,1.5772,1.6279,1.6543,1.7015,1.7426,1.7485,1.7485,1.7485,1.7485,1.7485,1.7485,1.7485,1.7485,1.7485,1.7485,1.7485,1.7485,1.7485,1.7485,1.7485,1.7485,1.7485,1.7485,1.7485,1.7485,1.7485,1.7485,1.7485,1.7485,1.7485,1.7485,1.7485,1.7485,1.7485,1.7485,1.7485,1.7485,1.7485,1.7485,1.7485,1.7485,1.7485,1.7485,1.7485,1.7485,1.7485,1.7485,1.7485,1.7485,1.7485,1.7596,1.8117,1.8525,1.8997,1.9519,1.9924,2.0213,2.0385,2.0321,2.0026,1.991,1.9917,2.0206,2.0823,2.1794,2.2998,2.3512,2.384,2.4565,2.534,2.5852,2.6418,2.6518,2.65,2.6545,2.6481,2.6352,2.6223,2.6104,2.5718,2.5111,2.4941,2.4977,2.5106,2.5258,2.5231,2.512,2.4799,2.4523,2.4661,2.4735,2.4551,2.4661,2.5005,2.5216,1.3029,1.2294,1.1541,1.1435,1.1831,1.201,1.2384,1.2682,1.2823,1.2828,1.2658,1.255,1.2545,1.2756,1.2847,1.3268,1.3892,1.3941,1.4251,1.4731,1.5353,1.5828,1.6248,1.6779,1.7256,1.7426,1.7485,1.7485,1.7485,1.7485,1.7485,1.7485,1.7485,1.7485,1.7485,1.7485,1.7485,1.7485,1.7485,1.7485,1.7485,1.7485,1.7485,1.7485,1.7485,1.7485,1.7485,1.7485,1.7485,1.7485,1.7485,1.7485,1.7485,1.7485,1.7485,1.7485,1.7485,1.7485,1.7485,1.7485,1.7485,1.7485,1.7485,1.7485,1.7485,1.7485,1.7485,1.7485,1.7485,1.7485,1.7479,1.7655,1.8123,1.8467,1.8881,1.9113,1.9461,1.9751,1.9635,1.9165,1.8991,1.8997,1.9287,1.9853,2.1445,2.2757,2.4055,2.439,2.4962,2.5679,2.6026,2.6418,2.6527,2.6582,2.6582,2.649,2.6399,2.6342,2.6223,2.5736,2.5148,2.5203,2.5509,2.5298,2.5344,2.5362,2.5362,2.5106,2.5047,2.5258,2.524,2.4891,2.4638,2.4821,2.4904,1.2889,1.237,1.1731,1.1589,1.1831,1.2049,1.2245,1.2564,1.2706,1.2682,1.2564,1.2434,1.2564,1.2748,1.2979,1.3217,1.3611,1.37,1.3906,1.4376,1.5002,1.5596,1.607,1.6714,1.7367,1.7485,1.7485,1.7485,1.7485,1.7485,1.7485,1.7485,1.7485,1.7485,1.7485,1.7485,1.7485,1.7485,1.7485,1.7485,1.7485,1.7485,1.7485,1.7485,1.7485,1.7485,1.7485,1.7485,1.7485,1.7485,1.7485,1.7485,1.7485,1.7485,1.7485,1.7485,1.7485,1.7491,1.7503,1.7497,1.7485,1.7485,1.7485,1.7491,1.7509,1.7491,1.7485,1.7485,1.7485,1.7485,1.7479,1.7485,1.7719,1.7948,1.8181,1.8415,1.8648,1.8939,1.8881,1.8409,1.8181,1.8071,1.8415,1.8874,2.0752,2.2572,2.3871,2.5,2.5459,2.5907,2.6245,2.6418,2.6582,2.6591,2.6591,2.6554,2.6518,2.6408,2.6342,2.592,2.5525,2.5903,2.6114,2.5803,2.5527,2.5681,2.5672,2.5482,2.5408,2.5424,2.5277,2.5047,2.4849,2.4711,2.4656,1.2953,1.2473,1.1927,1.1734,1.1817,1.1983,1.2142,1.2387,1.2597,1.2592,1.2382,1.2391,1.2602,1.2838,1.3051,1.3293,1.3516,1.3668,1.3665,1.4167,1.4823,1.5423,1.5952,1.6602,1.7309,1.7426,1.7485,1.7485,1.7485,1.7485,1.7485,1.7485,1.7485,1.7485,1.7485,1.7485,1.7485,1.7485,1.7485,1.7485,1.7485,1.7485,1.7485,1.7485,1.7485,1.7485,1.7485,1.7485,1.7485,1.7485,1.7485,1.7485,1.7485,1.7485,1.7485,1.7485,1.7491,1.7509,1.7581,1.7599,1.7642,1.7768,1.7654,1.7636,1.7593,1.7539,1.7485,1.7485,1.7485,1.7485,1.7485,1.7485,1.7485,1.7713,1.7713,1.7889,1.783,1.8006,1.7889,1.7655,1.7602,1.7719,1.8693,1.9383,2.1145,2.3023,2.4428,2.5395,2.5789,2.6136,2.6418,2.6582,2.6591,2.6591,2.6582,2.6564,2.6554,2.6536,2.6462,2.6296,2.6168,2.6463,2.6435,2.603,2.5865,2.5984,2.581,2.5506,2.5424,2.5414,2.5212,2.4973,2.4854,2.4689,2.4514,1.3201,1.2716,1.2224,1.1934,1.1906,1.1822,1.202,1.2446,1.2493,1.2533,1.25,1.25,1.2779,1.3136,1.3341,1.3452,1.3694,1.3789,1.3813,1.4107,1.4818,1.5294,1.5893,1.6602,1.7315,1.7426,1.7485,1.7485,1.7485,1.7485,1.7485,1.7485,1.7485,1.7485,1.7485,1.7485,1.7485,1.7485,1.7485,1.7485,1.7485,1.7485,1.7485,1.7485,1.7485,1.7485,1.7485,1.7485,1.7485,1.7485,1.7485,1.7485,1.7485,1.7485,1.7485,1.7485,1.7485,1.7605,1.7889,1.7925,1.7998,1.8106,1.795,1.7883,1.7817,1.7678,1.7533,1.7581,1.7515,1.7491,1.7485,1.7485,1.7485,1.7485,1.7485,1.7485,1.7485,1.7485,1.7485,1.7485,1.7543,1.7772,1.8978,2.0178,2.1828,2.3463,2.4991,2.5789,2.6127,2.6354,2.6582,2.6591,2.6591,2.6591,2.6591,2.6591,2.6582,2.6591,2.6591,2.6434,2.6379,2.6454,2.6325,2.6104,2.5993,2.5984,2.5699,2.5387,2.535,2.5295,2.5056,2.4845,2.4735,2.4606,2.4422,1.3443,1.2953,1.2467,1.2437,1.2566,1.2024,1.2129,1.2652,1.3026,1.3118,1.3064,1.3152,1.3668,1.403,1.3903,1.3925,1.4217,1.4107,1.4107,1.4396,1.511,1.5709,1.6301,1.6838,1.7373,1.7485,1.7485,1.7485,1.7485,1.7485,1.7485,1.7485,1.7485,1.7485,1.7485,1.7485,1.7485,1.7485,1.7485,1.7485,1.7485,1.7485,1.7485,1.7485,1.7485,1.7485,1.7485,1.7485,1.7485,1.7485,1.7485,1.7485,1.7485,1.7485,1.7485,1.7485,1.7503,1.7702,1.8058,1.8269,1.8348,1.8324,1.8233,1.8155,1.8131,1.7895,1.7787,1.769,1.7587,1.7539,1.7485,1.7485,1.7485,1.7485,1.7485,1.7485,1.7485,1.7485,1.7485,1.7485,1.7543,1.8175,1.9152,2.0465,2.2055,2.3528,2.4944,2.5907,2.6354,2.6473,2.6591,2.6591,2.6591,2.6591,2.6591,2.6591,2.6591,2.6591,2.6591,2.6591,2.6518,2.6509,2.6463,2.637,2.6149,2.592,2.5607,2.5341,2.5258,2.5139,2.4973,2.4955,2.4983,2.4698,2.4303,1.3642,1.3201,1.2807,1.2885,1.3079,1.2442,1.2568,1.3262,1.3759,1.3842,1.3671,1.3807,1.4224,1.4604,1.4582,1.4572,1.4901,1.4823,1.4764,1.5056,1.5591,1.6065,1.6596,1.7126,1.7426,1.7485,1.7485,1.7485,1.7485,1.7485,1.7485,1.7485,1.7485,1.7485,1.7485,1.7485,1.7485,1.7485,1.7485,1.7485,1.7485,1.7485,1.7485,1.7485,1.7485,1.7485,1.7485,1.7485,1.7485,1.7485,1.7485,1.7485,1.7485,1.7485,1.7485,1.7491,1.7726,1.7968,1.836,1.8662,1.8698,1.8632,1.8499,1.8432,1.8384,1.8179,1.798,1.7847,1.7702,1.7581,1.7503,1.7503,1.7485,1.7485,1.7485,1.7485,1.7485,1.7485,1.7485,1.7485,1.7655,1.8402,1.9319,2.0694,2.2176,2.3536,2.4898,2.5688,2.6473,2.6582,2.6582,2.6591,2.6591,2.6591,2.6591,2.6591,2.6591,2.6591,2.6591,2.6591,2.6582,2.6554,2.6573,2.6591,2.626,2.5911,2.5543,2.5323,2.5332,2.5221,2.5029,2.5074,2.5203,2.4799,2.4257,1.3738,1.3491,1.3255,1.3298,1.3437,1.3184,1.3446,1.4191,1.4472,1.4494,1.4229,1.4299,1.4691,1.499,1.4953,1.5228,1.5521,1.5531,1.5596,1.5715,1.6124,1.6419,1.6773,1.7191,1.7426,1.7485,1.7485,1.7485,1.7485,1.7485,1.7485,1.7485,1.7485,1.7485,1.7485,1.7485,1.7485,1.7485,1.7485,1.7485,1.7485,1.7485,1.7485,1.7485,1.7485,1.7485,1.7485,1.7485,1.7485,1.7485,1.7485,1.7485,1.7485,1.7485,1.7485,1.7636,1.8004,1.836,1.8607,1.8861,1.8988,1.8903,1.8801,1.8728,1.8625,1.8456,1.8227,1.8022,1.7853,1.7678,1.7545,1.7515,1.7485,1.7485,1.7485,1.7485,1.7485,1.7485,1.7485,1.7543,1.7661,1.8292,1.9383,2.0759,2.1786,2.2636,2.388,2.5008,2.5798,2.6527,2.6582,2.6591,2.6591,2.6591,2.6591,2.6591,2.6591,2.6591,2.6591,2.6591,2.6591,2.6591,2.6591,2.6535,2.6241,2.5975,2.5846,2.5663,2.5506,2.5359,2.5231,2.501,2.5084,2.4652,2.4211,1.4016,1.3804,1.3679,1.394,1.4447,1.5006,1.4908,1.4315,1.479,1.4991,1.4778,1.523,1.5591,1.6127,1.5921,1.6014,1.6077,1.6124,1.6129,1.6301,1.6478,1.6832,1.7126,1.7367,1.7485,1.7485,1.7485,1.7485,1.7485,1.7485,1.7485,1.7485,1.7485,1.7485,1.7485,1.7485,1.7485,1.7485,1.7485,1.7485,1.7485,1.7485,1.7485,1.7485,1.7485,1.7485,1.7485,1.7485,1.7485,1.7485,1.7485,1.7485,1.7485,1.7491,1.7527,1.7805,1.8227,1.8619,1.8716,1.8991,1.9136,1.9136,1.8982,1.8982,1.8891,1.871,1.845,1.8245,1.801,1.7817,1.7618,1.7533,1.7497,1.7485,1.7485,1.7485,1.7485,1.7485,1.7485,1.7543,1.7661,1.8181,1.9332,2.0314,2.1288,2.1907,2.2757,2.3935,2.5064,2.5798,2.6527,2.6582,2.6591,2.6591,2.6591,2.6591,2.6591,2.6591,2.6591,2.6591,2.6591,2.6591,2.6591,2.6526,2.6324,2.6324,2.6307,2.6087,2.5855,2.569,2.5543,2.5212,2.4863,2.4468,2.4257,1.4202,1.4087,1.4035,1.436,1.493,1.5778,1.5593,1.5033,1.5456,1.559,1.5404,1.5849,1.6287,1.66,1.6567,1.6698,1.6873,1.6832,1.6773,1.6891,1.6891,1.7126,1.742,1.7485,1.7485,1.7485,1.7485,1.7485,1.7485,1.7485,1.7485,1.7485,1.7485,1.7485,1.7485,1.7485,1.7485,1.7485,1.7485,1.7485,1.7485,1.7485,1.7485,1.7485,1.7485,1.7485,1.7485,1.7485,1.7485,1.7485,1.7485,1.7485,1.7521,1.7569,1.7768,1.8052,1.8396,1.8704,1.8855,1.8976,1.9054,1.9136,1.9136,1.906,1.9024,1.8897,1.8686,1.8487,1.8209,1.7956,1.7738,1.7557,1.7521,1.7485,1.7485,1.7485,1.7485,1.7485,1.7543,1.7602,1.7837,1.8246,1.8997,1.9982,2.0558,2.0838,2.1517,2.2749,2.3935,2.4953,2.5907,2.6527,2.6582,2.6591,2.6591,2.6591,2.6591,2.6591,2.6591,2.6591,2.6591,2.6591,2.6591,2.6518,2.6399,2.6435,2.6481,2.6371,2.6205,2.5975,2.5607,2.5185,2.478,2.4404,2.4293,1.4298,1.4304,1.4346,1.4677,1.5203,1.5716,1.5897,1.5916,1.6079,1.6109,1.597,1.6217,1.644,1.6742,1.6918,1.7158,1.7261,1.7303,1.7244,1.7485,1.7361,1.742,1.742,1.7485,1.7485,1.7485,1.7485,1.7485,1.7485,1.7485,1.7485,1.7485,1.7485,1.7485,1.7485,1.7485,1.7485,1.7485,1.7485,1.7485,1.7485,1.7485,1.7485,1.7485,1.7485,1.7485,1.7485,1.7485,1.7485,1.7485,1.7485,1.7485,1.7551,1.7708,1.7974,1.8173,1.8426,1.868,1.8843,1.8951,1.9024,1.9054,1.9136,1.9136,1.9042,1.903,1.8855,1.8541,1.8239,1.7962,1.7732,1.7569,1.7497,1.7485,1.7485,1.7485,1.7485,1.7485,1.7485,1.7661,1.7954,1.8298,1.8596,1.9519,1.9989,1.9938,2.0328,2.1509,2.2974,2.4167,2.5348,2.6354,2.6527,2.6591,2.6591,2.6591,2.6591,2.6591,2.6591,2.6591,2.6591,2.6591,2.6591,2.6527,2.6481,2.6527,2.6536,2.6454,2.6296,2.5865,2.5488,2.5084,2.4707,2.4376,2.4266,1.4298,1.434,1.4745,1.5215,1.568,1.5831,1.5885,1.5891,1.5946,1.5958,1.5982,1.6362,1.6628,1.6742,1.7171,1.7424,1.7455,1.7485,1.7485,1.7485,1.7485,1.7485,1.7485,1.7485,1.7485,1.7485,1.7485,1.7485,1.7485,1.7485,1.7485,1.7485,1.7485,1.7485,1.7485,1.7485,1.7485,1.7485,1.7485,1.7485,1.7485,1.7485,1.7485,1.7485,1.7485,1.7485,1.7485,1.7485,1.7485,1.7485,1.7485,1.7485,1.7491,1.7738,1.7889,1.8016,1.8269,1.8535,1.8692,1.8794,1.8855,1.9006,1.9118,1.913,1.9072,1.9136,1.8909,1.8565,1.8263,1.7992,1.775,1.7605,1.7485,1.7485,1.7485,1.7485,1.7485,1.7485,1.7485,1.7772,1.8064,1.8298,1.848,1.8829,1.9249,1.9482,1.9533,2.0436,2.224,2.3712,2.5064,2.6026,2.6473,2.6591,2.6591,2.6591,2.6591,2.6591,2.6591,2.6591,2.6591,2.6591,2.6591,2.6591,2.6573,2.6591,2.6591,2.6573,2.6342,2.5892,2.558,2.5267,2.4803,2.4496,2.4358,1.4298,1.4364,1.4877,1.5342,1.5692,1.5837,1.5885,1.5885,1.5885,1.5885,1.597,1.6423,1.67,1.6779,1.7249,1.7485,1.7485,1.7485,1.7485,1.7485,1.7485,1.7485,1.7485,1.7485,1.7485,1.7485,1.7485,1.7485,1.7485,1.7485,1.7485,1.7485,1.7485,1.7485,1.7485,1.7485,1.7485,1.7485,1.7485,1.7485,1.7485,1.7485,1.7485,1.7485,1.7485,1.7485,1.7485,1.7485,1.7485,1.7485,1.7485,1.7485,1.7539,1.7732,1.7913,1.7962,1.8143,1.836,1.8463,1.8541,1.8644,1.8825,1.8909,1.8873,1.9024,1.9006,1.8855,1.8535,1.836,1.81,1.7823,1.7636,1.7527,1.7485,1.7485,1.7485,1.7485,1.7485,1.7485,1.7602,1.7895,1.8194,1.8428,1.8771,1.9185,1.9649,1.9591,2.0608,2.2184,2.348,2.4778,2.5798,2.6364,2.6591,2.6591,2.6591,2.6591,2.6591,2.6591,2.6591,2.6591,2.6591,2.6591,2.6591,2.6591,2.6591,2.6591,2.6591,2.6434,2.6021,2.5764,2.5525,2.5023,2.4583,2.444,1.4322,1.4419,1.4902,1.5258,1.5517,1.5783,1.5885,1.5885,1.5885,1.5885,1.5964,1.6459,1.667,1.6875,1.7225,1.7382,1.7485,1.7485,1.7485,1.7485,1.7485,1.7485,1.7485,1.7485,1.7485,1.7485,1.7485,1.7485,1.7485,1.7485,1.7485,1.7485,1.7485,1.7485,1.7485,1.7485,1.7485,1.7485,1.7485,1.7485,1.7485,1.7485,1.7485,1.7485,1.7485,1.7485,1.7485,1.7485,1.7485,1.7485,1.7485,1.7485,1.7521,1.766,1.7726,1.7829,1.7931,1.8106,1.8215,1.8239,1.8432,1.8607,1.865,1.8764,1.8927,1.8879,1.8728,1.8535,1.8354,1.8112,1.7829,1.7654,1.7545,1.7485,1.7485,1.7485,1.7485,1.7485,1.7485,1.7543,1.7843,1.8142,1.8428,1.8713,1.912,1.9584,2.0493,2.168,2.2805,2.388,2.5008,2.5852,2.6473,2.6591,2.6591,2.6591,2.6591,2.6591,2.6591,2.6591,2.6591,2.6591,2.6591,2.6591,2.6591,2.6591,2.6591,2.6591,2.6379,2.6159,2.5773,2.5488,2.5152,2.4739,2.4505,1.4437,1.466,1.498,1.5258,1.5517,1.5783,1.5885,1.5885,1.5885,1.5885,1.6024,1.6416,1.67,1.673,1.7249,1.7473,1.7485,1.7485,1.7485,1.7485,1.7485,1.7485,1.7485,1.7485,1.7485,1.7485,1.7485,1.7485,1.7485,1.7485,1.7485,1.7485,1.7485,1.7485,1.7485,1.7485,1.7485,1.7485,1.7485,1.7485,1.7485,1.7485,1.7485,1.7485,1.7485,1.7485,1.7485,1.7485,1.7485,1.7485,1.7485,1.7485,1.7509,1.7557,1.7593,1.763,1.7732,1.7817,1.7901,1.795,1.8137,1.8565,1.865,1.8764,1.8843,1.8801,1.8613,1.8366,1.8155,1.7871,1.763,1.7569,1.7485,1.7485,1.7485,1.7485,1.7485,1.7485,1.7485,1.7661,1.7954,1.8188,1.8369,1.8771,1.9191,1.9822,2.0666,2.1851,2.2869,2.4047,2.5293,2.5907,2.6582,2.6591,2.6591,2.6591,2.6591,2.6591,2.6591,2.6591,2.6591,2.6591,2.6591,2.6591,2.6591,2.6591,2.6591,2.6536,2.6518,2.627,2.5773,2.5396,2.5115,2.484,2.4569]}]]